| time (UTC) | temp C | wind direction | speed KPH | gust KPH | rain 1hr cm | rain 24hr cm | rain mn cm | humidity % | barometer mb |
| 20260901095501 | 20 | 338 | 6.4 | 17.7 | 0.00 | 0.00 | 0.00 | 62 | 1020.4 |
| 20260901095428 | 20 | 345 | 6.4 | 17.7 | 0.00 | 0.00 | 0.00 | 62 | 1020.4 |
| 20260901095401 | 20 | 321 | 6.4 | 17.7 | 0.00 | 0.00 | 0.00 | 62 | 1020.3 |
| 20260901095301 | 20 | 318 | 6.4 | 17.7 | 0.00 | 0.00 | 0.00 | 62 | 1020.3 |
| 20260901095200 | 20 | 326 | 6.4 | 17.7 | 0.00 | 0.00 | 0.00 | 62 | 1020.3 |
| 20260901095100 | 20 | 299 | 4.8 | 12.9 | 0.00 | 0.00 | 0.00 | 63 | 1020.3 |
| 20260901095000 | 20 | 311 | 4.8 | 12.9 | 0.00 | 0.00 | 0.00 | 62 | 1020.4 |
| 20260901094928 | 20 | 296 | 4.8 | 12.9 | 0.00 | 0.00 | 0.00 | 62 | 1020.4 |
| 20260901094900 | 20 | 305 | 4.8 | 12.9 | 0.00 | 0.00 | 0.00 | 62 | 1020.3 |
| 20260901094800 | 20 | 302 | 6.4 | 12.9 | 0.00 | 0.00 | 0.00 | 62 | 1020.3 |
| 20260901094701 | 20 | 338 | 6.4 | 12.9 | 0.00 | 0.00 | 0.00 | 62 | 1020.3 |
| 20260901094648 | 20 | 289 | 6.4 | 16.1 | 0.00 | 0.00 | 0.00 | 62 | 1020.3 |
| 20260901094644 | 20 | 342 | 6.4 | 12.9 | 0.00 | 0.00 | 0.00 | 62 | 1020.3 |
| 20260901094640 | 20 | 314 | 6.4 | 12.9 | 0.00 | 0.00 | 0.00 | 61 | 1020.3 |
| 20260901094402 | 20 | 306 | 6.4 | 16.1 | 0.00 | 0.00 | 0.00 | 62 | 1020.3 |
| 20260901094301 | 20 | 311 | 6.4 | 16.1 | 0.00 | 0.00 | 0.00 | 63 | 1020.4 |
| 20260901094201 | 20 | 318 | 6.4 | 16.1 | 0.00 | 0.00 | 0.00 | 62 | 1020.3 |
| 20260901094101 | 20 | 292 | 6.4 | 16.1 | 0.00 | 0.00 | 0.00 | 62 | 1020.4 |
| 20260901094001 | 20 | 336 | 6.4 | 16.1 | 0.00 | 0.00 | 0.00 | 62 | 1020.3 |
| 20260901093929 | 20 | 340 | 6.4 | 16.1 | 0.00 | 0.00 | 0.00 | 62 | 1020.3 |
| 20260901093901 | 20 | 340 | 6.4 | 16.1 | 0.00 | 0.00 | 0.00 | 62 | 1020.4 |
| 20260901093801 | 20 | 344 | 6.4 | 16.1 | 0.00 | 0.00 | 0.00 | 63 | 1020.4 |
| 20260901093701 | 20 | 348 | 6.4 | 16.1 | 0.00 | 0.00 | 0.00 | 64 | 1020.4 |
| 20260901093649 | 20 | 287 | 4.8 | 11.3 | 0.00 | 0.00 | 0.00 | 62 | 1020.4 |
| 20260901093644 | 20 | 321 | 6.4 | 16.1 | 0.00 | 0.00 | 0.00 | 63 | 1020.4 |
| 20260901093640 | 20 | 292 | 4.8 | 16.1 | 0.00 | 0.00 | 0.00 | 63 | 1020.4 |
| 20260901093401 | 20 | 313 | 4.8 | 11.3 | 0.00 | 0.00 | 0.00 | 62 | 1020.4 |
| 20260901093301 | 20 | 250 | 4.8 | 11.3 | 0.00 | 0.00 | 0.00 | 62 | 1020.4 |
| 20260901093201 | 20 | 234 | 3.2 | 11.3 | 0.00 | 0.00 | 0.00 | 64 | 1020.5 |
| 20260901093101 | 20 | 244 | 3.2 | 11.3 | 0.00 | 0.00 | 0.00 | 63 | 1020.4 |
| 20260901093001 | 20 | 263 | 3.2 | 9.7 | 0.00 | 0.00 | 0.00 | 63 | 1020.5 |
| 20260901092928 | 20 | 263 | 3.2 | 9.7 | 0.00 | 0.00 | 0.00 | 63 | 1020.5 |
| 20260901092901 | 20 | 273 | 3.2 | 9.7 | 0.00 | 0.00 | 0.00 | 63 | 1020.5 |
| 20260901092801 | 20 | 302 | 3.2 | 8.0 | 0.00 | 0.00 | 0.00 | 63 | 1020.5 |
| 20260901092701 | 20 | 223 | 3.2 | 8.0 | 0.00 | 0.00 | 0.00 | 63 | 1020.4 |
| 20260901092601 | 20 | 222 | 3.2 | 8.0 | 0.00 | 0.00 | 0.00 | 62 | 1020.4 |
| 20260901092501 | 20 | 222 | 3.2 | 8.0 | 0.00 | 0.00 | 0.00 | 62 | 1020.5 |
| 20260901092429 | 20 | 222 | 3.2 | 9.7 | 0.00 | 0.00 | 0.00 | 62 | 1020.5 |
| 20260901092400 | 20 | 222 | 3.2 | 9.7 | 0.00 | 0.00 | 0.00 | 63 | 1020.4 |
| 20260901092300 | 20 | 222 | 3.2 | 9.7 | 0.00 | 0.00 | 0.00 | 64 | 1020.5 |
| 20260901092200 | 20 | 267 | 3.2 | 9.7 | 0.00 | 0.00 | 0.00 | 64 | 1020.5 |
| 20260901092100 | 20 | 278 | 4.8 | 11.3 | 0.00 | 0.00 | 0.00 | 62 | 1020.4 |
| 20260901092000 | 20 | 271 | 4.8 | 12.9 | 0.00 | 0.00 | 0.00 | 62 | 1020.5 |
| 20260901091928 | 20 | 271 | 4.8 | 12.9 | 0.00 | 0.00 | 0.00 | 62 | 1020.5 |
| 20260901091901 | 20 | 271 | 4.8 | 12.9 | 0.00 | 0.00 | 0.00 | 63 | 1020.5 |
| 20260901091801 | 20 | 271 | 4.8 | 14.5 | 0.00 | 0.00 | 0.00 | 63 | 1020.5 |
| 20260901091701 | 20 | 271 | 4.8 | 14.5 | 0.00 | 0.00 | 0.00 | 62 | 1020.5 |
| 20260901091648 | 19 | 289 | 4.8 | 14.5 | 0.00 | 0.00 | 0.00 | 63 | 1020.5 |
| 20260901091644 | 19 | 271 | 4.8 | 14.5 | 0.00 | 0.00 | 0.00 | 64 | 1020.5 |
| 20260901091640 | 19 | 271 | 4.8 | 14.5 | 0.00 | 0.00 | 0.00 | 63 | 1020.5 |
| 20260901091401 | 19 | 265 | 4.8 | 14.5 | 0.00 | 0.00 | 0.00 | 64 | 1020.5 |
| 20260901091257 | 19 | 265 | 4.8 | 14.5 | 0.00 | 0.00 | 0.00 | 64 | 1020.4 |
| 20260901091157 | 19 | 269 | 4.8 | 14.5 | 0.00 | 0.00 | 0.00 | 64 | 1020.4 |
| 20260901091057 | 19 | 283 | 4.8 | 14.5 | 0.00 | 0.00 | 0.00 | 65 | 1020.4 |
| 20260901090957 | 19 | 250 | 3.2 | 14.5 | 0.00 | 0.00 | 0.00 | 64 | 1020.5 |
| 20260901090929 | 19 | 269 | 3.2 | 14.5 | 0.00 | 0.00 | 0.00 | 65 | 1020.5 |
| 20260901090857 | 19 | 279 | 3.2 | 14.5 | 0.00 | 0.00 | 0.00 | 65 | 1020.5 |
| 20260901090755 | 19 | 253 | 3.2 | 8.0 | 0.00 | 0.00 | 0.00 | 64 | 1020.5 |
| 20260901090655 | 19 | 300 | 3.2 | 8.0 | 0.00 | 0.00 | 0.00 | 64 | 1020.5 |
| 20260901090553 | 19 | 302 | 3.2 | 8.0 | 0.00 | 0.00 | 0.00 | 64 | 1020.4 |
| 20260901090453 | 19 | 331 | 3.2 | 8.0 | 0.00 | 0.00 | 0.00 | 65 | 1020.4 |
| 20260901090429 | 19 | 331 | 3.2 | 8.0 | 0.00 | 0.00 | 0.00 | 64 | 1020.4 |
| 20260901090350 | 19 | 332 | 3.2 | 8.0 | 0.00 | 0.00 | 0.00 | 64 | 1020.4 |
| 20260901090245 | 19 | 331 | 3.2 | 8.0 | 0.00 | 0.00 | 0.00 | 64 | 1020.4 |
| 20260901090145 | 19 | 332 | 3.2 | 8.0 | 0.00 | 0.00 | 0.00 | 65 | 1020.5 |
| 20260901090045 | 19 | 304 | 3.2 | 8.0 | 0.00 | 0.00 | 0.00 | 65 | 1020.5 |
| 20260901085945 | 19 | 261 | 3.2 | 8.0 | 0.00 | 0.00 | 0.00 | 65 | 1020.5 |
| 20260901085929 | 19 | 261 | 3.2 | 9.7 | 0.00 | 0.00 | 0.00 | 64 | 1020.5 |
| 20260901085845 | 19 | 259 | 3.2 | 9.7 | 0.00 | 0.00 | 0.00 | 64 | 1020.5 |
| 20260901085740 | 19 | 255 | 3.2 | 9.7 | 0.00 | 0.00 | 0.00 | 64 | 1020.4 |
| 20260901085639 | 19 | 255 | 3.2 | 9.7 | 0.00 | 0.00 | 0.00 | 63 | 1020.4 |
| 20260901085539 | 19 | 255 | 3.2 | 9.7 | 0.00 | 0.00 | 0.00 | 63 | 1020.4 |
| 20260901085428 | 19 | 254 | 3.2 | 9.7 | 0.00 | 0.00 | 0.00 | 63 | 1020.4 |
| 20260901085338 | 19 | 255 | 4.8 | 9.7 | 0.00 | 0.00 | 0.00 | 64 | 1020.4 |
| 20260901085233 | 19 | 255 | 4.8 | 9.7 | 0.00 | 0.00 | 0.00 | 65 | 1020.4 |
| 20260901085133 | 19 | 222 | 4.8 | 9.7 | 0.00 | 0.00 | 0.00 | 66 | 1020.5 |
| 20260901085033 | 19 | 289 | 4.8 | 9.7 | 0.00 | 0.00 | 0.00 | 66 | 1020.4 |
| 20260901084932 | 19 | 269 | 4.8 | 9.7 | 0.00 | 0.00 | 0.00 | 66 | 1020.4 |
| 20260901084928 | 19 | 268 | 4.8 | 9.7 | 0.00 | 0.00 | 0.00 | 66 | 1020.4 |
| 20260901084829 | 19 | 285 | 4.8 | 9.7 | 0.00 | 0.00 | 0.00 | 67 | 1020.5 |
| 20260901084729 | 19 | 330 | 4.8 | 9.7 | 0.00 | 0.00 | 0.00 | 66 | 1020.5 |
| 20260901084629 | 19 | 330 | 4.8 | 9.7 | 0.00 | 0.00 | 0.00 | 66 | 1020.5 |
| 20260901084529 | 19 | 292 | 3.2 | 9.7 | 0.00 | 0.00 | 0.00 | 66 | 1020.5 |
| 20260901084429 | 19 | 298 | 4.8 | 9.7 | 0.00 | 0.00 | 0.00 | 66 | 1020.5 |
| 20260901084329 | 19 | 327 | 3.2 | 9.7 | 0.00 | 0.00 | 0.00 | 66 | 1020.4 |
| 20260901084229 | 18 | 355 | 3.2 | 9.7 | 0.00 | 0.00 | 0.00 | 68 | 1020.5 |
| 20260901084129 | 18 | 5 | 3.2 | 9.7 | 0.00 | 0.00 | 0.00 | 66 | 1020.5 |
| 20260901084028 | 18 | 301 | 3.2 | 9.7 | 0.00 | 0.00 | 0.00 | 66 | 1020.4 |
| 20260901083929 | 18 | 301 | 3.2 | 9.7 | 0.00 | 0.00 | 0.00 | 66 | 1020.5 |
| 20260901083829 | 18 | 301 | 3.2 | 9.7 | 0.00 | 0.00 | 0.00 | 67 | 1020.4 |
| 20260901083729 | 18 | 301 | 3.2 | 9.7 | 0.00 | 0.00 | 0.00 | 66 | 1020.5 |
| 20260901083629 | 18 | 304 | 4.8 | 11.3 | 0.00 | 0.00 | 0.00 | 66 | 1020.5 |
| 20260901083529 | 18 | 300 | 4.8 | 11.3 | 0.00 | 0.00 | 0.00 | 65 | 1020.5 |
| 20260901083429 | 18 | 283 | 4.8 | 11.3 | 0.00 | 0.00 | 0.00 | 65 | 1020.5 |
| 20260901083329 | 18 | 283 | 4.8 | 11.3 | 0.00 | 0.00 | 0.00 | 64 | 1020.5 |
| 20260901083229 | 18 | 283 | 4.8 | 11.3 | 0.00 | 0.00 | 0.00 | 65 | 1020.5 |
| 20260901083128 | 18 | 294 | 4.8 | 11.3 | 0.00 | 0.00 | 0.00 | 64 | 1020.5 |
| 20260901083028 | 18 | 294 | 6.4 | 11.3 | 0.00 | 0.00 | 0.00 | 65 | 1020.4 |
| 20260901082929 | 18 | 294 | 6.4 | 11.3 | 0.00 | 0.00 | 0.00 | 65 | 1020.5 |
| 20260901082829 | 18 | 293 | 6.4 | 11.3 | 0.00 | 0.00 | 0.00 | 64 | 1020.5 |
| 20260901082729 | 18 | 197 | 6.4 | 11.3 | 0.00 | 0.00 | 0.00 | 66 | 1020.5 |
| 20260901082647 | 18 | 213 | 6.4 | 11.3 | 0.00 | 0.00 | 0.00 | 67 | 1020.5 |
| 20260901082643 | 18 | 230 | 6.4 | 11.3 | 0.00 | 0.00 | 0.00 | 66 | 1020.4 |
| 20260901082639 | 18 | 269 | 4.8 | 11.3 | 0.00 | 0.00 | 0.00 | 67 | 1020.4 |
| 20260901082328 | 18 | 270 | 4.8 | 11.3 | 0.00 | 0.00 | 0.00 | 67 | 1020.4 |
| 20260901082228 | 18 | 275 | 4.8 | 11.3 | 0.00 | 0.00 | 0.00 | 66 | 1020.4 |
| 20260901082129 | 18 | 308 | 4.8 | 11.3 | 0.00 | 0.00 | 0.00 | 67 | 1020.4 |
| 20260901082028 | 18 | 295 | 4.8 | 11.3 | 0.00 | 0.00 | 0.00 | 69 | 1020.4 |
| 20260901081929 | 18 | 250 | 4.8 | 11.3 | 0.00 | 0.00 | 0.00 | 68 | 1020.4 |
| 20260901081829 | 18 | 263 | 4.8 | 9.7 | 0.00 | 0.00 | 0.00 | 68 | 1020.4 |
| 20260901081729 | 18 | 262 | 4.8 | 9.7 | 0.00 | 0.00 | 0.00 | 68 | 1020.4 |
| 20260901081638 | 18 | 259 | 4.8 | 9.7 | 0.00 | 0.00 | 0.00 | 68 | 1020.4 |
| 20260901081529 | 18 | 294 | 4.8 | 9.7 | 0.00 | 0.00 | 0.00 | 68 | 1020.4 |
| 20260901081430 | 18 | 276 | 4.8 | 9.7 | 0.00 | 0.00 | 0.00 | 68 | 1020.4 |
| 20260901081329 | 18 | 246 | 4.8 | 9.7 | 0.00 | 0.00 | 0.00 | 68 | 1020.4 |
| 20260901081229 | 18 | 259 | 4.8 | 9.7 | 0.00 | 0.00 | 0.00 | 69 | 1020.4 |
| 20260901081129 | 18 | 261 | 4.8 | 9.7 | 0.00 | 0.00 | 0.00 | 69 | 1020.4 |
| 20260901081028 | 18 | 259 | 4.8 | 11.3 | 0.00 | 0.00 | 0.00 | 69 | 1020.4 |
| 20260901080930 | 18 | 204 | 4.8 | 11.3 | 0.00 | 0.00 | 0.00 | 69 | 1020.4 |
| 20260901080926 | 18 | 205 | 4.8 | 11.3 | 0.00 | 0.00 | 0.00 | 69 | 1020.4 |
| 20260901080821 | 18 | 262 | 4.8 | 11.3 | 0.00 | 0.00 | 0.00 | 69 | 1020.4 |
| 20260901080721 | 18 | 257 | 4.8 | 11.3 | 0.00 | 0.00 | 0.00 | 69 | 1020.4 |
| 20260901080620 | 18 | 277 | 4.8 | 11.3 | 0.00 | 0.00 | 0.00 | 70 | 1020.4 |
| 20260901080521 | 18 | 298 | 4.8 | 11.3 | 0.00 | 0.00 | 0.00 | 69 | 1020.4 |
| 20260901080421 | 18 | 238 | 4.8 | 11.3 | 0.00 | 0.00 | 0.00 | 69 | 1020.4 |
| 20260901080315 | 18 | 238 | 4.8 | 11.3 | 0.00 | 0.00 | 0.00 | 70 | 1020.4 |
| 20260901080215 | 17 | 242 | 3.2 | 11.3 | 0.00 | 0.00 | 0.00 | 70 | 1020.3 |
| 20260901080155 | 17 | 274 | 3.2 | 11.3 | 0.00 | 0.00 | 0.00 | 70 | 1020.3 |
| 20260901080144 | 17 | 255 | 3.2 | 11.3 | 0.00 | 0.00 | 0.00 | 70 | 1020.3 |
| 20260901080140 | 17 | 232 | 3.2 | 11.3 | 0.00 | 0.00 | 0.00 | 70 | 1020.3 |
| 20260901075918 | 17 | 275 | 3.2 | 11.3 | 0.00 | 0.00 | 0.00 | 70 | 1020.3 |
| 20260901075810 | 17 | 279 | 3.2 | 11.3 | 0.00 | 0.00 | 0.00 | 71 | 1020.3 |
| 20260901075710 | 17 | 251 | 3.2 | 8.0 | 0.00 | 0.00 | 0.00 | 71 | 1020.3 |
| 20260901075612 | 17 | 217 | 3.2 | 8.0 | 0.00 | 0.00 | 0.00 | 70 | 1020.2 |
| 20260901075510 | 17 | 298 | 3.2 | 8.0 | 0.00 | 0.00 | 0.00 | 71 | 1020.3 |
| 20260901075428 | 17 | 308 | 3.2 | 8.0 | 0.00 | 0.00 | 0.00 | 71 | 1020.3 |
| 20260901075408 | 17 | 286 | 3.2 | 8.0 | 0.00 | 0.00 | 0.00 | 71 | 1020.3 |
| 20260901075307 | 17 | 281 | 4.8 | 8.0 | 0.00 | 0.00 | 0.00 | 71 | 1020.3 |
| 20260901075203 | 17 | 282 | 4.8 | 8.0 | 0.00 | 0.00 | 0.00 | 72 | 1020.3 |
| 20260901075103 | 17 | 286 | 4.8 | 8.0 | 0.00 | 0.00 | 0.00 | 72 | 1020.3 |
| 20260901075001 | 17 | 287 | 4.8 | 8.0 | 0.00 | 0.00 | 0.00 | 72 | 1020.3 |
| 20260901074928 | 17 | 287 | 4.8 | 8.0 | 0.00 | 0.00 | 0.00 | 72 | 1020.3 |
| 20260901074902 | 17 | 234 | 3.2 | 8.0 | 0.00 | 0.00 | 0.00 | 71 | 1020.3 |
| 20260901074802 | 17 | 234 | 3.2 | 8.0 | 0.00 | 0.00 | 0.00 | 72 | 1020.3 |
| 20260901074701 | 17 | 274 | 3.2 | 8.0 | 0.00 | 0.00 | 0.00 | 72 | 1020.3 |
| 20260901074601 | 17 | 284 | 4.8 | 9.7 | 0.00 | 0.00 | 0.00 | 72 | 1020.3 |
| 20260901074502 | 17 | 293 | 4.8 | 11.3 | 0.00 | 0.00 | 0.00 | 72 | 1020.3 |
| 20260901074400 | 17 | 294 | 4.8 | 11.3 | 0.00 | 0.00 | 0.00 | 72 | 1020.3 |
| 20260901074301 | 17 | 292 | 4.8 | 11.3 | 0.00 | 0.00 | 0.00 | 72 | 1020.2 |
| 20260901074201 | 17 | 284 | 4.8 | 11.3 | 0.00 | 0.00 | 0.00 | 72 | 1020.3 |
| 20260901074100 | 17 | 283 | 4.8 | 11.3 | 0.00 | 0.00 | 0.00 | 72 | 1020.2 |
| 20260901074001 | 17 | 284 | 4.8 | 11.3 | 0.00 | 0.00 | 0.00 | 72 | 1020.2 |
| 20260901073928 | 17 | 283 | 4.8 | 11.3 | 0.00 | 0.00 | 0.00 | 72 | 1020.2 |
| 20260901073901 | 17 | 317 | 4.8 | 11.3 | 0.00 | 0.00 | 0.00 | 72 | 1020.3 |
| 20260901073801 | 17 | 299 | 4.8 | 11.3 | 0.00 | 0.00 | 0.00 | 73 | 1020.3 |
| 20260901073701 | 17 | 290 | 4.8 | 11.3 | 0.00 | 0.00 | 0.00 | 72 | 1020.3 |
| 20260901073601 | 17 | 280 | 4.8 | 11.3 | 0.00 | 0.00 | 0.00 | 72 | 1020.3 |
| 20260901073501 | 17 | 262 | 4.8 | 11.3 | 0.00 | 0.00 | 0.00 | 72 | 1020.3 |
| 20260901073429 | 17 | 243 | 4.8 | 11.3 | 0.00 | 0.00 | 0.00 | 73 | 1020.3 |
| 20260901073400 | 17 | 239 | 4.8 | 11.3 | 0.00 | 0.00 | 0.00 | 73 | 1020.2 |
| 20260901073300 | 16 | 228 | 4.8 | 11.3 | 0.00 | 0.00 | 0.00 | 73 | 1020.3 |
| 20260901073201 | 16 | 240 | 4.8 | 11.3 | 0.00 | 0.00 | 0.00 | 73 | 1020.3 |
| 20260901073056 | 16 | 269 | 4.8 | 11.3 | 0.00 | 0.00 | 0.00 | 73 | 1020.2 |
| 20260901072928 | 16 | 269 | 4.8 | 11.3 | 0.00 | 0.00 | 0.00 | 73 | 1020.2 |
| 20260901072857 | 16 | 267 | 4.8 | 11.3 | 0.00 | 0.00 | 0.00 | 73 | 1020.3 |
| 20260901072757 | 16 | 317 | 4.8 | 11.3 | 0.00 | 0.00 | 0.00 | 73 | 1020.2 |
| 20260901072657 | 16 | 248 | 4.8 | 9.7 | 0.00 | 0.00 | 0.00 | 73 | 1020.3 |
| 20260901072551 | 16 | 250 | 4.8 | 9.7 | 0.00 | 0.00 | 0.00 | 74 | 1020.2 |
| 20260901072451 | 16 | 257 | 4.8 | 9.7 | 0.00 | 0.00 | 0.00 | 74 | 1020.2 |
| 20260901072428 | 16 | 256 | 4.8 | 9.7 | 0.00 | 0.00 | 0.00 | 74 | 1020.2 |
| 20260901072350 | 16 | 284 | 4.8 | 9.7 | 0.00 | 0.00 | 0.00 | 74 | 1020.2 |
| 20260901072250 | 16 | 213 | 4.8 | 9.7 | 0.00 | 0.00 | 0.00 | 74 | 1020.2 |
| 20260901072150 | 16 | 277 | 4.8 | 9.7 | 0.00 | 0.00 | 0.00 | 75 | 1020.2 |
| 20260901072046 | 16 | 269 | 4.8 | 9.7 | 0.00 | 0.00 | 0.00 | 75 | 1020.2 |
| 20260901071929 | 16 | 292 | 4.8 | 9.7 | 0.00 | 0.00 | 0.00 | 74 | 1020.1 |
| 20260901071846 | 16 | 295 | 4.8 | 11.3 | 0.00 | 0.00 | 0.00 | 74 | 1020.2 |
| 20260901071747 | 16 | 259 | 4.8 | 11.3 | 0.00 | 0.00 | 0.00 | 75 | 1020.2 |
| 20260901071653 | 16 | 259 | 6.4 | 11.3 | 0.00 | 0.00 | 0.00 | 75 | 1020.2 |
| 20260901071645 | 16 | 276 | 6.4 | 11.3 | 0.00 | 0.00 | 0.00 | 75 | 1020.2 |
| 20260901071641 | 16 | 275 | 6.4 | 11.3 | 0.00 | 0.00 | 0.00 | 75 | 1020.1 |
| 20260901071343 | 16 | 275 | 6.4 | 11.3 | 0.00 | 0.00 | 0.00 | 75 | 1020.2 |
| 20260901071243 | 16 | 275 | 6.4 | 11.3 | 0.00 | 0.00 | 0.00 | 75 | 1020.2 |
| 20260901071143 | 16 | 268 | 6.4 | 11.3 | 0.00 | 0.00 | 0.00 | 76 | 1020.2 |
| 20260901071043 | 16 | 263 | 4.8 | 11.3 | 0.00 | 0.00 | 0.00 | 76 | 1020.1 |
| 20260901070941 | 15 | 269 | 4.8 | 11.3 | 0.00 | 0.00 | 0.00 | 76 | 1020.2 |
| 20260901070928 | 16 | 269 | 4.8 | 11.3 | 0.00 | 0.00 | 0.00 | 76 | 1020.2 |
| 20260901070840 | 15 | 262 | 4.8 | 11.3 | 0.00 | 0.00 | 0.00 | 76 | 1020.2 |
| 20260901070740 | 15 | 238 | 4.8 | 11.3 | 0.00 | 0.00 | 0.00 | 76 | 1020.2 |
| 20260901070641 | 15 | 255 | 3.2 | 8.0 | 0.00 | 0.00 | 0.00 | 77 | 1020.2 |
| 20260901070541 | 15 | 264 | 3.2 | 6.4 | 0.00 | 0.00 | 0.00 | 78 | 1020.2 |
| 20260901070440 | 15 | 293 | 3.2 | 6.4 | 0.00 | 0.00 | 0.00 | 78 | 1020.2 |
| 20260901070429 | 15 | 302 | 3.2 | 6.4 | 0.00 | 0.00 | 0.00 | 78 | 1020.2 |
| 20260901070340 | 15 | 302 | 3.2 | 6.4 | 0.00 | 0.00 | 0.00 | 78 | 1020.2 |
| 20260901070241 | 15 | 294 | 3.2 | 6.4 | 0.00 | 0.00 | 0.00 | 78 | 1020.2 |
| 20260901070141 | 15 | 290 | 1.6 | 4.8 | 0.00 | 0.00 | 0.00 | 78 | 1020.2 |
| 20260901070040 | 15 | 290 | 1.6 | 4.8 | 0.00 | 0.00 | 0.00 | 78 | 1020.2 |
| 20260901065929 | 15 | 290 | 1.6 | 4.8 | 0.00 | 0.00 | 0.00 | 79 | 1020.1 |
| 20260901065834 | 15 | 290 | 1.6 | 4.8 | 0.00 | 0.00 | 0.00 | 79 | 1020.1 |
| 20260901065734 | 15 | 290 | 1.6 | 4.8 | 0.00 | 0.00 | 0.00 | 79 | 1020.1 |
| 20260901065634 | 15 | 243 | 1.6 | 4.8 | 0.00 | 0.00 | 0.00 | 79 | 1020.2 |
| 20260901065534 | 15 | 241 | 3.2 | 4.8 | 0.00 | 0.00 | 0.00 | 79 | 1020.1 |
| 20260901065428 | 15 | 241 | 3.2 | 4.8 | 0.00 | 0.00 | 0.00 | 79 | 1020.1 |
| 20260901065335 | 15 | 241 | 3.2 | 4.8 | 0.00 | 0.00 | 0.00 | 79 | 1020.1 |
| 20260901065233 | 15 | 240 | 1.6 | 4.8 | 0.00 | 0.00 | 0.00 | 80 | 1020.1 |
| 20260901065130 | 15 | 239 | 3.2 | 4.8 | 0.00 | 0.00 | 0.00 | 80 | 1020.1 |
| 20260901065029 | 15 | 239 | 1.6 | 4.8 | 0.00 | 0.00 | 0.00 | 80 | 1020.1 |
| 20260901064929 | 15 | 239 | 1.6 | 4.8 | 0.00 | 0.00 | 0.00 | 80 | 1020.1 |
| 20260901064829 | 15 | 239 | 1.6 | 4.8 | 0.00 | 0.00 | 0.00 | 80 | 1020.1 |
| 20260901064729 | 15 | 239 | 1.6 | 4.8 | 0.00 | 0.00 | 0.00 | 80 | 1020.1 |
| 20260901064653 | 15 | 236 | 1.6 | 4.8 | 0.00 | 0.00 | 0.00 | 80 | 1020.1 |
| 20260901064645 | 15 | 213 | 1.6 | 4.8 | 0.00 | 0.00 | 0.00 | 80 | 1020.1 |
| 20260901064641 | 14 | 213 | 1.6 | 4.8 | 0.00 | 0.00 | 0.00 | 81 | 1020.1 |
| 20260901064328 | 14 | 198 | 1.6 | 4.8 | 0.00 | 0.00 | 0.00 | 81 | 1020.1 |
| 20260901064229 | 14 | 192 | 1.6 | 4.8 | 0.00 | 0.00 | 0.00 | 82 | 1020.1 |
| 20260901064129 | 14 | 180 | 1.6 | 4.8 | 0.00 | 0.00 | 0.00 | 82 | 1020.1 |
| 20260901064028 | 14 | 180 | 1.6 | 4.8 | 0.00 | 0.00 | 0.00 | 82 | 1020.1 |
| 20260901063928 | 14 | 180 | 1.6 | 4.8 | 0.00 | 0.00 | 0.00 | 82 | 1020.1 |
| 20260901063828 | 14 | 180 | 1.6 | 4.8 | 0.00 | 0.00 | 0.00 | 82 | 1020.1 |
| 20260901063726 | 14 | 180 | 1.6 | 4.8 | 0.00 | 0.00 | 0.00 | 83 | 1020.1 |
| 20260901063627 | 14 | 180 | 1.6 | 4.8 | 0.00 | 0.00 | 0.00 | 83 | 1020.1 |
| 20260901063526 | 14 | 179 | 1.6 | 6.4 | 0.00 | 0.00 | 0.00 | 83 | 1020.1 |
| 20260901063427 | 14 | 179 | 1.6 | 6.4 | 0.00 | 0.00 | 0.00 | 83 | 1020.1 |
| 20260901063325 | 13 | 179 | 1.6 | 6.4 | 0.00 | 0.00 | 0.00 | 84 | 1020.1 |
| 20260901063225 | 13 | 179 | 1.6 | 6.4 | 0.00 | 0.00 | 0.00 | 84 | 1020.1 |
| 20260901063125 | 13 | 178 | 1.6 | 6.4 | 0.00 | 0.00 | 0.00 | 84 | 1020.2 |
| 20260901063024 | 13 | 171 | 1.6 | 6.4 | 0.00 | 0.00 | 0.00 | 84 | 1020.2 |
| 20260901062924 | 13 | 171 | 1.6 | 6.4 | 0.00 | 0.00 | 0.00 | 84 | 1020.2 |
| 20260901062824 | 13 | 171 | 1.6 | 6.4 | 0.00 | 0.00 | 0.00 | 84 | 1020.2 |
| 20260901062724 | 13 | 171 | 1.6 | 6.4 | 0.00 | 0.00 | 0.00 | 84 | 1020.2 |
| 20260901062625 | 13 | 171 | 1.6 | 6.4 | 0.00 | 0.00 | 0.00 | 84 | 1020.2 |
| 20260901062525 | 13 | 165 | 1.6 | 4.8 | 0.00 | 0.00 | 0.00 | 85 | 1020.2 |
| 20260901062425 | 13 | 165 | 1.6 | 4.8 | 0.00 | 0.00 | 0.00 | 85 | 1020.1 |
| 20260901062325 | 13 | 150 | 1.6 | 4.8 | 0.00 | 0.00 | 0.00 | 85 | 1020.1 |
| 20260901062224 | 13 | 151 | 1.6 | 4.8 | 0.00 | 0.00 | 0.00 | 85 | 1020.1 |
| 20260901062124 | 13 | 151 | 0.0 | 4.8 | 0.00 | 0.00 | 0.00 | 85 | 1020.1 |
| 20260901062025 | 13 | 125 | 0.0 | 3.2 | 0.00 | 0.00 | 0.00 | 85 | 1020.2 |
| 20260901061924 | 13 | 117 | 0.0 | 3.2 | 0.00 | 0.00 | 0.00 | 85 | 1020.1 |
| 20260901061824 | 13 | 117 | 0.0 | 3.2 | 0.00 | 0.00 | 0.00 | 85 | 1020.2 |
| 20260901061720 | 13 | 117 | 0.0 | 3.2 | 0.00 | 0.00 | 0.00 | 85 | 1020.1 |
| 20260901061621 | 13 | 117 | 0.0 | 3.2 | 0.00 | 0.00 | 0.00 | 86 | 1020.2 |
| 20260901061520 | 12 | 117 | 0.0 | 3.2 | 0.00 | 0.00 | 0.00 | 86 | 1020.1 |
| 20260901061421 | 12 | 117 | 0.0 | 3.2 | 0.00 | 0.00 | 0.00 | 86 | 1020.1 |
| 20260901061321 | 12 | 117 | 0.0 | 3.2 | 0.00 | 0.00 | 0.00 | 86 | 1020.1 |
| 20260901061221 | 12 | 117 | 0.0 | 3.2 | 0.00 | 0.00 | 0.00 | 86 | 1020.1 |
| 20260901061121 | 12 | 117 | 0.0 | 3.2 | 0.00 | 0.00 | 0.00 | 86 | 1020.1 |
| 20260901061021 | 12 | 101 | 0.0 | 1.6 | 0.00 | 0.00 | 0.00 | 86 | 1020.2 |
| 20260901060929 | 12 | 101 | 0.0 | 1.6 | 0.00 | 0.00 | 0.00 | 86 | 1020.2 |
| 20260901060920 | 12 | 101 | 0.0 | 1.6 | 0.00 | 0.00 | 0.00 | 86 | 1020.1 |
| 20260901060820 | 12 | 101 | 0.0 | 1.6 | 0.00 | 0.00 | 0.00 | 87 | 1020.1 |
| 20260901060720 | 12 | 101 | 0.0 | 3.2 | 0.00 | 0.00 | 0.00 | 87 | 1020.2 |
| 20260901060620 | 12 | 101 | 0.0 | 3.2 | 0.00 | 0.00 | 0.00 | 87 | 1020.1 |
| 20260901060520 | 12 | 101 | 0.0 | 3.2 | 0.00 | 0.00 | 0.00 | 87 | 1020.1 |
| 20260901060420 | 12 | 101 | 0.0 | 3.2 | 0.00 | 0.00 | 0.00 | 87 | 1020.1 |
| 20260901060320 | 12 | 101 | 0.0 | 3.2 | 0.00 | 0.00 | 0.00 | 87 | 1020.1 |
| 20260901060221 | 12 | 101 | 0.0 | 3.2 | 0.00 | 0.00 | 0.00 | 87 | 1020.1 |
| 20260901060151 | 12 | 101 | 0.0 | 3.2 | 0.00 | 0.00 | 0.00 | 87 | 1020.1 |
| 20260901060147 | 12 | 101 | 0.0 | 3.2 | 0.00 | 0.00 | 0.00 | 87 | 1020.1 |
| 20260901060139 | 12 | 101 | 0.0 | 3.2 | 0.00 | 0.00 | 0.00 | 87 | 1020.1 |
| 20260901055920 | 12 | 101 | 0.0 | 3.2 | 0.00 | 0.00 | 0.00 | 87 | 1020.1 |
| 20260901055816 | 12 | 101 | 0.0 | 3.2 | 0.00 | 0.00 | 0.00 | 87 | 1020.1 |
| 20260901055716 | 12 | 101 | 0.0 | 3.2 | 0.00 | 0.00 | 0.00 | 87 | 1020.1 |
| 20260901055652 | 12 | 101 | 0.0 | 3.2 | 0.00 | 0.00 | 0.00 | 87 | 1020.0 |
| 20260901055648 | 12 | 101 | 0.0 | 1.6 | 0.00 | 0.00 | 0.00 | 87 | 1020.1 |
| 20260901055640 | 12 | 101 | 0.0 | 3.2 | 0.00 | 0.00 | 0.00 | 87 | 1020.0 |
| 20260901055416 | 12 | 101 | 0.0 | 3.2 | 0.00 | 0.00 | 0.00 | 87 | 1020.1 |
| 20260901055317 | 12 | 101 | 0.0 | 3.2 | 0.00 | 0.00 | 0.00 | 87 | 1020.1 |
| 20260901055217 | 12 | 101 | 0.0 | 3.2 | 0.00 | 0.00 | 0.00 | 87 | 1020.0 |
| 20260901055159 | 12 | 101 | 0.0 | 3.2 | 0.00 | 0.00 | 0.00 | 86 | 1020.1 |
| 20260901055147 | 12 | 101 | 0.0 | 3.2 | 0.00 | 0.00 | 0.00 | 86 | 1020.1 |
| 20260901055139 | 12 | 101 | 0.0 | 3.2 | 0.00 | 0.00 | 0.00 | 86 | 1020.1 |
| 20260901054917 | 12 | 101 | 0.0 | 3.2 | 0.00 | 0.00 | 0.00 | 86 | 1020.1 |
| 20260901054817 | 12 | 101 | 1.6 | 3.2 | 0.00 | 0.00 | 0.00 | 86 | 1020.1 |
| 20260901054716 | 12 | 101 | 1.6 | 3.2 | 0.00 | 0.00 | 0.00 | 87 | 1020.1 |
| 20260901054616 | 12 | 101 | 1.6 | 4.8 | 0.00 | 0.00 | 0.00 | 87 | 1020.0 |
| 20260901054516 | 12 | 101 | 0.0 | 4.8 | 0.00 | 0.00 | 0.00 | 86 | 1020.0 |
| 20260901054417 | 12 | 101 | 0.0 | 4.8 | 0.00 | 0.00 | 0.00 | 86 | 1020.0 |
| 20260901054317 | 12 | 101 | 0.0 | 4.8 | 0.00 | 0.00 | 0.00 | 87 | 1020.0 |
| 20260901054217 | 12 | 101 | 0.0 | 4.8 | 0.00 | 0.00 | 0.00 | 87 | 1020.0 |
| 20260901054117 | 12 | 101 | 0.0 | 4.8 | 0.00 | 0.00 | 0.00 | 86 | 1020.0 |
| 20260901054017 | 12 | 101 | 1.6 | 4.8 | 0.00 | 0.00 | 0.00 | 86 | 1020.0 |
| 20260901053913 | 12 | 101 | 1.6 | 4.8 | 0.00 | 0.00 | 0.00 | 86 | 1020.0 |
| 20260901053813 | 12 | 101 | 1.6 | 4.8 | 0.00 | 0.00 | 0.00 | 86 | 1020.0 |
| 20260901053712 | 12 | 101 | 1.6 | 4.8 | 0.00 | 0.00 | 0.00 | 86 | 1020.0 |
| 20260901053612 | 12 | 101 | 1.6 | 3.2 | 0.00 | 0.00 | 0.00 | 86 | 1020.1 |
| 20260901053512 | 12 | 101 | 1.6 | 3.2 | 0.00 | 0.00 | 0.00 | 86 | 1020.0 |
| 20260901053430 | 12 | 101 | 1.6 | 3.2 | 0.00 | 0.00 | 0.00 | 86 | 1020.0 |
| 20260901053412 | 12 | 100 | 1.6 | 3.2 | 0.00 | 0.00 | 0.00 | 86 | 1020.0 |
| 20260901053312 | 12 | 100 | 1.6 | 3.2 | 0.00 | 0.00 | 0.00 | 86 | 1020.0 |
| 20260901053212 | 12 | 100 | 0.0 | 3.2 | 0.00 | 0.00 | 0.00 | 86 | 1019.9 |
| 20260901053114 | 12 | 101 | 0.0 | 3.2 | 0.00 | 0.00 | 0.00 | 86 | 1020.0 |
| 20260901053012 | 12 | 100 | 0.0 | 3.2 | 0.00 | 0.00 | 0.00 | 86 | 1020.0 |
| 20260901052913 | 12 | 100 | 0.0 | 3.2 | 0.00 | 0.00 | 0.00 | 86 | 1020.0 |
| 20260901052813 | 12 | 100 | 0.0 | 3.2 | 0.00 | 0.00 | 0.00 | 86 | 1020.1 |
| 20260901052713 | 12 | 100 | 0.0 | 1.6 | 0.00 | 0.00 | 0.00 | 86 | 1020.0 |
| 20260901052612 | 12 | 100 | 0.0 | 1.6 | 0.00 | 0.00 | 0.00 | 86 | 1020.0 |
| 20260901052513 | 12 | 100 | 0.0 | 1.6 | 0.00 | 0.00 | 0.00 | 86 | 1020.1 |
| 20260901052413 | 12 | 100 | 0.0 | 1.6 | 0.00 | 0.00 | 0.00 | 86 | 1020.1 |
| 20260901052312 | 12 | 100 | 0.0 | 1.6 | 0.00 | 0.00 | 0.00 | 86 | 1020.1 |
| 20260901052212 | 12 | 100 | 0.0 | 1.6 | 0.00 | 0.00 | 0.00 | 86 | 1020.1 |
| 20260901052112 | 12 | 100 | 0.0 | 1.6 | 0.00 | 0.00 | 0.00 | 86 | 1020.1 |
| 20260901052008 | 12 | 100 | 0.0 | 3.2 | 0.00 | 0.00 | 0.00 | 86 | 1020.1 |
| 20260901051929 | 12 | 100 | 0.0 | 3.2 | 0.00 | 0.00 | 0.00 | 86 | 1020.1 |
| 20260901051908 | 12 | 100 | 1.6 | 3.2 | 0.00 | 0.00 | 0.00 | 86 | 1020.1 |
| 20260901051808 | 12 | 100 | 0.0 | 3.2 | 0.00 | 0.00 | 0.00 | 86 | 1020.1 |
| 20260901051708 | 12 | 100 | 0.0 | 3.2 | 0.00 | 0.00 | 0.00 | 86 | 1020.1 |
| 20260901051608 | 12 | 100 | 1.6 | 3.2 | 0.00 | 0.00 | 0.00 | 86 | 1020.1 |
| 20260901051508 | 12 | 100 | 1.6 | 3.2 | 0.00 | 0.00 | 0.00 | 86 | 1020.1 |
| 20260901051428 | 12 | 100 | 1.6 | 3.2 | 0.00 | 0.00 | 0.00 | 86 | 1020.1 |
| 20260901051409 | 12 | 100 | 1.6 | 3.2 | 0.00 | 0.00 | 0.00 | 86 | 1020.0 |
| 20260901051309 | 12 | 100 | 1.6 | 3.2 | 0.00 | 0.00 | 0.00 | 86 | 1020.1 |
| 20260901051208 | 12 | 100 | 1.6 | 3.2 | 0.00 | 0.00 | 0.00 | 86 | 1020.1 |
| 20260901051108 | 12 | 100 | 0.0 | 3.2 | 0.00 | 0.00 | 0.00 | 86 | 1020.0 |
| 20260901051009 | 12 | 100 | 0.0 | 3.2 | 0.00 | 0.00 | 0.00 | 86 | 1020.1 |
| 20260901050908 | 12 | 100 | 0.0 | 3.2 | 0.00 | 0.00 | 0.00 | 87 | 1020.1 |
| 20260901050808 | 12 | 100 | 0.0 | 3.2 | 0.00 | 0.00 | 0.00 | 87 | 1020.1 |
| 20260901050708 | 12 | 100 | 0.0 | 3.2 | 0.00 | 0.00 | 0.00 | 87 | 1020.1 |
| 20260901050608 | 12 | 100 | 0.0 | 3.2 | 0.00 | 0.00 | 0.00 | 87 | 1020.1 |
| 20260901050513 | 12 | 100 | 0.0 | 1.6 | 0.00 | 0.00 | 0.00 | 87 | 1020.1 |
| 20260901050408 | 12 | 100 | 0.0 | 1.6 | 0.00 | 0.00 | 0.00 | 87 | 1020.1 |
| 20260901050308 | 12 | 100 | 0.0 | 1.6 | 0.00 | 0.00 | 0.00 | 87 | 1020.1 |
| 20260901050209 | 12 | 100 | 0.0 | 1.6 | 0.00 | 0.00 | 0.00 | 87 | 1020.0 |
| 20260901050105 | 12 | 100 | 0.0 | 1.6 | 0.00 | 0.00 | 0.00 | 87 | 1020.1 |
| 20260901050004 | 12 | 100 | 0.0 | 3.2 | 0.00 | 0.00 | 0.00 | 87 | 1020.0 |
| 20260901045904 | 12 | 100 | 0.0 | 3.2 | 0.00 | 0.00 | 0.00 | 87 | 1020.0 |
| 20260901045805 | 12 | 100 | 0.0 | 3.2 | 0.00 | 0.00 | 0.00 | 87 | 1020.0 |
| 20260901045705 | 12 | 100 | 0.0 | 3.2 | 0.00 | 0.00 | 0.00 | 87 | 1020.0 |
| 20260901045605 | 12 | 100 | 0.0 | 3.2 | 0.00 | 0.00 | 0.00 | 87 | 1020.1 |
| 20260901045511 | 12 | 100 | 0.0 | 3.2 | 0.00 | 0.00 | 0.00 | 87 | 1020.1 |
| 20260901045404 | 12 | 100 | 0.0 | 3.2 | 0.00 | 0.00 | 0.00 | 87 | 1020.1 |
| 20260901045306 | 12 | 100 | 0.0 | 3.2 | 0.00 | 0.00 | 0.00 | 87 | 1020.0 |
| 20260901045201 | 12 | 100 | 0.0 | 3.2 | 0.00 | 0.00 | 0.00 | 87 | 1020.0 |
| 20260901045101 | 12 | 100 | 0.0 | 3.2 | 0.00 | 0.00 | 0.00 | 88 | 1020.0 |
| 20260901045006 | 12 | 100 | 0.0 | 3.2 | 0.00 | 0.00 | 0.00 | 87 | 1020.0 |
| 20260901044930 | 12 | 100 | 0.0 | 3.2 | 0.00 | 0.00 | 0.00 | 87 | 1020.0 |
| 20260901044901 | 12 | 100 | 0.0 | 1.6 | 0.00 | 0.00 | 0.00 | 87 | 1020.0 |
| 20260901044801 | 12 | 100 | 0.0 | 1.6 | 0.00 | 0.00 | 0.00 | 87 | 1020.0 |
| 20260901044701 | 12 | 100 | 0.0 | 1.6 | 0.00 | 0.00 | 0.00 | 87 | 1020.0 |
| 20260901044601 | 12 | 100 | 0.0 | 1.6 | 0.00 | 0.00 | 0.00 | 87 | 1020.0 |
| 20260901044506 | 12 | 100 | 0.0 | 1.6 | 0.00 | 0.00 | 0.00 | 87 | 1020.0 |
| 20260901044401 | 12 | 100 | 0.0 | 1.6 | 0.00 | 0.00 | 0.00 | 87 | 1020.0 |
| 20260901044301 | 12 | 100 | 0.0 | 1.6 | 0.00 | 0.00 | 0.00 | 86 | 1020.0 |
| 20260901044201 | 12 | 100 | 0.0 | 1.6 | 0.00 | 0.00 | 0.00 | 87 | 1020.0 |
| 20260901044101 | 12 | 100 | 0.0 | 0.0 | 0.00 | 0.00 | 0.00 | 86 | 1020.0 |
| 20260901044000 | 12 | 100 | 0.0 | 0.0 | 0.00 | 0.00 | 0.00 | 86 | 1020.0 |
| 20260901043901 | 12 | 100 | 0.0 | 0.0 | 0.00 | 0.00 | 0.00 | 86 | 1020.0 |
| 20260901043801 | 12 | 100 | 0.0 | 0.0 | 0.00 | 0.00 | 0.00 | 86 | 1020.0 |
| 20260901043700 | 12 | 100 | 0.0 | 0.0 | 0.00 | 0.00 | 0.00 | 86 | 1020.0 |
| 20260901043649 | 12 | 100 | 0.0 | 1.6 | 0.00 | 0.00 | 0.00 | 86 | 1020.0 |
| 20260901043644 | 12 | 100 | 0.0 | 0.0 | 0.00 | 0.00 | 0.00 | 86 | 1020.0 |
| 20260901043640 | 12 | 100 | 0.0 | 0.0 | 0.00 | 0.00 | 0.00 | 86 | 1020.0 |
| 20260901043401 | 12 | 100 | 0.0 | 1.6 | 0.00 | 0.00 | 0.00 | 86 | 1020.0 |
| 20260901043301 | 12 | 100 | 0.0 | 1.6 | 0.00 | 0.00 | 0.00 | 86 | 1020.0 |
| 20260901043201 | 12 | 100 | 0.0 | 1.6 | 0.00 | 0.00 | 0.00 | 86 | 1019.9 |
| 20260901043101 | 12 | 100 | 0.0 | 1.6 | 0.00 | 0.00 | 0.00 | 86 | 1019.9 |
| 20260901043001 | 12 | 100 | 0.0 | 1.6 | 0.00 | 0.00 | 0.00 | 86 | 1020.0 |
| 20260901042900 | 12 | 100 | 0.0 | 1.6 | 0.00 | 0.00 | 0.00 | 86 | 1019.9 |
| 20260901042759 | 12 | 100 | 0.0 | 1.6 | 0.00 | 0.00 | 0.00 | 86 | 1020.0 |
| 20260901042700 | 12 | 100 | 0.0 | 1.6 | 0.00 | 0.00 | 0.00 | 86 | 1020.0 |
| 20260901042558 | 12 | 100 | 0.0 | 1.6 | 0.00 | 0.00 | 0.00 | 86 | 1020.0 |
| 20260901042458 | 12 | 100 | 0.0 | 1.6 | 0.00 | 0.00 | 0.00 | 86 | 1020.0 |
| 20260901042423 | 12 | 100 | 0.0 | 1.6 | 0.00 | 0.00 | 0.00 | 86 | 1020.0 |
| 20260901042356 | 12 | 100 | 0.0 | 1.6 | 0.00 | 0.00 | 0.00 | 86 | 1019.9 |
| 20260901042256 | 12 | 100 | 0.0 | 1.6 | 0.00 | 0.00 | 0.00 | 86 | 1019.9 |
| 20260901042157 | 12 | 100 | 0.0 | 1.6 | 0.00 | 0.00 | 0.00 | 86 | 1019.9 |
| 20260901042057 | 12 | 100 | 0.0 | 1.6 | 0.00 | 0.00 | 0.00 | 86 | 1019.9 |
| 20260901041954 | 12 | 100 | 0.0 | 1.6 | 0.00 | 0.00 | 0.00 | 86 | 1020.0 |
| 20260901041923 | 12 | 100 | 0.0 | 1.6 | 0.00 | 0.00 | 0.00 | 86 | 1020.0 |
| 20260901041855 | 12 | 100 | 0.0 | 1.6 | 0.00 | 0.00 | 0.00 | 86 | 1020.0 |
| 20260901041755 | 12 | 100 | 0.0 | 1.6 | 0.00 | 0.00 | 0.00 | 86 | 1020.1 |
| 20260901041654 | 12 | 100 | 0.0 | 1.6 | 0.00 | 0.00 | 0.00 | 86 | 1020.1 |
| 20260901041552 | 12 | 100 | 0.0 | 1.6 | 0.00 | 0.00 | 0.00 | 85 | 1020.0 |
| 20260901041452 | 12 | 100 | 0.0 | 1.6 | 0.00 | 0.00 | 0.00 | 85 | 1020.0 |
| 20260901041422 | 12 | 100 | 0.0 | 1.6 | 0.00 | 0.00 | 0.00 | 85 | 1020.0 |
| 20260901041350 | 12 | 100 | 0.0 | 1.6 | 0.00 | 0.00 | 0.00 | 85 | 1020.0 |
| 20260901041250 | 12 | 100 | 0.0 | 1.6 | 0.00 | 0.00 | 0.00 | 85 | 1020.0 |
| 20260901041148 | 12 | 100 | 0.0 | 1.6 | 0.00 | 0.00 | 0.00 | 85 | 1020.0 |
| 20260901041046 | 12 | 100 | 0.0 | 3.2 | 0.00 | 0.00 | 0.00 | 85 | 1020.1 |
| 20260901040947 | 12 | 100 | 0.0 | 3.2 | 0.00 | 0.00 | 0.00 | 85 | 1020.0 |
| 20260901040915 | 12 | 100 | 0.0 | 3.2 | 0.00 | 0.00 | 0.00 | 85 | 1020.0 |
| 20260901040844 | 12 | 100 | 0.0 | 3.2 | 0.00 | 0.00 | 0.00 | 85 | 1020.0 |
| 20260901040745 | 12 | 100 | 0.0 | 3.2 | 0.00 | 0.00 | 0.00 | 85 | 1020.0 |
| 20260901040642 | 12 | 100 | 0.0 | 3.2 | 0.00 | 0.00 | 0.00 | 85 | 1020.0 |
| 20260901040540 | 12 | 100 | 0.0 | 3.2 | 0.00 | 0.00 | 0.00 | 85 | 1019.9 |
| 20260901040416 | 12 | 100 | 0.0 | 3.2 | 0.00 | 0.00 | 0.00 | 85 | 1020.0 |
| 20260901040340 | 12 | 100 | 0.0 | 3.2 | 0.00 | 0.00 | 0.00 | 85 | 1020.0 |
| 20260901040240 | 12 | 100 | 0.0 | 3.2 | 0.00 | 0.00 | 0.00 | 85 | 1019.9 |
| 20260901040140 | 12 | 100 | 0.0 | 3.2 | 0.00 | 0.00 | 0.00 | 85 | 1019.9 |
| 20260901040038 | 12 | 100 | 0.0 | 0.0 | 0.00 | 0.00 | 0.00 | 85 | 1019.9 |
| 20260901035915 | 12 | 100 | 0.0 | 0.0 | 0.00 | 0.00 | 0.00 | 85 | 1019.9 |
| 20260901035836 | 12 | 100 | 0.0 | 0.0 | 0.00 | 0.00 | 0.00 | 85 | 1019.9 |
| 20260901035736 | 12 | 100 | 0.0 | 0.0 | 0.00 | 0.00 | 0.00 | 85 | 1020.0 |
| 20260901035635 | 12 | 100 | 0.0 | 0.0 | 0.00 | 0.00 | 0.00 | 85 | 1020.0 |
| 20260901035533 | 12 | 100 | 0.0 | 0.0 | 0.00 | 0.00 | 0.00 | 85 | 1019.9 |
| 20260901035412 | 12 | 100 | 0.0 | 0.0 | 0.00 | 0.00 | 0.00 | 85 | 1020.0 |
| 20260901035329 | 12 | 100 | 0.0 | 0.0 | 0.00 | 0.00 | 0.00 | 85 | 1020.0 |
| 20260901035229 | 12 | 100 | 0.0 | 0.0 | 0.00 | 0.00 | 0.00 | 85 | 1020.0 |
| 20260901035129 | 12 | 100 | 0.0 | 0.0 | 0.00 | 0.00 | 0.00 | 85 | 1020.0 |
| 20260901035029 | 12 | 100 | 0.0 | 0.0 | 0.00 | 0.00 | 0.00 | 85 | 1020.0 |
| 20260901034929 | 12 | 100 | 0.0 | 0.0 | 0.00 | 0.00 | 0.00 | 84 | 1020.0 |
| 20260901034913 | 12 | 100 | 0.0 | 0.0 | 0.00 | 0.00 | 0.00 | 85 | 1020.0 |
| 20260901034829 | 12 | 100 | 0.0 | 0.0 | 0.00 | 0.00 | 0.00 | 84 | 1020.0 |
| 20260901034729 | 12 | 100 | 0.0 | 0.0 | 0.00 | 0.00 | 0.00 | 84 | 1020.0 |
| 20260901034629 | 12 | 100 | 0.0 | 1.6 | 0.00 | 0.00 | 0.00 | 84 | 1020.0 |
| 20260901034525 | 12 | 100 | 0.0 | 1.6 | 0.00 | 0.00 | 0.00 | 84 | 1020.0 |
| 20260901034410 | 12 | 100 | 0.0 | 1.6 | 0.00 | 0.00 | 0.00 | 84 | 1020.0 |
| 20260901034320 | 12 | 100 | 0.0 | 1.6 | 0.00 | 0.00 | 0.00 | 84 | 1020.0 |
| 20260901034220 | 12 | 100 | 0.0 | 1.6 | 0.00 | 0.00 | 0.00 | 84 | 1020.0 |
| 20260901034120 | 12 | 100 | 0.0 | 1.6 | 0.00 | 0.00 | 0.00 | 84 | 1020.0 |
| 20260901034020 | 12 | 100 | 0.0 | 1.6 | 0.00 | 0.00 | 0.00 | 84 | 1020.0 |
| 20260901033908 | 12 | 100 | 0.0 | 1.6 | 0.00 | 0.00 | 0.00 | 84 | 1019.9 |
| 20260901033815 | 12 | 100 | 0.0 | 1.6 | 0.00 | 0.00 | 0.00 | 84 | 1019.9 |
| 20260901033714 | 12 | 100 | 0.0 | 1.6 | 0.00 | 0.00 | 0.00 | 84 | 1019.9 |
| 20260901033614 | 12 | 100 | 0.0 | 1.6 | 0.00 | 0.00 | 0.00 | 83 | 1019.9 |
| 20260901033513 | 12 | 100 | 0.0 | 3.2 | 0.00 | 0.00 | 0.00 | 83 | 1019.9 |
| 20260901033406 | 12 | 100 | 0.0 | 3.2 | 0.00 | 0.00 | 0.00 | 83 | 1019.9 |
| 20260901033312 | 12 | 100 | 0.0 | 3.2 | 0.00 | 0.00 | 0.00 | 83 | 1019.9 |
| 20260901033212 | 12 | 100 | 0.0 | 3.2 | 0.00 | 0.00 | 0.00 | 83 | 1019.9 |
| 20260901033111 | 12 | 100 | 1.6 | 3.2 | 0.00 | 0.00 | 0.00 | 83 | 1019.9 |
| 20260901033007 | 12 | 100 | 1.6 | 3.2 | 0.00 | 0.00 | 0.00 | 83 | 1020.0 |
| 20260901032905 | 12 | 100 | 1.6 | 3.2 | 0.00 | 0.00 | 0.00 | 83 | 1020.0 |
| 20260901032806 | 12 | 100 | 1.6 | 3.2 | 0.00 | 0.00 | 0.00 | 83 | 1020.0 |
| 20260901032706 | 12 | 100 | 1.6 | 3.2 | 0.00 | 0.00 | 0.00 | 83 | 1020.0 |
| 20260901032625 | 12 | 100 | 1.6 | 3.2 | 0.00 | 0.00 | 0.00 | 83 | 1020.0 |
| 20260901032620 | 12 | 100 | 1.6 | 3.2 | 0.00 | 0.00 | 0.00 | 83 | 1020.0 |
| 20260901032613 | 12 | 100 | 1.6 | 3.2 | 0.00 | 0.00 | 0.00 | 83 | 1020.0 |
| 20260901032302 | 12 | 100 | 1.6 | 3.2 | 0.00 | 0.00 | 0.00 | 83 | 1020.0 |
| 20260901032201 | 12 | 100 | 1.6 | 3.2 | 0.00 | 0.00 | 0.00 | 83 | 1020.0 |
| 20260901032101 | 12 | 100 | 1.6 | 3.2 | 0.00 | 0.00 | 0.00 | 82 | 1020.0 |
| 20260901032001 | 12 | 100 | 1.6 | 4.8 | 0.00 | 0.00 | 0.00 | 82 | 1020.0 |
| 20260901031901 | 12 | 100 | 1.6 | 4.8 | 0.00 | 0.00 | 0.00 | 82 | 1020.0 |
| 20260901031801 | 12 | 100 | 1.6 | 4.8 | 0.00 | 0.00 | 0.00 | 82 | 1020.0 |
| 20260901031701 | 12 | 100 | 1.6 | 4.8 | 0.00 | 0.00 | 0.00 | 82 | 1020.0 |
| 20260901031601 | 12 | 100 | 1.6 | 4.8 | 0.00 | 0.00 | 0.00 | 82 | 1020.0 |
| 20260901031501 | 12 | 100 | 1.6 | 4.8 | 0.00 | 0.00 | 0.00 | 82 | 1020.0 |
| 20260901031400 | 12 | 100 | 1.6 | 4.8 | 0.00 | 0.00 | 0.00 | 82 | 1020.0 |
| 20260901031301 | 12 | 100 | 1.6 | 4.8 | 0.00 | 0.00 | 0.00 | 82 | 1020.0 |
| 20260901031201 | 12 | 100 | 1.6 | 4.8 | 0.00 | 0.00 | 0.00 | 82 | 1020.0 |
| 20260901031101 | 12 | 100 | 1.6 | 4.8 | 0.00 | 0.00 | 0.00 | 82 | 1020.0 |
| 20260901031001 | 12 | 95 | 1.6 | 4.8 | 0.00 | 0.00 | 0.00 | 82 | 1020.0 |
| 20260901030901 | 12 | 96 | 1.6 | 3.2 | 0.00 | 0.00 | 0.00 | 82 | 1020.0 |
| 20260901030801 | 12 | 96 | 1.6 | 3.2 | 0.00 | 0.00 | 0.00 | 81 | 1020.0 |
| 20260901030700 | 12 | 82 | 1.6 | 3.2 | 0.00 | 0.00 | 0.00 | 81 | 1020.0 |
| 20260901030600 | 12 | 82 | 1.6 | 3.2 | 0.00 | 0.00 | 0.00 | 81 | 1020.0 |
| 20260901030500 | 12 | 80 | 1.6 | 3.2 | 0.00 | 0.00 | 0.00 | 81 | 1020.0 |
| 20260901030400 | 12 | 80 | 1.6 | 3.2 | 0.00 | 0.00 | 0.00 | 81 | 1020.0 |
| 20260901030300 | 12 | 71 | 1.6 | 3.2 | 0.00 | 0.00 | 0.00 | 81 | 1020.0 |
| 20260901030200 | 12 | 71 | 1.6 | 3.2 | 0.00 | 0.00 | 0.00 | 81 | 1020.0 |
| 20260901030001 | 12 | 67 | 1.6 | 3.2 | 0.00 | 0.00 | 0.00 | 81 | 1020.0 |
| 20260901025901 | 13 | 67 | 1.6 | 3.2 | 0.00 | 0.00 | 0.00 | 81 | 1020.1 |
| 20260901025801 | 13 | 67 | 1.6 | 3.2 | 0.00 | 0.00 | 0.00 | 81 | 1020.1 |
| 20260901025701 | 13 | 67 | 1.6 | 3.2 | 0.00 | 0.00 | 0.00 | 81 | 1020.1 |
| 20260901025601 | 13 | 67 | 1.6 | 3.2 | 0.00 | 0.00 | 0.00 | 81 | 1020.1 |
| 20260901025500 | 13 | 67 | 1.6 | 3.2 | 0.00 | 0.00 | 0.00 | 81 | 1020.1 |
| 20260901025401 | 13 | 67 | 1.6 | 3.2 | 0.00 | 0.00 | 0.00 | 81 | 1020.0 |
| 20260901025301 | 13 | 67 | 1.6 | 3.2 | 0.00 | 0.00 | 0.00 | 81 | 1020.1 |
| 20260901025201 | 13 | 67 | 0.0 | 3.2 | 0.00 | 0.00 | 0.00 | 81 | 1020.1 |
| 20260901025101 | 13 | 67 | 0.0 | 3.2 | 0.00 | 0.00 | 0.00 | 81 | 1020.1 |
| 20260901025001 | 13 | 67 | 0.0 | 3.2 | 0.00 | 0.00 | 0.00 | 81 | 1020.1 |
| 20260901024901 | 13 | 67 | 0.0 | 3.2 | 0.00 | 0.00 | 0.00 | 81 | 1020.1 |
| 20260901024801 | 13 | 64 | 1.6 | 3.2 | 0.00 | 0.00 | 0.00 | 80 | 1020.0 |
| 20260901024701 | 13 | 64 | 1.6 | 3.2 | 0.00 | 0.03 | 0.00 | 80 | 1020.1 |
| 20260901024601 | 13 | 64 | 1.6 | 3.2 | 0.00 | 0.03 | 0.00 | 80 | 1020.0 |
| 20260901024501 | 13 | 64 | 0.0 | 3.2 | 0.00 | 0.03 | 0.00 | 80 | 1020.1 |
| 20260901024401 | 13 | 64 | 0.0 | 3.2 | 0.00 | 0.03 | 0.00 | 80 | 1020.1 |
| 20260901024301 | 13 | 64 | 0.0 | 3.2 | 0.00 | 0.03 | 0.00 | 80 | 1020.1 |
| 20260901024201 | 13 | 64 | 0.0 | 3.2 | 0.00 | 0.03 | 0.00 | 80 | 1020.1 |
| 20260901024100 | 13 | 64 | 1.6 | 3.2 | 0.00 | 0.03 | 0.00 | 80 | 1020.1 |
| 20260901024001 | 13 | 64 | 1.6 | 4.8 | 0.00 | 0.05 | 0.00 | 80 | 1020.0 |
| 20260901023905 | 13 | 64 | 1.6 | 4.8 | 0.00 | 0.05 | 0.00 | 80 | 1020.1 |
| 20260901023801 | 13 | 64 | 1.6 | 4.8 | 0.00 | 0.05 | 0.00 | 79 | 1020.1 |
| 20260901023701 | 13 | 64 | 1.6 | 4.8 | 0.00 | 0.05 | 0.00 | 79 | 1020.1 |
| 20260901023601 | 13 | 64 | 1.6 | 4.8 | 0.00 | 0.05 | 0.00 | 79 | 1020.1 |
| 20260901023500 | 13 | 64 | 1.6 | 4.8 | 0.00 | 0.05 | 0.00 | 79 | 1020.0 |
| 20260901023404 | 13 | 64 | 1.6 | 6.4 | 0.00 | 0.05 | 0.00 | 79 | 1020.1 |
| 20260901023300 | 13 | 64 | 1.6 | 6.4 | 0.00 | 0.08 | 0.00 | 79 | 1020.1 |
| 20260901023200 | 13 | 64 | 1.6 | 6.4 | 0.00 | 0.08 | 0.00 | 79 | 1020.1 |
| 20260901023100 | 13 | 64 | 1.6 | 6.4 | 0.00 | 0.08 | 0.00 | 79 | 1020.0 |
| 20260901023000 | 13 | 81 | 1.6 | 6.4 | 0.00 | 0.08 | 0.00 | 79 | 1020.1 |
| 20260901022904 | 13 | 81 | 1.6 | 6.4 | 0.00 | 0.08 | 0.00 | 79 | 1020.1 |
| 20260901022900 | 13 | 81 | 1.6 | 6.4 | 0.00 | 0.08 | 0.00 | 79 | 1020.1 |
| 20260901022758 | 13 | 81 | 1.6 | 6.4 | 0.00 | 0.08 | 0.00 | 78 | 1020.1 |
| 20260901022656 | 13 | 81 | 1.6 | 6.4 | 0.00 | 0.10 | 0.00 | 78 | 1020.0 |
| 20260901022556 | 13 | 82 | 1.6 | 6.4 | 0.00 | 0.10 | 0.00 | 78 | 1020.0 |
| 20260901022454 | 13 | 82 | 1.6 | 6.4 | 0.00 | 0.10 | 0.00 | 78 | 1020.0 |
| 20260901022402 | 13 | 84 | 1.6 | 6.4 | 0.00 | 0.13 | 0.00 | 78 | 1020.1 |
| 20260901022353 | 13 | 88 | 1.6 | 6.4 | 0.00 | 0.13 | 0.00 | 78 | 1020.1 |
| 20260901022252 | 13 | 175 | 1.6 | 4.8 | 0.00 | 0.15 | 0.00 | 78 | 1020.0 |
| 20260901022150 | 13 | 175 | 1.6 | 4.8 | 0.00 | 0.18 | 0.00 | 78 | 1020.1 |
| 20260901022050 | 13 | 175 | 1.6 | 4.8 | 0.00 | 0.20 | 0.00 | 78 | 1020.0 |
| 20260901021948 | 13 | 175 | 0.0 | 4.8 | 0.00 | 0.23 | 0.00 | 78 | 1020.1 |
| 20260901021901 | 13 | 218 | 0.0 | 4.8 | 0.00 | 0.23 | 0.00 | 78 | 1020.0 |
| 20260901021846 | 13 | 218 | 0.0 | 4.8 | 0.00 | 0.23 | 0.00 | 78 | 1020.0 |
| 20260901021746 | 13 | 225 | 0.0 | 4.8 | 0.00 | 0.25 | 0.00 | 77 | 1020.1 |
| 20260901021646 | 13 | 243 | 0.0 | 4.8 | 0.00 | 0.28 | 0.00 | 77 | 1020.1 |
| 20260901021546 | 13 | 244 | 0.0 | 3.2 | 0.00 | 0.30 | 0.00 | 77 | 1020.0 |
| 20260901021446 | 14 | 244 | 0.0 | 3.2 | 0.00 | 0.30 | 0.00 | 77 | 1020.0 |
| 20260901021401 | 14 | 244 | 0.0 | 3.2 | 0.00 | 0.30 | 0.00 | 77 | 1020.1 |
| 20260901021344 | 14 | 244 | 0.0 | 3.2 | 0.00 | 0.30 | 0.00 | 77 | 1020.1 |
| 20260901021244 | 14 | 244 | 0.0 | 3.2 | 0.00 | 0.30 | 0.00 | 77 | 1020.0 |
| 20260901021142 | 14 | 244 | 1.6 | 3.2 | 0.00 | 0.30 | 0.00 | 76 | 1020.1 |
| 20260901021042 | 14 | 244 | 1.6 | 3.2 | 0.00 | 0.30 | 0.00 | 76 | 1020.1 |
| 20260901020940 | 14 | 244 | 1.6 | 3.2 | 0.00 | 0.30 | 0.00 | 76 | 1020.0 |
| 20260901020900 | 14 | 244 | 1.6 | 3.2 | 0.00 | 0.30 | 0.00 | 76 | 1020.0 |
| 20260901020840 | 14 | 244 | 1.6 | 3.2 | 0.00 | 0.30 | 0.00 | 76 | 1020.0 |
| 20260901020738 | 14 | 244 | 1.6 | 3.2 | 0.00 | 0.30 | 0.00 | 76 | 1020.0 |
| 20260901020636 | 14 | 244 | 1.6 | 3.2 | 0.00 | 0.30 | 0.00 | 76 | 1020.0 |
| 20260901020536 | 14 | 244 | 1.6 | 3.2 | 0.00 | 0.30 | 0.00 | 76 | 1020.0 |
| 20260901020434 | 14 | 244 | 1.6 | 3.2 | 0.00 | 0.30 | 0.00 | 76 | 1020.0 |
| 20260901020400 | 14 | 244 | 1.6 | 3.2 | 0.00 | 0.30 | 0.00 | 76 | 1020.0 |
| 20260901020334 | 14 | 244 | 1.6 | 3.2 | 0.00 | 0.30 | 0.00 | 76 | 1020.0 |
| 20260901020234 | 14 | 244 | 1.6 | 3.2 | 0.00 | 0.33 | 0.00 | 76 | 1020.0 |
| 20260901020134 | 14 | 244 | 1.6 | 4.8 | 0.00 | 0.33 | 0.00 | 76 | 1020.0 |
| 20260901020034 | 14 | 244 | 1.6 | 4.8 | 0.00 | 0.33 | 0.00 | 76 | 1020.0 |
| 20260901015932 | 14 | 244 | 1.6 | 4.8 | 0.00 | 0.33 | 0.00 | 76 | 1020.0 |
| 20260901015901 | 14 | 244 | 1.6 | 4.8 | 0.00 | 0.33 | 0.00 | 76 | 1020.0 |
| 20260901015832 | 14 | 244 | 1.6 | 4.8 | 0.00 | 0.33 | 0.00 | 76 | 1020.0 |
| 20260901015730 | 14 | 244 | 1.6 | 4.8 | 0.00 | 0.33 | 0.00 | 76 | 1020.0 |
| 20260901015629 | 14 | 244 | 1.6 | 4.8 | 0.00 | 0.33 | 0.00 | 76 | 1020.0 |
| 20260901015624 | 14 | 244 | 1.6 | 4.8 | 0.00 | 0.36 | 0.00 | 76 | 1020.0 |
| 20260901015616 | 14 | 244 | 1.6 | 4.8 | 0.00 | 0.33 | 0.00 | 76 | 1019.9 |
| 20260901015612 | 14 | 244 | 1.6 | 4.8 | 0.00 | 0.33 | 0.00 | 76 | 1020.0 |
| 20260901015329 | 14 | 244 | 1.6 | 4.8 | 0.00 | 0.36 | 0.00 | 76 | 1020.0 |
| 20260901015229 | 14 | 244 | 3.2 | 4.8 | 0.00 | 0.36 | 0.00 | 76 | 1020.0 |
| 20260901015129 | 14 | 244 | 3.2 | 4.8 | 0.00 | 0.36 | 0.00 | 76 | 1020.0 |
| 20260901015029 | 14 | 244 | 3.2 | 4.8 | 0.00 | 0.36 | 0.00 | 76 | 1020.0 |
| 20260901014929 | 14 | 244 | 3.2 | 4.8 | 0.00 | 0.36 | 0.00 | 76 | 1019.9 |
| 20260901014901 | 14 | 244 | 3.2 | 4.8 | 0.00 | 0.36 | 0.00 | 76 | 1020.0 |
| 20260901014829 | 14 | 244 | 3.2 | 4.8 | 0.00 | 0.36 | 0.00 | 76 | 1020.0 |
| 20260901014729 | 14 | 244 | 3.2 | 4.8 | 0.00 | 0.36 | 0.00 | 76 | 1020.0 |
| 20260901014629 | 14 | 232 | 3.2 | 4.8 | 0.00 | 0.36 | 0.00 | 76 | 1020.0 |
| 20260901014529 | 14 | 232 | 1.6 | 4.8 | 0.00 | 0.36 | 0.00 | 76 | 1020.0 |
| 20260901014429 | 14 | 229 | 1.6 | 4.8 | 0.00 | 0.36 | 0.00 | 76 | 1020.0 |
| 20260901014401 | 14 | 229 | 3.2 | 4.8 | 0.00 | 0.36 | 0.00 | 76 | 1020.0 |
| 20260901014329 | 14 | 229 | 3.2 | 4.8 | 0.00 | 0.36 | 0.00 | 76 | 1020.0 |
| 20260901014229 | 14 | 229 | 1.6 | 4.8 | 0.00 | 0.36 | 0.00 | 76 | 1020.0 |
| 20260901014129 | 14 | 229 | 1.6 | 4.8 | 0.00 | 0.36 | 0.00 | 76 | 1020.0 |
| 20260901014028 | 14 | 229 | 1.6 | 4.8 | 0.00 | 0.36 | 0.00 | 76 | 1019.9 |
| 20260901013901 | 14 | 229 | 1.6 | 4.8 | 0.00 | 0.36 | 0.00 | 76 | 1020.0 |
| 20260901013855 | 14 | 229 | 0.0 | 4.8 | 0.00 | 0.36 | 0.00 | 77 | 1020.0 |
| 20260901013848 | 14 | 229 | 1.6 | 4.8 | 0.00 | 0.36 | 0.00 | 76 | 1020.0 |
| 20260901013844 | 14 | 229 | 1.6 | 4.8 | 0.00 | 0.36 | 0.00 | 76 | 1020.0 |
| 20260901013840 | 14 | 229 | 1.6 | 4.8 | 0.00 | 0.36 | 0.00 | 76 | 1020.0 |
| 20260901013617 | 14 | 229 | 1.6 | 4.8 | 0.00 | 0.36 | 0.00 | 76 | 1020.0 |
| 20260901013612 | 14 | 229 | 1.6 | 4.8 | 0.00 | 0.36 | 0.00 | 77 | 1020.0 |
| 20260901013326 | 14 | 229 | 0.0 | 4.8 | 0.00 | 0.36 | 0.00 | 77 | 1020.0 |
| 20260901013224 | 14 | 229 | 0.0 | 3.2 | 0.00 | 0.36 | 0.00 | 76 | 1020.0 |
| 20260901013124 | 14 | 229 | 0.0 | 3.2 | 0.00 | 0.36 | 0.00 | 76 | 1020.0 |
| 20260901013023 | 14 | 229 | 0.0 | 3.2 | 0.00 | 0.36 | 0.00 | 76 | 1020.0 |
| 20260901012901 | 14 | 229 | 0.0 | 3.2 | 0.00 | 0.36 | 0.00 | 76 | 1020.0 |
| 20260901012820 | 14 | 229 | 0.0 | 3.2 | 0.00 | 0.36 | 0.00 | 77 | 1020.0 |
| 20260901012720 | 14 | 229 | 0.0 | 1.6 | 0.00 | 0.36 | 0.00 | 76 | 1020.0 |
| 20260901012620 | 14 | 229 | 1.6 | 3.2 | 0.00 | 0.36 | 0.00 | 76 | 1020.0 |
| 20260901012520 | 14 | 229 | 1.6 | 3.2 | 0.00 | 0.36 | 0.00 | 76 | 1019.9 |
| 20260901012420 | 14 | 229 | 1.6 | 3.2 | 0.00 | 0.36 | 0.00 | 76 | 1019.9 |
| 20260901012401 | 14 | 229 | 1.6 | 3.2 | 0.00 | 0.36 | 0.00 | 77 | 1019.9 |
| 20260901012320 | 14 | 229 | 1.6 | 3.2 | 0.00 | 0.36 | 0.00 | 77 | 1019.9 |
| 20260901012220 | 14 | 229 | 0.0 | 3.2 | 0.00 | 0.36 | 0.00 | 77 | 1019.9 |
| 20260901012119 | 14 | 229 | 0.0 | 3.2 | 0.00 | 0.36 | 0.00 | 77 | 1020.0 |
| 20260901012020 | 14 | 229 | 0.0 | 3.2 | 0.00 | 0.36 | 0.00 | 77 | 1019.9 |
| 20260901011920 | 14 | 229 | 0.0 | 3.2 | 0.00 | 0.36 | 0.00 | 77 | 1019.9 |
| 20260901011901 | 14 | 229 | 0.0 | 3.2 | 0.00 | 0.36 | 0.00 | 76 | 1019.9 |
| 20260901011820 | 14 | 229 | 0.0 | 3.2 | 0.00 | 0.36 | 0.00 | 76 | 1019.9 |
| 20260901011718 | 13 | 229 | 0.0 | 3.2 | 0.00 | 0.36 | 0.00 | 76 | 1019.9 |
| 20260901011618 | 13 | 229 | 0.0 | 3.2 | 0.00 | 0.36 | 0.00 | 77 | 1019.9 |
| 20260901011516 | 13 | 229 | 0.0 | 3.2 | 0.00 | 0.36 | 0.00 | 77 | 1019.9 |
| 20260901011416 | 13 | 229 | 0.0 | 3.2 | 0.00 | 0.36 | 0.00 | 77 | 1019.9 |
| 20260901011400 | 13 | 229 | 0.0 | 3.2 | 0.00 | 0.36 | 0.00 | 78 | 1019.9 |
| 20260901011314 | 13 | 229 | 1.6 | 3.2 | 0.00 | 0.36 | 0.00 | 78 | 1019.9 |
| 20260901011212 | 13 | 229 | 1.6 | 4.8 | 0.00 | 0.36 | 0.00 | 77 | 1019.9 |
| 20260901011111 | 13 | 229 | 1.6 | 4.8 | 0.00 | 0.36 | 0.00 | 77 | 1019.9 |
| 20260901011009 | 13 | 229 | 1.6 | 4.8 | 0.00 | 0.36 | 0.00 | 77 | 1019.9 |
| 20260901010901 | 13 | 229 | 1.6 | 4.8 | 0.00 | 0.36 | 0.00 | 77 | 1019.9 |
| 20260901010808 | 13 | 229 | 1.6 | 4.8 | 0.00 | 0.36 | 0.00 | 77 | 1019.9 |
| 20260901010706 | 13 | 229 | 1.6 | 4.8 | 0.00 | 0.36 | 0.00 | 77 | 1019.9 |
| 20260901010606 | 13 | 229 | 1.6 | 4.8 | 0.00 | 0.36 | 0.00 | 78 | 1019.9 |
| 20260901010504 | 13 | 229 | 1.6 | 4.8 | 0.00 | 0.36 | 0.00 | 78 | 1019.9 |
| 20260901010401 | 13 | 229 | 1.6 | 4.8 | 0.00 | 0.36 | 0.00 | 78 | 1019.9 |
| 20260901010303 | 13 | 229 | 0.0 | 4.8 | 0.00 | 0.36 | 0.00 | 79 | 1019.9 |
| 20260901010204 | 13 | 229 | 1.6 | 3.2 | 0.00 | 0.36 | 0.00 | 79 | 1019.8 |
| 20260901010104 | 13 | 229 | 1.6 | 4.8 | 0.00 | 0.36 | 0.00 | 79 | 1019.8 |
| 20260901010002 | 13 | 229 | 1.6 | 4.8 | 0.00 | 0.36 | 0.00 | 78 | 1019.8 |
| 20260901005901 | 13 | 229 | 1.6 | 4.8 | 0.00 | 0.36 | 0.00 | 77 | 1019.8 |
| 20260901005801 | 13 | 229 | 1.6 | 4.8 | 0.00 | 0.36 | 0.00 | 77 | 1019.8 |
| 20260901005701 | 13 | 229 | 1.6 | 4.8 | 0.00 | 0.36 | 0.00 | 77 | 1019.8 |
| 20260901005602 | 13 | 229 | 1.6 | 4.8 | 0.00 | 0.36 | 0.00 | 78 | 1019.8 |
| 20260901005502 | 13 | 229 | 1.6 | 4.8 | 0.00 | 0.36 | 0.00 | 79 | 1019.8 |
| 20260901005401 | 13 | 229 | 1.6 | 4.8 | 0.00 | 0.36 | 0.00 | 79 | 1019.8 |
| 20260901005301 | 13 | 229 | 1.6 | 4.8 | 0.00 | 0.36 | 0.00 | 79 | 1019.8 |
| 20260901005201 | 13 | 229 | 1.6 | 4.8 | 0.00 | 0.36 | 0.00 | 80 | 1019.8 |
| 20260901005101 | 13 | 143 | 1.6 | 3.2 | 0.00 | 0.36 | 0.00 | 80 | 1019.8 |
| 20260901005001 | 13 | 143 | 1.6 | 3.2 | 0.00 | 0.36 | 0.00 | 81 | 1019.8 |
| 20260901004902 | 13 | 143 | 0.0 | 3.2 | 0.00 | 0.36 | 0.00 | 81 | 1019.8 |
| 20260901004800 | 13 | 143 | 0.0 | 3.2 | 0.00 | 0.36 | 0.00 | 81 | 1019.8 |
| 20260901004701 | 13 | 143 | 0.0 | 3.2 | 0.00 | 0.36 | 0.00 | 81 | 1019.8 |
| 20260901004601 | 13 | 143 | 0.0 | 3.2 | 0.00 | 0.36 | 0.00 | 80 | 1019.8 |
| 20260901004501 | 13 | 143 | 0.0 | 3.2 | 0.00 | 0.36 | 0.00 | 81 | 1019.7 |
| 20260901004401 | 13 | 143 | 0.0 | 3.2 | 0.00 | 0.36 | 0.00 | 81 | 1019.8 |
| 20260901004301 | 13 | 143 | 0.0 | 1.6 | 0.00 | 0.36 | 0.00 | 81 | 1019.7 |
| 20260901004201 | 13 | 143 | 0.0 | 0.0 | 0.00 | 0.36 | 0.00 | 81 | 1019.7 |
| 20260901004101 | 13 | 143 | 0.0 | 0.0 | 0.00 | 0.36 | 0.00 | 81 | 1019.7 |
| 20260901004001 | 13 | 143 | 0.0 | 0.0 | 0.00 | 0.36 | 0.00 | 81 | 1019.8 |
| 20260901003901 | 13 | 143 | 0.0 | 0.0 | 0.00 | 0.36 | 0.00 | 81 | 1019.7 |
| 20260901003801 | 13 | 143 | 0.0 | 0.0 | 0.00 | 0.36 | 0.00 | 80 | 1019.8 |
| 20260901003701 | 13 | 143 | 0.0 | 0.0 | 0.00 | 0.36 | 0.00 | 80 | 1019.7 |
| 20260901003620 | 13 | 143 | 0.0 | 0.0 | 0.00 | 0.36 | 0.00 | 80 | 1019.7 |
| 20260901003616 | 13 | 143 | 0.0 | 0.0 | 0.00 | 0.36 | 0.00 | 81 | 1019.8 |
| 20260901003612 | 13 | 143 | 0.0 | 0.0 | 0.00 | 0.36 | 0.00 | 81 | 1019.7 |
| 20260901003300 | 13 | 143 | 0.0 | 0.0 | 0.00 | 0.36 | 0.00 | 81 | 1019.7 |
| 20260901003200 | 13 | 143 | 0.0 | 0.0 | 0.00 | 0.36 | 0.00 | 81 | 1019.7 |
| 20260901003101 | 13 | 143 | 0.0 | 0.0 | 0.00 | 0.36 | 0.00 | 81 | 1019.7 |
| 20260901003001 | 13 | 143 | 0.0 | 0.0 | 0.00 | 0.36 | 0.00 | 81 | 1019.7 |
| 20260901002901 | 13 | 143 | 0.0 | 0.0 | 0.00 | 0.36 | 0.00 | 81 | 1019.7 |
| 20260901002801 | 13 | 143 | 0.0 | 0.0 | 0.00 | 0.36 | 0.00 | 81 | 1019.8 |
| 20260901002702 | 13 | 143 | 0.0 | 0.0 | 0.00 | 0.36 | 0.00 | 81 | 1019.7 |
| 20260901002620 | 13 | 143 | 0.0 | 0.0 | 0.00 | 0.36 | 0.00 | 80 | 1019.7 |
| 20260901002616 | 13 | 143 | 0.0 | 0.0 | 0.00 | 0.36 | 0.00 | 80 | 1019.7 |
| 20260901002612 | 13 | 143 | 0.0 | 0.0 | 0.00 | 0.36 | 0.00 | 81 | 1019.7 |
| 20260901002306 | 13 | 143 | 0.0 | 0.0 | 0.00 | 0.36 | 0.00 | 81 | 1019.7 |
| 20260901002201 | 13 | 143 | 0.0 | 0.0 | 0.00 | 0.36 | 0.00 | 81 | 1019.7 |
| 20260901002101 | 13 | 143 | 0.0 | 0.0 | 0.00 | 0.36 | 0.00 | 81 | 1019.7 |
| 20260901002001 | 13 | 143 | 0.0 | 0.0 | 0.00 | 0.36 | 0.00 | 81 | 1019.7 |
| 20260901001901 | 13 | 143 | 0.0 | 0.0 | 0.00 | 0.36 | 0.00 | 81 | 1019.7 |
| 20260901001804 | 13 | 143 | 0.0 | 0.0 | 0.00 | 0.36 | 0.00 | 80 | 1019.7 |
| 20260901001701 | 13 | 143 | 0.0 | 0.0 | 0.00 | 0.36 | 0.00 | 80 | 1019.7 |
| 20260901001600 | 13 | 143 | 0.0 | 0.0 | 0.00 | 0.36 | 0.00 | 81 | 1019.7 |
| 20260901001500 | 13 | 143 | 0.0 | 0.0 | 0.00 | 0.36 | 0.00 | 80 | 1019.7 |
| 20260901001401 | 13 | 143 | 0.0 | 0.0 | 0.00 | 0.36 | 0.00 | 80 | 1019.7 |
| 20260901001301 | 13 | 143 | 0.0 | 0.0 | 0.00 | 0.36 | 0.00 | 80 | 1019.7 |
| 20260901001200 | 13 | 143 | 0.0 | 0.0 | 0.00 | 0.36 | 0.00 | 80 | 1019.7 |
| 20260901001121 | 13 | 143 | 0.0 | 0.0 | 0.00 | 0.36 | 0.00 | 80 | 1019.7 |
| 20260901001117 | 13 | 143 | 0.0 | 0.0 | 0.00 | 0.36 | 0.00 | 80 | 1019.7 |
| 20260901001112 | 13 | 143 | 0.0 | 0.0 | 0.00 | 0.36 | 0.00 | 80 | 1019.7 |
| 20260901000801 | 13 | 143 | 0.0 | 0.0 | 0.00 | 0.36 | 0.00 | 80 | 1019.7 |
| 20260901000700 | 13 | 143 | 0.0 | 0.0 | 0.00 | 0.36 | 0.00 | 80 | 1019.7 |
| 20260901000558 | 13 | 143 | 0.0 | 0.0 | 0.00 | 0.36 | 0.00 | 80 | 1019.7 |
| 20260901000458 | 13 | 143 | 0.0 | 0.0 | 0.00 | 0.36 | 0.00 | 80 | 1019.7 |
| 20260901000402 | 13 | 143 | 0.0 | 0.0 | 0.00 | 0.36 | 0.00 | 80 | 1019.7 |
| 20260901000358 | 13 | 143 | 0.0 | 0.0 | 0.00 | 0.36 | 0.00 | 80 | 1019.7 |
| 20260901000258 | 13 | 143 | 0.0 | 0.0 | 0.00 | 0.36 | 0.00 | 80 | 1019.7 |
| 20260901000157 | 13 | 143 | 0.0 | 0.0 | 0.00 | 0.36 | 0.00 | 80 | 1019.7 |
| 20260901000057 | 13 | 143 | 0.0 | 0.0 | 0.00 | 0.36 | 0.00 | 80 | 1019.7 |
| 20260831235958 | 13 | 143 | 0.0 | 0.0 | 0.00 | 0.36 | 0.00 | 80 | 1019.7 |
| 20260831235901 | 13 | 143 | 0.0 | 0.0 | 0.00 | 0.36 | 0.00 | 80 | 1019.7 |
| 20260831235856 | 13 | 143 | 0.0 | 0.0 | 0.00 | 0.36 | 0.00 | 80 | 1019.7 |
| 20260831235756 | 13 | 143 | 0.0 | 1.6 | 0.00 | 0.36 | 0.00 | 80 | 1019.7 |
| 20260831235653 | 13 | 143 | 0.0 | 1.6 | 0.00 | 0.36 | 0.00 | 80 | 1019.7 |
| 20260831235618 | 13 | 143 | 0.0 | 1.6 | 0.00 | 0.36 | 0.00 | 79 | 1019.5 |
| 20260831235613 | 13 | 143 | 0.0 | 1.6 | 0.00 | 0.36 | 0.00 | 80 | 1019.7 |
| 20260831235605 | 13 | 143 | 0.0 | 1.6 | 0.00 | 0.36 | 0.00 | 79 | 1019.7 |
| 20260831235350 | 13 | 143 | 0.0 | 1.6 | 0.00 | 0.36 | 0.00 | 79 | 1019.7 |
| 20260831235341 | 13 | 143 | 0.0 | 1.6 | 0.00 | 0.36 | 0.00 | 80 | 1019.5 |
| 20260831235334 | 13 | 143 | 0.0 | 1.6 | 0.00 | 0.36 | 0.00 | 80 | 1019.7 |
| 20260831235116 | 13 | 143 | 0.0 | 1.6 | 0.00 | 0.36 | 0.00 | 80 | 1019.5 |
| 20260831235112 | 13 | 143 | 0.0 | 1.6 | 0.00 | 0.36 | 0.00 | 79 | 1019.7 |
| 20260831234839 | 13 | 143 | 0.0 | 1.6 | 0.00 | 0.36 | 0.00 | 79 | 1019.5 |
| 20260831234740 | 13 | 143 | 0.0 | 1.6 | 0.00 | 0.36 | 0.00 | 79 | 1019.7 |
| 20260831234640 | 13 | 143 | 0.0 | 1.6 | 0.00 | 0.36 | 0.00 | 79 | 1019.5 |
| 20260831234539 | 13 | 143 | 0.0 | 1.6 | 0.00 | 0.36 | 0.00 | 78 | 1019.5 |
| 20260831234439 | 13 | 143 | 0.0 | 1.6 | 0.00 | 0.36 | 0.00 | 78 | 1019.5 |
| 20260831234338 | 13 | 143 | 0.0 | 1.6 | 0.00 | 0.36 | 0.00 | 78 | 1019.5 |
| 20260831234237 | 13 | 143 | 0.0 | 1.6 | 0.00 | 0.36 | 0.00 | 78 | 1019.5 |
| 20260831234136 | 13 | 143 | 0.0 | 1.6 | 0.00 | 0.36 | 0.00 | 78 | 1019.7 |
| 20260831234034 | 13 | 143 | 0.0 | 3.2 | 0.00 | 0.36 | 0.00 | 78 | 1019.5 |
| 20260831233932 | 13 | 143 | 0.0 | 3.2 | 0.00 | 0.36 | 0.00 | 78 | 1019.7 |
| 20260831233832 | 14 | 143 | 0.0 | 3.2 | 0.00 | 0.36 | 0.00 | 78 | 1019.5 |
| 20260831233732 | 14 | 143 | 0.0 | 3.2 | 0.00 | 0.36 | 0.00 | 78 | 1019.5 |
| 20260831233632 | 14 | 143 | 0.0 | 3.2 | 0.00 | 0.36 | 0.00 | 78 | 1019.5 |
| 20260831233613 | 14 | 143 | 0.0 | 3.2 | 0.00 | 0.36 | 0.00 | 78 | 1019.5 |
| 20260831233605 | 14 | 143 | 0.0 | 3.2 | 0.00 | 0.36 | 0.00 | 78 | 1019.5 |
| 20260831233601 | 14 | 143 | 0.0 | 3.2 | 0.00 | 0.36 | 0.00 | 78 | 1019.5 |
| 20260831233331 | 14 | 143 | 0.0 | 3.2 | 0.00 | 0.36 | 0.00 | 78 | 1019.5 |
| 20260831233230 | 14 | 143 | 0.0 | 3.2 | 0.00 | 0.36 | 0.00 | 78 | 1019.5 |
| 20260831233129 | 14 | 143 | 0.0 | 3.2 | 0.00 | 0.36 | 0.00 | 78 | 1019.7 |
| 20260831233029 | 14 | 143 | 0.0 | 3.2 | 0.00 | 0.36 | 0.00 | 78 | 1019.5 |
| 20260831232929 | 14 | 143 | 0.0 | 3.2 | 0.00 | 0.36 | 0.00 | 79 | 1019.5 |
| 20260831232829 | 14 | 143 | 0.0 | 3.2 | 0.00 | 0.36 | 0.00 | 79 | 1019.5 |
| 20260831232729 | 14 | 143 | 0.0 | 3.2 | 0.00 | 0.36 | 0.00 | 79 | 1019.7 |
| 20260831232629 | 14 | 143 | 0.0 | 3.2 | 0.00 | 0.36 | 0.00 | 78 | 1019.7 |
| 20260831232529 | 14 | 143 | 0.0 | 3.2 | 0.00 | 0.36 | 0.00 | 78 | 1019.7 |
| 20260831232429 | 14 | 143 | 0.0 | 3.2 | 0.00 | 0.36 | 0.00 | 78 | 1019.7 |
| 20260831232329 | 14 | 143 | 0.0 | 3.2 | 0.00 | 0.36 | 0.00 | 77 | 1019.7 |
| 20260831232226 | 14 | 143 | 0.0 | 3.2 | 0.00 | 0.36 | 0.00 | 78 | 1019.7 |
| 20260831232124 | 14 | 143 | 0.0 | 3.2 | 0.00 | 0.36 | 0.00 | 78 | 1019.7 |
| 20260831232023 | 14 | 143 | 0.0 | 3.2 | 0.00 | 0.36 | 0.00 | 77 | 1019.5 |
| 20260831231921 | 14 | 143 | 0.0 | 3.2 | 0.00 | 0.36 | 0.00 | 77 | 1019.5 |
| 20260831231821 | 14 | 143 | 0.0 | 3.2 | 0.00 | 0.36 | 0.00 | 77 | 1019.7 |
| 20260831231717 | 14 | 143 | 0.0 | 3.2 | 0.00 | 0.36 | 0.00 | 77 | 1019.7 |
| 20260831231616 | 14 | 143 | 0.0 | 3.2 | 0.00 | 0.36 | 0.00 | 78 | 1019.7 |
| 20260831231516 | 14 | 143 | 0.0 | 3.2 | 0.00 | 0.36 | 0.00 | 78 | 1019.7 |
| 20260831231416 | 14 | 143 | 0.0 | 3.2 | 0.00 | 0.36 | 0.00 | 78 | 1019.7 |
| 20260831231345 | 14 | 144 | 0.0 | 3.2 | 0.00 | 0.36 | 0.00 | 78 | 1019.7 |
| 20260831231316 | 14 | 144 | 1.6 | 3.2 | 0.00 | 0.36 | 0.00 | 78 | 1019.7 |
| 20260831231212 | 14 | 144 | 0.0 | 3.2 | 0.00 | 0.36 | 0.00 | 78 | 1019.7 |
| 20260831231110 | 14 | 144 | 0.0 | 3.2 | 0.00 | 0.36 | 0.00 | 78 | 1019.5 |
| 20260831231007 | 14 | 144 | 0.0 | 3.2 | 0.00 | 0.36 | 0.00 | 79 | 1019.7 |
| 20260831230907 | 14 | 144 | 0.0 | 3.2 | 0.00 | 0.36 | 0.00 | 78 | 1019.5 |
| 20260831230844 | 14 | 144 | 0.0 | 3.2 | 0.00 | 0.36 | 0.00 | 78 | 1019.5 |
| 20260831230808 | 14 | 144 | 0.0 | 3.2 | 0.00 | 0.36 | 0.00 | 78 | 1019.7 |
| 20260831230703 | 14 | 144 | 0.0 | 3.2 | 0.00 | 0.36 | 0.00 | 78 | 1019.5 |
| 20260831230601 | 14 | 144 | 0.0 | 3.2 | 0.00 | 0.36 | 0.00 | 78 | 1019.5 |
| 20260831230502 | 14 | 144 | 0.0 | 3.2 | 0.00 | 0.36 | 0.00 | 78 | 1019.5 |
| 20260831230402 | 14 | 150 | 0.0 | 3.2 | 0.00 | 0.36 | 0.00 | 78 | 1019.5 |
| 20260831230344 | 14 | 150 | 0.0 | 3.2 | 0.00 | 0.36 | 0.00 | 78 | 1019.5 |
| 20260831230302 | 14 | 159 | 0.0 | 3.2 | 0.00 | 0.36 | 0.00 | 78 | 1019.5 |
| 20260831230201 | 14 | 159 | 0.0 | 3.2 | 0.00 | 0.36 | 0.00 | 78 | 1019.5 |
| 20260831230101 | 14 | 159 | 0.0 | 3.2 | 0.00 | 0.36 | 0.00 | 78 | 1019.7 |
| 20260831230002 | 14 | 159 | 0.0 | 3.2 | 0.00 | 0.36 | 0.00 | 78 | 1019.7 |
| 20260831225902 | 14 | 159 | 0.0 | 3.2 | 0.00 | 0.36 | 0.00 | 77 | 1019.7 |
| 20260831225842 | 14 | 159 | 0.0 | 3.2 | 0.00 | 0.36 | 0.00 | 77 | 1019.7 |
| 20260831225801 | 14 | 159 | 0.0 | 3.2 | 0.00 | 0.36 | 0.00 | 77 | 1019.7 |
| 20260831225701 | 14 | 159 | 0.0 | 3.2 | 0.00 | 0.36 | 0.00 | 77 | 1019.7 |
| 20260831225601 | 14 | 159 | 1.6 | 3.2 | 0.00 | 0.36 | 0.00 | 77 | 1019.7 |
| 20260831225501 | 14 | 159 | 1.6 | 3.2 | 0.00 | 0.36 | 0.00 | 77 | 1019.7 |
| 20260831225401 | 14 | 159 | 1.6 | 3.2 | 0.00 | 0.36 | 0.00 | 77 | 1019.7 |
| 20260831225340 | 14 | 159 | 1.6 | 3.2 | 0.00 | 0.36 | 0.00 | 77 | 1019.7 |
| 20260831225301 | 14 | 159 | 0.0 | 3.2 | 0.00 | 0.36 | 0.00 | 77 | 1019.7 |
| 20260831225201 | 14 | 159 | 0.0 | 3.2 | 0.00 | 0.36 | 0.00 | 77 | 1019.7 |
| 20260831225100 | 14 | 160 | 0.0 | 3.2 | 0.00 | 0.36 | 0.00 | 76 | 1019.5 |
| 20260831225001 | 14 | 160 | 0.0 | 3.2 | 0.00 | 0.36 | 0.00 | 76 | 1019.7 |
| 20260831224901 | 14 | 160 | 0.0 | 3.2 | 0.00 | 0.36 | 0.00 | 76 | 1019.7 |
| 20260831224838 | 14 | 159 | 0.0 | 3.2 | 0.00 | 0.36 | 0.00 | 76 | 1019.7 |
| 20260831224801 | 14 | 159 | 0.0 | 3.2 | 0.00 | 0.36 | 0.00 | 76 | 1019.7 |
| 20260831224701 | 15 | 159 | 0.0 | 3.2 | 0.00 | 0.36 | 0.00 | 76 | 1019.7 |
| 20260831224601 | 15 | 159 | 0.0 | 3.2 | 0.00 | 0.36 | 0.00 | 76 | 1019.7 |
| 20260831224501 | 15 | 159 | 0.0 | 3.2 | 0.00 | 0.36 | 0.00 | 76 | 1019.7 |
| 20260831224401 | 15 | 159 | 0.0 | 3.2 | 0.00 | 0.36 | 0.00 | 76 | 1019.7 |
| 20260831224337 | 15 | 160 | 0.0 | 3.2 | 0.00 | 0.36 | 0.00 | 76 | 1019.7 |
| 20260831224300 | 15 | 159 | 0.0 | 3.2 | 0.00 | 0.36 | 0.00 | 76 | 1019.8 |
| 20260831224200 | 15 | 159 | 0.0 | 3.2 | 0.00 | 0.36 | 0.00 | 77 | 1019.7 |
| 20260831224100 | 15 | 159 | 0.0 | 3.2 | 0.00 | 0.36 | 0.00 | 75 | 1019.7 |
| 20260831224000 | 15 | 159 | 0.0 | 3.2 | 0.00 | 0.36 | 0.00 | 76 | 1019.7 |
| 20260831223900 | 15 | 159 | 0.0 | 3.2 | 0.00 | 0.36 | 0.00 | 75 | 1019.8 |
| 20260831223838 | 15 | 159 | 0.0 | 3.2 | 0.00 | 0.36 | 0.00 | 75 | 1019.8 |
| 20260831223801 | 15 | 159 | 0.0 | 3.2 | 0.00 | 0.36 | 0.00 | 74 | 1019.8 |
| 20260831223700 | 15 | 160 | 0.0 | 3.2 | 0.00 | 0.36 | 0.00 | 74 | 1019.8 |
| 20260831223600 | 15 | 160 | 0.0 | 3.2 | 0.00 | 0.36 | 0.00 | 74 | 1019.8 |
| 20260831223500 | 15 | 160 | 0.0 | 3.2 | 0.00 | 0.36 | 0.00 | 73 | 1019.8 |
| 20260831223401 | 15 | 159 | 1.6 | 3.2 | 0.00 | 0.36 | 0.00 | 73 | 1019.8 |
| 20260831223338 | 15 | 159 | 1.6 | 3.2 | 0.00 | 0.36 | 0.00 | 73 | 1019.8 |
| 20260831223301 | 15 | 159 | 1.6 | 3.2 | 0.00 | 0.36 | 0.00 | 73 | 1019.7 |
| 20260831223202 | 15 | 159 | 1.6 | 3.2 | 0.00 | 0.36 | 0.00 | 73 | 1019.7 |
| 20260831223102 | 15 | 160 | 1.6 | 3.2 | 0.00 | 0.36 | 0.00 | 73 | 1019.7 |
| 20260831223055 | 15 | 159 | 1.6 | 3.2 | 0.00 | 0.36 | 0.00 | 73 | 1019.7 |
| 20260831223049 | 15 | 160 | 1.6 | 3.2 | 0.00 | 0.36 | 0.00 | 73 | 1019.7 |
| 20260831223045 | 15 | 160 | 1.6 | 3.2 | 0.00 | 0.36 | 0.00 | 73 | 1019.7 |
| 20260831222801 | 15 | 159 | 1.6 | 3.2 | 0.00 | 0.36 | 0.00 | 73 | 1019.7 |
| 20260831222701 | 15 | 160 | 1.6 | 3.2 | 0.00 | 0.36 | 0.00 | 72 | 1019.7 |
| 20260831222601 | 15 | 160 | 1.6 | 3.2 | 0.00 | 0.36 | 0.00 | 72 | 1019.7 |
| 20260831222501 | 15 | 160 | 1.6 | 3.2 | 0.00 | 0.36 | 0.00 | 72 | 1019.7 |
| 20260831222401 | 15 | 160 | 0.0 | 3.2 | 0.00 | 0.36 | 0.00 | 72 | 1019.7 |
| 20260831222331 | 15 | 160 | 0.0 | 3.2 | 0.00 | 0.36 | 0.00 | 72 | 1019.7 |
| 20260831222300 | 15 | 160 | 0.0 | 3.2 | 0.00 | 0.36 | 0.00 | 72 | 1019.7 |
| 20260831222200 | 15 | 161 | 0.0 | 3.2 | 0.00 | 0.36 | 0.00 | 72 | 1019.7 |
| 20260831222100 | 15 | 172 | 0.0 | 3.2 | 0.00 | 0.36 | 0.00 | 72 | 1019.7 |
| 20260831222000 | 15 | 223 | 0.0 | 3.2 | 0.00 | 0.36 | 0.00 | 72 | 1019.7 |
| 20260831221900 | 15 | 227 | 0.0 | 3.2 | 0.00 | 0.36 | 0.00 | 72 | 1019.7 |
| 20260831221801 | 15 | 227 | 0.0 | 3.2 | 0.00 | 0.36 | 0.00 | 72 | 1019.7 |
| 20260831221701 | 15 | 227 | 0.0 | 3.2 | 0.00 | 0.36 | 0.00 | 71 | 1019.7 |
| 20260831221601 | 15 | 227 | 0.0 | 3.2 | 0.00 | 0.36 | 0.00 | 71 | 1019.7 |
| 20260831221501 | 15 | 227 | 1.6 | 4.8 | 0.00 | 0.36 | 0.00 | 71 | 1019.7 |
| 20260831221401 | 15 | 227 | 1.6 | 6.4 | 0.00 | 0.36 | 0.00 | 71 | 1019.7 |
| 20260831221301 | 15 | 227 | 1.6 | 6.4 | 0.00 | 0.36 | 0.00 | 71 | 1019.7 |
| 20260831221201 | 15 | 227 | 1.6 | 6.4 | 0.00 | 0.36 | 0.00 | 71 | 1019.7 |
| 20260831221101 | 15 | 227 | 1.6 | 6.4 | 0.00 | 0.36 | 0.00 | 70 | 1019.7 |
| 20260831221001 | 15 | 227 | 3.2 | 6.4 | 0.00 | 0.36 | 0.00 | 70 | 1019.7 |
| 20260831220901 | 15 | 227 | 3.2 | 6.4 | 0.00 | 0.36 | 0.00 | 70 | 1019.7 |
| 20260831220831 | 15 | 227 | 3.2 | 6.4 | 0.00 | 0.36 | 0.00 | 70 | 1019.7 |
| 20260831220800 | 15 | 227 | 3.2 | 6.4 | 0.00 | 0.36 | 0.00 | 70 | 1019.7 |
| 20260831220704 | 15 | 227 | 3.2 | 6.4 | 0.00 | 0.36 | 0.00 | 69 | 1019.7 |
| 20260831220600 | 15 | 227 | 3.2 | 6.4 | 0.00 | 0.36 | 0.00 | 68 | 1019.7 |
| 20260831220500 | 15 | 227 | 3.2 | 6.4 | 0.00 | 0.36 | 0.00 | 68 | 1019.7 |
| 20260831220400 | 15 | 227 | 3.2 | 6.4 | 0.00 | 0.36 | 0.00 | 68 | 1019.7 |
| 20260831220330 | 15 | 228 | 3.2 | 6.4 | 0.00 | 0.36 | 0.00 | 68 | 1019.7 |
| 20260831220302 | 15 | 227 | 3.2 | 6.4 | 0.00 | 0.36 | 0.00 | 68 | 1019.7 |
| 20260831220203 | 15 | 230 | 3.2 | 6.4 | 0.00 | 0.36 | 0.00 | 67 | 1019.7 |
| 20260831220101 | 15 | 230 | 3.2 | 6.4 | 0.00 | 0.36 | 0.00 | 67 | 1019.7 |
| 20260831220002 | 15 | 232 | 3.2 | 6.4 | 0.00 | 0.36 | 0.00 | 67 | 1019.7 |
| 20260831215902 | 15 | 236 | 1.6 | 6.4 | 0.00 | 0.36 | 0.36 | 67 | 1019.7 |
| 20260831215829 | 16 | 245 | 1.6 | 4.8 | 0.00 | 0.36 | 0.36 | 67 | 1019.7 |
| 20260831215800 | 15 | 245 | 1.6 | 4.8 | 0.00 | 0.36 | 0.36 | 68 | 1019.7 |
| 20260831215700 | 16 | 246 | 1.6 | 4.8 | 0.00 | 0.36 | 0.36 | 68 | 1019.7 |
| 20260831215601 | 16 | 246 | 1.6 | 4.8 | 0.00 | 0.36 | 0.36 | 67 | 1019.7 |
| 20260831215500 | 16 | 246 | 1.6 | 4.8 | 0.00 | 0.36 | 0.36 | 67 | 1019.7 |
| 20260831215400 | 16 | 245 | 1.6 | 4.8 | 0.00 | 0.36 | 0.36 | 68 | 1019.7 |
| 20260831215328 | 16 | 262 | 1.6 | 4.8 | 0.00 | 0.36 | 0.36 | 68 | 1019.7 |
| 20260831215300 | 16 | 263 | 1.6 | 4.8 | 0.00 | 0.36 | 0.36 | 67 | 1019.7 |
| 20260831215201 | 16 | 266 | 1.6 | 4.8 | 0.00 | 0.36 | 0.36 | 67 | 1019.7 |
| 20260831215100 | 16 | 266 | 1.6 | 4.8 | 0.00 | 0.36 | 0.36 | 67 | 1019.7 |
| 20260831215001 | 16 | 267 | 1.6 | 3.2 | 0.00 | 0.36 | 0.36 | 66 | 1019.7 |
| 20260831214901 | 16 | 267 | 1.6 | 3.2 | 0.00 | 0.36 | 0.36 | 66 | 1019.7 |
| 20260831214801 | 16 | 267 | 1.6 | 3.2 | 0.00 | 0.36 | 0.36 | 66 | 1019.7 |
| 20260831214701 | 16 | 267 | 1.6 | 3.2 | 0.00 | 0.36 | 0.36 | 66 | 1019.7 |
| 20260831214601 | 16 | 267 | 1.6 | 3.2 | 0.00 | 0.36 | 0.36 | 66 | 1019.5 |
| 20260831214501 | 16 | 267 | 1.6 | 3.2 | 0.00 | 0.36 | 0.36 | 66 | 1019.5 |
| 20260831214400 | 16 | 267 | 1.6 | 3.2 | 0.00 | 0.36 | 0.36 | 66 | 1019.5 |
| 20260831214329 | 16 | 267 | 1.6 | 3.2 | 0.00 | 0.36 | 0.36 | 66 | 1019.5 |
| 20260831214300 | 16 | 267 | 1.6 | 3.2 | 0.00 | 0.36 | 0.36 | 66 | 1019.4 |
| 20260831214200 | 16 | 267 | 1.6 | 3.2 | 0.00 | 0.36 | 0.36 | 66 | 1019.5 |
| 20260831214101 | 16 | 267 | 1.6 | 3.2 | 0.00 | 0.36 | 0.36 | 65 | 1019.4 |
| 20260831214000 | 16 | 267 | 1.6 | 3.2 | 0.00 | 0.36 | 0.36 | 66 | 1019.4 |
| 20260831213900 | 16 | 267 | 1.6 | 3.2 | 0.00 | 0.36 | 0.36 | 65 | 1019.4 |
| 20260831213800 | 16 | 267 | 1.6 | 3.2 | 0.00 | 0.36 | 0.36 | 65 | 1019.4 |
| 20260831213700 | 16 | 267 | 1.6 | 3.2 | 0.00 | 0.36 | 0.36 | 65 | 1019.4 |
| 20260831213600 | 16 | 267 | 1.6 | 3.2 | 0.00 | 0.36 | 0.36 | 65 | 1019.4 |
| 20260831213500 | 16 | 267 | 1.6 | 4.8 | 0.00 | 0.36 | 0.36 | 65 | 1019.4 |
| 20260831213401 | 16 | 267 | 1.6 | 4.8 | 0.00 | 0.36 | 0.36 | 64 | 1019.4 |
| 20260831213329 | 16 | 267 | 1.6 | 4.8 | 0.00 | 0.36 | 0.36 | 64 | 1019.4 |
| 20260831213301 | 16 | 267 | 3.2 | 6.4 | 0.00 | 0.36 | 0.36 | 64 | 1019.4 |
| 20260831213201 | 16 | 267 | 3.2 | 6.4 | 0.00 | 0.36 | 0.36 | 64 | 1019.4 |
| 20260831213101 | 16 | 267 | 3.2 | 6.4 | 0.00 | 0.36 | 0.36 | 64 | 1019.4 |
| 20260831213053 | 16 | 267 | 3.2 | 9.7 | 0.00 | 0.36 | 0.36 | 64 | 1019.4 |
| 20260831213046 | 16 | 267 | 3.2 | 8.0 | 0.00 | 0.36 | 0.36 | 64 | 1019.4 |
| 20260831213041 | 16 | 267 | 3.2 | 8.0 | 0.00 | 0.36 | 0.36 | 64 | 1019.4 |
| 20260831212801 | 16 | 267 | 3.2 | 9.7 | 0.00 | 0.36 | 0.36 | 64 | 1019.5 |
| 20260831212701 | 16 | 267 | 4.8 | 9.7 | 0.00 | 0.36 | 0.36 | 64 | 1019.5 |
| 20260831212601 | 16 | 267 | 4.8 | 9.7 | 0.00 | 0.36 | 0.36 | 63 | 1019.5 |
| 20260831212500 | 16 | 267 | 4.8 | 9.7 | 0.00 | 0.36 | 0.36 | 63 | 1019.5 |
| 20260831212401 | 17 | 267 | 4.8 | 9.7 | 0.00 | 0.36 | 0.36 | 63 | 1019.5 |
| 20260831212301 | 17 | 267 | 4.8 | 9.7 | 0.00 | 0.36 | 0.36 | 63 | 1019.5 |
| 20260831212201 | 17 | 256 | 4.8 | 9.7 | 0.00 | 0.36 | 0.36 | 63 | 1019.4 |
| 20260831212101 | 17 | 250 | 4.8 | 11.3 | 0.00 | 0.36 | 0.36 | 63 | 1019.5 |
| 20260831212001 | 17 | 246 | 6.4 | 11.3 | 0.00 | 0.36 | 0.36 | 62 | 1019.5 |
| 20260831211901 | 17 | 260 | 6.4 | 12.9 | 0.00 | 0.36 | 0.36 | 63 | 1019.5 |
| 20260831211829 | 17 | 249 | 6.4 | 12.9 | 0.00 | 0.36 | 0.36 | 63 | 1019.5 |
| 20260831211801 | 17 | 249 | 6.4 | 12.9 | 0.00 | 0.36 | 0.36 | 62 | 1019.5 |
| 20260831211700 | 17 | 268 | 6.4 | 12.9 | 0.00 | 0.36 | 0.36 | 62 | 1019.4 |
| 20260831211601 | 17 | 271 | 6.4 | 12.9 | 0.00 | 0.36 | 0.36 | 62 | 1019.4 |
| 20260831211501 | 17 | 252 | 8.0 | 12.9 | 0.00 | 0.36 | 0.36 | 62 | 1019.4 |
| 20260831211401 | 17 | 238 | 8.0 | 12.9 | 0.00 | 0.36 | 0.36 | 62 | 1019.4 |
| 20260831211328 | 17 | 278 | 8.0 | 12.9 | 0.00 | 0.36 | 0.36 | 62 | 1019.4 |
| 20260831211300 | 17 | 259 | 8.0 | 12.9 | 0.00 | 0.36 | 0.36 | 62 | 1019.4 |
| 20260831211201 | 17 | 250 | 8.0 | 12.9 | 0.00 | 0.36 | 0.36 | 61 | 1019.4 |
| 20260831211100 | 17 | 248 | 8.0 | 12.9 | 0.00 | 0.36 | 0.36 | 61 | 1019.4 |
| 20260831211049 | 17 | 257 | 9.7 | 12.9 | 0.00 | 0.36 | 0.36 | 61 | 1019.4 |
| 20260831211045 | 17 | 261 | 8.0 | 12.9 | 0.00 | 0.36 | 0.36 | 61 | 1019.4 |
| 20260831211041 | 17 | 243 | 9.7 | 12.9 | 0.00 | 0.36 | 0.36 | 61 | 1019.4 |
| 20260831210755 | 17 | 257 | 9.7 | 12.9 | 0.00 | 0.36 | 0.36 | 61 | 1019.5 |
| 20260831210655 | 17 | 248 | 9.7 | 14.5 | 0.00 | 0.36 | 0.36 | 61 | 1019.4 |
| 20260831210554 | 17 | 250 | 9.7 | 14.5 | 0.00 | 0.36 | 0.36 | 61 | 1019.4 |
| 20260831210453 | 17 | 266 | 8.0 | 14.5 | 0.00 | 0.36 | 0.36 | 61 | 1019.4 |
| 20260831210350 | 17 | 272 | 8.0 | 14.5 | 0.00 | 0.36 | 0.36 | 61 | 1019.4 |
| 20260831210328 | 17 | 276 | 8.0 | 14.5 | 0.00 | 0.36 | 0.36 | 61 | 1019.4 |
| 20260831210246 | 17 | 300 | 8.0 | 14.5 | 0.00 | 0.36 | 0.36 | 61 | 1019.3 |
| 20260831210146 | 17 | 271 | 8.0 | 14.5 | 0.00 | 0.36 | 0.36 | 61 | 1019.3 |
| 20260831210046 | 17 | 245 | 8.0 | 14.5 | 0.00 | 0.36 | 0.36 | 61 | 1019.3 |
| 20260831205946 | 17 | 274 | 8.0 | 14.5 | 0.00 | 0.36 | 0.36 | 61 | 1019.3 |
| 20260831205843 | 17 | 263 | 8.0 | 14.5 | 0.00 | 0.36 | 0.36 | 61 | 1019.3 |
| 20260831205829 | 17 | 252 | 8.0 | 14.5 | 0.00 | 0.36 | 0.36 | 61 | 1019.3 |
| 20260831205739 | 17 | 235 | 8.0 | 14.5 | 0.00 | 0.36 | 0.36 | 61 | 1019.3 |
| 20260831205639 | 17 | 261 | 8.0 | 14.5 | 0.00 | 0.36 | 0.36 | 61 | 1019.3 |
| 20260831205539 | 17 | 253 | 8.0 | 14.5 | 0.00 | 0.36 | 0.36 | 61 | 1019.3 |
| 20260831205439 | 17 | 260 | 9.7 | 14.5 | 0.00 | 0.36 | 0.36 | 61 | 1019.3 |
| 20260831205329 | 17 | 259 | 8.0 | 14.5 | 0.00 | 0.36 | 0.36 | 61 | 1019.3 |
| 20260831205319 | 17 | 277 | 8.0 | 14.5 | 0.00 | 0.36 | 0.36 | 61 | 1019.4 |
| 20260831205315 | 17 | 238 | 8.0 | 14.5 | 0.00 | 0.36 | 0.36 | 61 | 1019.3 |
| 20260831205310 | 17 | 257 | 9.7 | 14.5 | 0.00 | 0.36 | 0.36 | 61 | 1019.3 |
| 20260831205049 | 17 | 276 | 9.7 | 14.5 | 0.00 | 0.36 | 0.36 | 61 | 1019.3 |
| 20260831205045 | 17 | 283 | 9.7 | 14.5 | 0.00 | 0.36 | 0.36 | 61 | 1019.3 |
| 20260831205041 | 17 | 229 | 8.0 | 14.5 | 0.00 | 0.36 | 0.36 | 61 | 1019.4 |
| 20260831204732 | 17 | 279 | 8.0 | 14.5 | 0.00 | 0.36 | 0.36 | 61 | 1019.4 |
| 20260831204632 | 17 | 257 | 8.0 | 14.5 | 0.00 | 0.36 | 0.36 | 61 | 1019.4 |
| 20260831204530 | 17 | 295 | 8.0 | 14.5 | 0.00 | 0.36 | 0.36 | 61 | 1019.4 |
| 20260831204430 | 17 | 227 | 8.0 | 14.5 | 0.00 | 0.36 | 0.36 | 61 | 1019.3 |
| 20260831204328 | 17 | 267 | 8.0 | 16.1 | 0.00 | 0.36 | 0.36 | 61 | 1019.3 |
| 20260831204320 | 17 | 262 | 8.0 | 16.1 | 0.00 | 0.36 | 0.36 | 61 | 1019.3 |
| 20260831204316 | 17 | 277 | 8.0 | 16.1 | 0.00 | 0.36 | 0.36 | 61 | 1019.3 |
| 20260831204312 | 17 | 277 | 8.0 | 16.1 | 0.00 | 0.36 | 0.36 | 61 | 1019.4 |
| 20260831204047 | 17 | 327 | 8.0 | 16.1 | 0.00 | 0.36 | 0.36 | 62 | 1019.4 |
| 20260831204043 | 17 | 256 | 8.0 | 16.1 | 0.00 | 0.36 | 0.36 | 61 | 1019.3 |
| 20260831204038 | 17 | 258 | 8.0 | 16.1 | 0.00 | 0.36 | 0.36 | 61 | 1019.3 |
| 20260831203730 | 17 | 263 | 8.0 | 16.1 | 0.00 | 0.36 | 0.36 | 61 | 1019.3 |
| 20260831203629 | 17 | 244 | 6.4 | 16.1 | 0.00 | 0.36 | 0.36 | 61 | 1019.3 |
| 20260831203529 | 17 | 265 | 6.4 | 16.1 | 0.00 | 0.36 | 0.36 | 61 | 1019.3 |
| 20260831203429 | 17 | 267 | 6.4 | 16.1 | 0.00 | 0.36 | 0.36 | 61 | 1019.3 |
| 20260831203329 | 17 | 277 | 6.4 | 16.1 | 0.00 | 0.36 | 0.36 | 61 | 1019.3 |
| 20260831203229 | 17 | 267 | 6.4 | 16.1 | 0.00 | 0.36 | 0.36 | 61 | 1019.3 |
| 20260831203129 | 17 | 271 | 6.4 | 16.1 | 0.00 | 0.36 | 0.36 | 61 | 1019.3 |
| 20260831203029 | 17 | 255 | 6.4 | 16.1 | 0.00 | 0.36 | 0.36 | 61 | 1019.3 |
| 20260831202931 | 18 | 302 | 8.0 | 14.5 | 0.00 | 0.36 | 0.36 | 61 | 1019.1 |
| 20260831202829 | 18 | 275 | 8.0 | 14.5 | 0.00 | 0.36 | 0.36 | 61 | 1019.2 |
| 20260831202729 | 18 | 263 | 8.0 | 14.5 | 0.00 | 0.36 | 0.36 | 61 | 1019.1 |
| 20260831202629 | 18 | 292 | 8.0 | 14.5 | 0.00 | 0.36 | 0.36 | 61 | 1019.1 |
| 20260831202529 | 18 | 281 | 8.0 | 14.5 | 0.00 | 0.36 | 0.36 | 61 | 1019.2 |
| 20260831202429 | 18 | 286 | 8.0 | 14.5 | 0.00 | 0.36 | 0.36 | 61 | 1019.1 |
| 20260831202329 | 18 | 287 | 8.0 | 16.1 | 0.00 | 0.36 | 0.36 | 61 | 1019.1 |
| 20260831202230 | 18 | 270 | 8.0 | 16.1 | 0.00 | 0.36 | 0.36 | 60 | 1019.0 |
| 20260831202129 | 18 | 269 | 8.0 | 16.1 | 0.00 | 0.36 | 0.36 | 60 | 1019.0 |
| 20260831202048 | 18 | 266 | 8.0 | 16.1 | 0.00 | 0.36 | 0.36 | 60 | 1019.0 |
| 20260831202044 | 18 | 275 | 8.0 | 16.1 | 0.00 | 0.36 | 0.36 | 61 | 1019.0 |
| 20260831202040 | 18 | 267 | 8.0 | 16.1 | 0.00 | 0.36 | 0.36 | 61 | 1019.0 |
| 20260831201729 | 18 | 287 | 8.0 | 16.1 | 0.00 | 0.36 | 0.36 | 60 | 1018.9 |
| 20260831201629 | 18 | 283 | 6.4 | 16.1 | 0.00 | 0.36 | 0.36 | 60 | 1018.9 |
| 20260831201528 | 18 | 266 | 6.4 | 16.1 | 0.00 | 0.36 | 0.36 | 60 | 1018.9 |
| 20260831201428 | 18 | 284 | 6.4 | 16.1 | 0.00 | 0.36 | 0.36 | 60 | 1018.9 |
| 20260831201329 | 18 | 282 | 6.4 | 14.5 | 0.00 | 0.36 | 0.36 | 60 | 1018.9 |
| 20260831201228 | 18 | 281 | 6.4 | 14.5 | 0.00 | 0.36 | 0.36 | 61 | 1018.8 |
| 20260831201128 | 18 | 296 | 6.4 | 14.5 | 0.00 | 0.36 | 0.36 | 60 | 1018.8 |
| 20260831201025 | 18 | 297 | 6.4 | 14.5 | 0.00 | 0.36 | 0.36 | 60 | 1018.8 |
| 20260831200924 | 18 | 264 | 6.4 | 14.5 | 0.00 | 0.36 | 0.36 | 60 | 1018.8 |
| 20260831200829 | 18 | 293 | 6.4 | 14.5 | 0.00 | 0.36 | 0.36 | 60 | 1018.8 |
| 20260831200819 | 18 | 288 | 6.4 | 14.5 | 0.00 | 0.36 | 0.36 | 60 | 1018.8 |
| 20260831200718 | 18 | 275 | 6.4 | 14.5 | 0.00 | 0.36 | 0.36 | 60 | 1018.7 |
| 20260831200618 | 18 | 257 | 6.4 | 16.1 | 0.00 | 0.36 | 0.36 | 60 | 1018.7 |
| 20260831200519 | 18 | 286 | 8.0 | 16.1 | 0.00 | 0.36 | 0.36 | 60 | 1018.7 |
| 20260831200418 | 18 | 257 | 6.4 | 16.1 | 0.00 | 0.36 | 0.36 | 60 | 1018.7 |
| 20260831200330 | 18 | 252 | 6.4 | 16.1 | 0.00 | 0.36 | 0.36 | 60 | 1018.7 |
| 20260831200316 | 18 | 250 | 6.4 | 16.1 | 0.00 | 0.36 | 0.36 | 60 | 1018.6 |
| 20260831200216 | 18 | 271 | 8.0 | 16.1 | 0.00 | 0.36 | 0.36 | 60 | 1018.6 |
| 20260831200116 | 18 | 290 | 8.0 | 16.1 | 0.00 | 0.36 | 0.36 | 60 | 1018.7 |
| 20260831200052 | 18 | 269 | 8.0 | 17.7 | 0.00 | 0.36 | 0.36 | 59 | 1018.6 |
| 20260831200044 | 18 | 257 | 8.0 | 17.7 | 0.00 | 0.36 | 0.36 | 60 | 1018.6 |
| 20260831200040 | 18 | 252 | 8.0 | 17.7 | 0.00 | 0.36 | 0.36 | 59 | 1018.6 |
| 20260831195812 | 18 | 269 | 8.0 | 17.7 | 0.00 | 0.36 | 0.36 | 59 | 1018.6 |
| 20260831195712 | 18 | 268 | 8.0 | 17.7 | 0.00 | 0.36 | 0.36 | 59 | 1018.5 |
| 20260831195612 | 18 | 280 | 8.0 | 17.7 | 0.00 | 0.36 | 0.36 | 59 | 1018.5 |
| 20260831195512 | 18 | 250 | 8.0 | 17.7 | 0.00 | 0.36 | 0.36 | 59 | 1018.5 |
| 20260831195438 | 18 | 252 | 8.0 | 17.7 | 0.00 | 0.36 | 0.36 | 59 | 1018.5 |
| 20260831195434 | 18 | 268 | 8.0 | 17.7 | 0.00 | 0.36 | 0.36 | 59 | 1018.5 |
| 20260831195322 | 18 | 271 | 8.0 | 17.7 | 0.00 | 0.36 | 0.36 | 59 | 1018.4 |
| 20260831195208 | 18 | 253 | 8.0 | 17.7 | 0.00 | 0.36 | 0.36 | 59 | 1018.4 |
| 20260831195108 | 18 | 263 | 8.0 | 17.7 | 0.00 | 0.36 | 0.36 | 59 | 1018.4 |
| 20260831195053 | 18 | 261 | 8.0 | 14.5 | 0.00 | 0.36 | 0.36 | 59 | 1018.3 |
| 20260831195044 | 18 | 257 | 8.0 | 12.9 | 0.00 | 0.36 | 0.36 | 59 | 1018.4 |
| 20260831195040 | 18 | 302 | 8.0 | 14.5 | 0.00 | 0.36 | 0.36 | 59 | 1018.3 |
| 20260831194804 | 18 | 251 | 8.0 | 14.5 | 0.00 | 0.36 | 0.36 | 59 | 1018.3 |
| 20260831194704 | 18 | 261 | 8.0 | 14.5 | 0.00 | 0.36 | 0.36 | 60 | 1018.3 |
| 20260831194602 | 18 | 263 | 8.0 | 14.5 | 0.00 | 0.36 | 0.36 | 60 | 1018.3 |
| 20260831194502 | 18 | 251 | 8.0 | 14.5 | 0.00 | 0.36 | 0.36 | 60 | 1018.3 |
| 20260831194403 | 18 | 284 | 8.0 | 14.5 | 0.00 | 0.36 | 0.36 | 60 | 1018.2 |
| 20260831194329 | 18 | 277 | 8.0 | 14.5 | 0.00 | 0.36 | 0.36 | 60 | 1018.2 |
| 20260831194302 | 18 | 246 | 8.0 | 14.5 | 0.00 | 0.36 | 0.36 | 60 | 1018.3 |
| 20260831194202 | 18 | 252 | 8.0 | 14.5 | 0.00 | 0.36 | 0.36 | 60 | 1018.3 |
| 20260831194102 | 18 | 283 | 8.0 | 14.5 | 0.00 | 0.36 | 0.36 | 60 | 1018.3 |
| 20260831194002 | 18 | 259 | 6.4 | 14.5 | 0.00 | 0.36 | 0.36 | 60 | 1018.3 |
| 20260831193901 | 18 | 272 | 6.4 | 14.5 | 0.00 | 0.36 | 0.36 | 60 | 1018.3 |
| 20260831193830 | 18 | 265 | 6.4 | 14.5 | 0.00 | 0.36 | 0.36 | 60 | 1018.3 |
| 20260831193801 | 18 | 248 | 6.4 | 14.5 | 0.00 | 0.36 | 0.36 | 60 | 1018.3 |
| 20260831193701 | 18 | 271 | 6.4 | 14.5 | 0.00 | 0.36 | 0.36 | 61 | 1018.3 |
| 20260831193603 | 18 | 246 | 4.8 | 14.5 | 0.00 | 0.36 | 0.36 | 61 | 1018.3 |
| 20260831193501 | 18 | 263 | 4.8 | 14.5 | 0.00 | 0.36 | 0.36 | 61 | 1018.3 |
| 20260831193401 | 18 | 270 | 4.8 | 11.3 | 0.00 | 0.36 | 0.36 | 61 | 1018.3 |
| 20260831193329 | 18 | 259 | 4.8 | 9.7 | 0.00 | 0.36 | 0.36 | 61 | 1018.3 |
| 20260831193301 | 18 | 258 | 4.8 | 9.7 | 0.00 | 0.36 | 0.36 | 61 | 1018.2 |
| 20260831193203 | 18 | 295 | 4.8 | 9.7 | 0.00 | 0.36 | 0.36 | 62 | 1018.3 |
| 20260831193101 | 18 | 254 | 4.8 | 9.7 | 0.00 | 0.36 | 0.36 | 62 | 1018.2 |
| 20260831193026 | 18 | 291 | 3.2 | 6.4 | 0.00 | 0.36 | 0.36 | 63 | 1018.2 |
| 20260831193022 | 18 | 267 | 3.2 | 4.8 | 0.00 | 0.36 | 0.36 | 61 | 1018.0 |
| 20260831193017 | 18 | 288 | 4.8 | 8.0 | 0.00 | 0.36 | 0.36 | 63 | 1018.2 |
| 20260831193013 | 18 | 269 | 4.8 | 8.0 | 0.00 | 0.36 | 0.36 | 63 | 1018.2 |
| 20260831193009 | 18 | 264 | 4.8 | 8.0 | 0.00 | 0.36 | 0.36 | 63 | 1018.2 |
| 20260831193005 | 18 | 264 | 3.2 | 8.0 | 0.00 | 0.36 | 0.36 | 63 | 1018.2 |
| 20260831192750 | 18 | 273 | 3.2 | 8.0 | 0.00 | 0.36 | 0.36 | 63 | 1018.2 |
| 20260831192746 | 18 | 287 | 3.2 | 8.0 | 0.00 | 0.36 | 0.36 | 63 | 1018.2 |
| 20260831192738 | 18 | 280 | 3.2 | 6.4 | 0.00 | 0.36 | 0.36 | 62 | 1018.1 |
| 20260831192734 | 18 | 280 | 3.2 | 6.4 | 0.00 | 0.36 | 0.36 | 62 | 1018.1 |
| 20260831192305 | 18 | 291 | 3.2 | 6.4 | 0.00 | 0.36 | 0.36 | 63 | 1018.2 |
| 20260831192259 | 18 | 286 | 3.2 | 6.4 | 0.00 | 0.36 | 0.36 | 62 | 1018.1 |
| 20260831192255 | 18 | 286 | 3.2 | 6.4 | 0.00 | 0.36 | 0.36 | 62 | 1018.1 |
| 20260831192247 | 18 | 286 | 3.2 | 4.8 | 0.00 | 0.36 | 0.36 | 62 | 1018.0 |
| 20260831192243 | 18 | 286 | 3.2 | 4.8 | 0.00 | 0.36 | 0.36 | 62 | 1018.0 |
| 20260831191812 | 18 | 286 | 3.2 | 4.8 | 0.00 | 0.36 | 0.36 | 62 | 1018.0 |
| 20260831191808 | 18 | 286 | 3.2 | 4.8 | 0.00 | 0.36 | 0.36 | 61 | 1018.0 |
| 20260831191804 | 18 | 267 | 3.2 | 4.8 | 0.00 | 0.36 | 0.36 | 61 | 1018.0 |
| 20260831191543 | 18 | 267 | 3.2 | 4.8 | 0.00 | 0.36 | 0.36 | 61 | 1018.0 |
| 20260831191539 | 18 | 267 | 3.2 | 4.8 | 0.00 | 0.36 | 0.36 | 61 | 1018.0 |
| 20260831191258 | 18 | 267 | 3.2 | 4.8 | 0.00 | 0.36 | 0.36 | 61 | 1017.9 |
| 20260831191158 | 18 | 267 | 3.2 | 4.8 | 0.00 | 0.36 | 0.36 | 60 | 1017.9 |
| 20260831191056 | 19 | 267 | 3.2 | 4.8 | 0.00 | 0.36 | 0.36 | 60 | 1017.9 |
| 20260831190954 | 19 | 267 | 3.2 | 4.8 | 0.00 | 0.36 | 0.36 | 60 | 1017.9 |
| 20260831190830 | 19 | 267 | 3.2 | 4.8 | 0.00 | 0.36 | 0.36 | 60 | 1017.9 |
| 20260831190748 | 19 | 267 | 3.2 | 4.8 | 0.00 | 0.36 | 0.36 | 60 | 1017.9 |
| 20260831190648 | 19 | 253 | 3.2 | 4.8 | 0.00 | 0.36 | 0.36 | 60 | 1017.8 |
| 20260831190559 | 19 | 253 | 3.2 | 4.8 | 0.00 | 0.36 | 0.36 | 60 | 1017.8 |
| 20260831190545 | 19 | 253 | 3.2 | 8.0 | 0.00 | 0.36 | 0.36 | 60 | 1017.8 |
| 20260831190541 | 19 | 253 | 3.2 | 8.0 | 0.00 | 0.36 | 0.36 | 59 | 1017.6 |
| 20260831190247 | 19 | 253 | 3.2 | 8.0 | 0.00 | 0.36 | 0.36 | 59 | 1017.6 |
| 20260831190146 | 19 | 253 | 3.2 | 9.7 | 0.00 | 0.36 | 0.36 | 60 | 1017.6 |
| 20260831190044 | 19 | 253 | 4.8 | 9.7 | 0.00 | 0.36 | 0.36 | 59 | 1017.6 |
| 20260831185941 | 19 | 253 | 4.8 | 9.7 | 0.00 | 0.36 | 0.36 | 59 | 1017.6 |
| 20260831185830 | 19 | 252 | 4.8 | 9.7 | 0.00 | 0.36 | 0.36 | 58 | 1017.5 |
| 20260831185736 | 19 | 253 | 4.8 | 9.7 | 0.00 | 0.36 | 0.36 | 58 | 1017.5 |
| 20260831185636 | 19 | 253 | 4.8 | 11.3 | 0.00 | 0.36 | 0.36 | 58 | 1017.5 |
| 20260831185536 | 19 | 252 | 4.8 | 11.3 | 0.00 | 0.36 | 0.36 | 58 | 1017.6 |
| 20260831185436 | 19 | 250 | 4.8 | 11.3 | 0.00 | 0.36 | 0.36 | 58 | 1017.5 |
| 20260831185343 | 19 | 248 | 6.4 | 11.3 | 0.00 | 0.36 | 0.36 | 57 | 1017.4 |
| 20260831185328 | 19 | 266 | 6.4 | 11.3 | 0.00 | 0.36 | 0.36 | 57 | 1017.4 |
| 20260831185234 | 19 | 267 | 6.4 | 11.3 | 0.00 | 0.36 | 0.36 | 58 | 1017.5 |
| 20260831185132 | 19 | 266 | 6.4 | 11.3 | 0.00 | 0.36 | 0.36 | 58 | 1017.5 |
| 20260831185052 | 20 | 248 | 6.4 | 11.3 | 0.00 | 0.36 | 0.36 | 58 | 1017.4 |
| 20260831185044 | 20 | 269 | 4.8 | 11.3 | 0.00 | 0.36 | 0.36 | 57 | 1017.4 |
| 20260831185040 | 20 | 273 | 6.4 | 11.3 | 0.00 | 0.36 | 0.36 | 57 | 1017.4 |
| 20260831184732 | 20 | 251 | 6.4 | 11.3 | 0.00 | 0.36 | 0.36 | 57 | 1017.4 |
| 20260831184632 | 20 | 252 | 6.4 | 9.7 | 0.00 | 0.36 | 0.36 | 57 | 1017.3 |
| 20260831184532 | 20 | 250 | 4.8 | 9.7 | 0.00 | 0.36 | 0.36 | 57 | 1017.3 |
| 20260831184432 | 20 | 263 | 4.8 | 11.3 | 0.00 | 0.36 | 0.36 | 57 | 1017.3 |
| 20260831184329 | 20 | 270 | 4.8 | 11.3 | 0.00 | 0.36 | 0.36 | 57 | 1017.2 |
| 20260831184231 | 20 | 273 | 4.8 | 11.3 | 0.00 | 0.36 | 0.36 | 57 | 1017.2 |
| 20260831184130 | 20 | 253 | 4.8 | 11.3 | 0.00 | 0.36 | 0.36 | 56 | 1017.2 |
| 20260831184029 | 20 | 261 | 4.8 | 11.3 | 0.00 | 0.36 | 0.36 | 57 | 1017.2 |
| 20260831183929 | 20 | 271 | 6.4 | 12.9 | 0.00 | 0.36 | 0.36 | 57 | 1017.1 |
| 20260831183830 | 20 | 259 | 6.4 | 12.9 | 0.00 | 0.36 | 0.36 | 56 | 1017.1 |
| 20260831183730 | 20 | 265 | 6.4 | 12.9 | 0.00 | 0.36 | 0.36 | 56 | 1017.0 |
| 20260831183630 | 20 | 246 | 6.4 | 12.9 | 0.00 | 0.36 | 0.36 | 56 | 1017.0 |
| 20260831183529 | 20 | 242 | 6.4 | 12.9 | 0.00 | 0.36 | 0.36 | 56 | 1017.0 |
| 20260831183429 | 20 | 265 | 8.0 | 12.9 | 0.00 | 0.36 | 0.36 | 56 | 1017.0 |
| 20260831183329 | 20 | 274 | 8.0 | 12.9 | 0.00 | 0.36 | 0.36 | 56 | 1017.0 |
| 20260831183229 | 20 | 267 | 8.0 | 12.9 | 0.00 | 0.36 | 0.36 | 56 | 1016.9 |
| 20260831183129 | 20 | 276 | 8.0 | 12.9 | 0.00 | 0.36 | 0.36 | 56 | 1016.9 |
| 20260831183029 | 20 | 246 | 8.0 | 14.5 | 0.00 | 0.36 | 0.36 | 56 | 1016.8 |
| 20260831182929 | 20 | 263 | 8.0 | 14.5 | 0.00 | 0.36 | 0.36 | 56 | 1016.8 |
| 20260831182829 | 20 | 269 | 8.0 | 14.5 | 0.00 | 0.36 | 0.36 | 56 | 1016.8 |
| 20260831182729 | 20 | 260 | 8.0 | 14.5 | 0.00 | 0.36 | 0.36 | 56 | 1016.8 |
| 20260831182630 | 20 | 251 | 8.0 | 14.5 | 0.00 | 0.36 | 0.36 | 56 | 1016.8 |
| 20260831182529 | 20 | 288 | 8.0 | 14.5 | 0.00 | 0.36 | 0.36 | 56 | 1016.7 |
| 20260831182429 | 20 | 250 | 8.0 | 14.5 | 0.00 | 0.36 | 0.36 | 56 | 1016.8 |
| 20260831182330 | 20 | 261 | 8.0 | 14.5 | 0.00 | 0.36 | 0.36 | 55 | 1016.7 |
| 20260831182229 | 20 | 231 | 8.0 | 14.5 | 0.00 | 0.36 | 0.36 | 55 | 1016.7 |
| 20260831182129 | 20 | 246 | 8.0 | 14.5 | 0.00 | 0.36 | 0.36 | 55 | 1016.7 |
| 20260831182029 | 20 | 273 | 8.0 | 14.5 | 0.00 | 0.36 | 0.36 | 55 | 1016.7 |
| 20260831181929 | 20 | 278 | 8.0 | 12.9 | 0.00 | 0.36 | 0.36 | 55 | 1016.7 |
| 20260831181829 | 20 | 250 | 6.4 | 12.9 | 0.00 | 0.36 | 0.36 | 55 | 1016.6 |
| 20260831181729 | 20 | 247 | 6.4 | 12.9 | 0.00 | 0.36 | 0.36 | 55 | 1016.7 |
| 20260831181629 | 20 | 256 | 6.4 | 12.9 | 0.00 | 0.36 | 0.36 | 55 | 1016.6 |
| 20260831181528 | 20 | 254 | 6.4 | 12.9 | 0.00 | 0.36 | 0.36 | 54 | 1016.6 |
| 20260831181425 | 20 | 243 | 6.4 | 12.9 | 0.00 | 0.36 | 0.36 | 54 | 1016.6 |
| 20260831181328 | 20 | 244 | 6.4 | 12.9 | 0.00 | 0.36 | 0.36 | 54 | 1016.6 |
| 20260831181324 | 20 | 248 | 6.4 | 12.9 | 0.00 | 0.36 | 0.36 | 54 | 1016.6 |
| 20260831181224 | 20 | 262 | 6.4 | 12.9 | 0.00 | 0.36 | 0.36 | 54 | 1016.6 |
| 20260831181124 | 20 | 254 | 6.4 | 12.9 | 0.00 | 0.36 | 0.36 | 54 | 1016.6 |
| 20260831181024 | 20 | 264 | 8.0 | 12.9 | 0.00 | 0.36 | 0.36 | 54 | 1016.6 |
| 20260831180920 | 20 | 246 | 8.0 | 11.3 | 0.00 | 0.36 | 0.36 | 54 | 1016.5 |
| 20260831180829 | 20 | 263 | 8.0 | 12.9 | 0.00 | 0.36 | 0.36 | 54 | 1016.5 |
| 20260831180818 | 20 | 264 | 8.0 | 12.9 | 0.00 | 0.36 | 0.36 | 54 | 1016.5 |
| 20260831180718 | 21 | 256 | 8.0 | 12.9 | 0.00 | 0.36 | 0.36 | 54 | 1016.5 |
| 20260831180618 | 21 | 272 | 8.0 | 12.9 | 0.00 | 0.36 | 0.36 | 54 | 1016.5 |
| 20260831180555 | 21 | 259 | 8.0 | 14.5 | 0.00 | 0.36 | 0.36 | 53 | 1016.5 |
| 20260831180550 | 21 | 259 | 8.0 | 12.9 | 0.00 | 0.36 | 0.36 | 54 | 1016.5 |
| 20260831180543 | 21 | 259 | 8.0 | 12.9 | 0.00 | 0.36 | 0.36 | 53 | 1016.5 |
| 20260831180314 | 21 | 256 | 8.0 | 14.5 | 0.00 | 0.36 | 0.36 | 53 | 1016.5 |
| 20260831180213 | 21 | 298 | 9.7 | 14.5 | 0.00 | 0.36 | 0.36 | 53 | 1016.4 |
| 20260831180114 | 21 | 248 | 9.7 | 14.5 | 0.00 | 0.36 | 0.36 | 53 | 1016.5 |
| 20260831180053 | 21 | 244 | 9.7 | 19.3 | 0.00 | 0.36 | 0.36 | 52 | 1016.4 |
| 20260831180048 | 21 | 286 | 9.7 | 14.5 | 0.00 | 0.36 | 0.36 | 52 | 1016.4 |
| 20260831180039 | 21 | 257 | 9.7 | 14.5 | 0.00 | 0.36 | 0.36 | 52 | 1016.4 |
| 20260831175810 | 21 | 270 | 9.7 | 19.3 | 0.00 | 0.36 | 0.36 | 52 | 1016.4 |
| 20260831175710 | 21 | 261 | 11.3 | 19.3 | 0.00 | 0.36 | 0.36 | 52 | 1016.4 |
| 20260831175608 | 21 | 273 | 11.3 | 19.3 | 0.00 | 0.36 | 0.36 | 52 | 1016.4 |
| 20260831175506 | 21 | 268 | 11.3 | 19.3 | 0.00 | 0.36 | 0.36 | 52 | 1016.4 |
| 20260831175402 | 21 | 244 | 11.3 | 19.3 | 0.00 | 0.36 | 0.36 | 52 | 1016.4 |
| 20260831175324 | 21 | 245 | 11.3 | 19.3 | 0.00 | 0.36 | 0.36 | 52 | 1016.4 |
| 20260831175302 | 21 | 273 | 11.3 | 19.3 | 0.00 | 0.36 | 0.36 | 52 | 1016.4 |
| 20260831175201 | 21 | 265 | 11.3 | 19.3 | 0.00 | 0.36 | 0.36 | 52 | 1016.4 |
| 20260831175101 | 21 | 244 | 11.3 | 19.3 | 0.00 | 0.36 | 0.36 | 52 | 1016.3 |
| 20260831175003 | 21 | 274 | 11.3 | 19.3 | 0.00 | 0.36 | 0.36 | 52 | 1016.3 |
| 20260831174902 | 21 | 260 | 11.3 | 19.3 | 0.00 | 0.36 | 0.36 | 51 | 1016.3 |
| 20260831174817 | 21 | 265 | 11.3 | 19.3 | 0.00 | 0.36 | 0.36 | 51 | 1016.3 |
| 20260831174802 | 21 | 261 | 11.3 | 19.3 | 0.00 | 0.36 | 0.36 | 51 | 1016.3 |
| 20260831174702 | 21 | 238 | 11.3 | 19.3 | 0.00 | 0.36 | 0.36 | 51 | 1016.3 |
| 20260831174602 | 21 | 257 | 11.3 | 19.3 | 0.00 | 0.36 | 0.36 | 51 | 1016.2 |
| 20260831174536 | 21 | 267 | 11.3 | 19.3 | 0.00 | 0.36 | 0.36 | 51 | 1016.2 |
| 20260831174530 | 21 | 269 | 11.3 | 19.3 | 0.00 | 0.36 | 0.36 | 51 | 1016.2 |
| 20260831174522 | 21 | 268 | 11.3 | 19.3 | 0.00 | 0.36 | 0.36 | 51 | 1016.1 |
| 20260831174302 | 21 | 288 | 11.3 | 19.3 | 0.00 | 0.36 | 0.36 | 51 | 1016.2 |
| 20260831174202 | 21 | 274 | 11.3 | 19.3 | 0.00 | 0.36 | 0.36 | 51 | 1016.1 |
| 20260831174102 | 21 | 273 | 11.3 | 20.9 | 0.00 | 0.36 | 0.36 | 51 | 1016.1 |
| 20260831174002 | 21 | 232 | 12.9 | 20.9 | 0.00 | 0.36 | 0.36 | 51 | 1016.1 |
| 20260831173902 | 21 | 240 | 12.9 | 20.9 | 0.00 | 0.36 | 0.36 | 50 | 1016.1 |
| 20260831173813 | 21 | 242 | 12.9 | 20.9 | 0.00 | 0.36 | 0.36 | 50 | 1016.0 |
| 20260831173801 | 21 | 254 | 12.9 | 20.9 | 0.00 | 0.36 | 0.36 | 50 | 1016.0 |
| 20260831173700 | 21 | 274 | 12.9 | 20.9 | 0.00 | 0.36 | 0.36 | 51 | 1016.0 |
| 20260831173600 | 21 | 280 | 12.9 | 20.9 | 0.00 | 0.36 | 0.36 | 50 | 1016.1 |
| 20260831173501 | 21 | 252 | 12.9 | 20.9 | 0.00 | 0.36 | 0.36 | 50 | 1016.1 |
| 20260831173400 | 21 | 252 | 12.9 | 20.9 | 0.00 | 0.36 | 0.36 | 49 | 1016.0 |
| 20260831173312 | 21 | 265 | 12.9 | 20.9 | 0.00 | 0.36 | 0.36 | 50 | 1016.0 |
| 20260831173300 | 21 | 258 | 12.9 | 20.9 | 0.00 | 0.36 | 0.36 | 50 | 1016.0 |
| 20260831173155 | 21 | 244 | 12.9 | 20.9 | 0.00 | 0.36 | 0.36 | 50 | 1016.1 |
| 20260831173055 | 21 | 261 | 12.9 | 20.9 | 0.00 | 0.36 | 0.36 | 50 | 1016.0 |
| 20260831173035 | 22 | 242 | 11.3 | 20.9 | 0.00 | 0.36 | 0.36 | 50 | 1016.0 |
| 20260831173031 | 22 | 272 | 12.9 | 20.9 | 0.00 | 0.36 | 0.36 | 50 | 1016.0 |
| 20260831173023 | 22 | 265 | 11.3 | 20.9 | 0.00 | 0.36 | 0.36 | 50 | 1016.0 |
| 20260831172754 | 22 | 291 | 11.3 | 20.9 | 0.00 | 0.36 | 0.36 | 50 | 1016.0 |
| 20260831172649 | 22 | 243 | 11.3 | 20.9 | 0.00 | 0.36 | 0.36 | 50 | 1016.0 |
| 20260831172550 | 22 | 284 | 11.3 | 20.9 | 0.00 | 0.36 | 0.36 | 50 | 1016.0 |
| 20260831172535 | 22 | 256 | 11.3 | 19.3 | 0.00 | 0.36 | 0.36 | 49 | 1015.8 |
| 20260831172530 | 22 | 271 | 11.3 | 19.3 | 0.00 | 0.36 | 0.36 | 50 | 1016.0 |
| 20260831172522 | 22 | 236 | 11.3 | 19.3 | 0.00 | 0.36 | 0.36 | 50 | 1016.0 |
| 20260831172247 | 22 | 262 | 11.3 | 19.3 | 0.00 | 0.36 | 0.36 | 49 | 1015.8 |
| 20260831172146 | 22 | 264 | 11.3 | 19.3 | 0.00 | 0.36 | 0.36 | 48 | 1015.8 |
| 20260831172046 | 22 | 265 | 11.3 | 19.3 | 0.00 | 0.36 | 0.36 | 49 | 1015.8 |
| 20260831171946 | 22 | 264 | 11.3 | 19.3 | 0.00 | 0.36 | 0.36 | 48 | 1015.8 |
| 20260831171844 | 22 | 248 | 12.9 | 19.3 | 0.00 | 0.36 | 0.36 | 48 | 1015.8 |
| 20260831171812 | 22 | 242 | 12.9 | 20.9 | 0.00 | 0.36 | 0.36 | 48 | 1015.8 |
| 20260831171741 | 22 | 255 | 12.9 | 20.9 | 0.00 | 0.36 | 0.36 | 48 | 1015.8 |
| 20260831171636 | 22 | 275 | 12.9 | 20.9 | 0.00 | 0.36 | 0.36 | 48 | 1015.8 |
| 20260831171536 | 22 | 246 | 11.3 | 20.9 | 0.00 | 0.36 | 0.36 | 48 | 1015.8 |
| 20260831171440 | 22 | 275 | 11.3 | 20.9 | 0.00 | 0.36 | 0.36 | 48 | 1015.7 |
| 20260831171336 | 22 | 263 | 11.3 | 20.9 | 0.00 | 0.36 | 0.36 | 48 | 1015.8 |
| 20260831171312 | 22 | 237 | 11.3 | 20.9 | 0.00 | 0.36 | 0.36 | 48 | 1015.8 |
| 20260831171236 | 22 | 246 | 11.3 | 20.9 | 0.00 | 0.36 | 0.36 | 47 | 1015.8 |
| 20260831171130 | 22 | 265 | 11.3 | 20.9 | 0.00 | 0.36 | 0.36 | 47 | 1015.8 |
| 20260831171030 | 22 | 311 | 11.3 | 20.9 | 0.00 | 0.36 | 0.36 | 47 | 1015.7 |
| 20260831170929 | 22 | 283 | 11.3 | 20.9 | 0.00 | 0.36 | 0.36 | 48 | 1015.7 |
| 20260831170830 | 22 | 263 | 9.7 | 20.9 | 0.00 | 0.36 | 0.36 | 47 | 1015.7 |
| 20260831170812 | 22 | 259 | 9.7 | 20.9 | 0.00 | 0.36 | 0.36 | 47 | 1015.7 |
| 20260831170730 | 22 | 260 | 9.7 | 22.5 | 0.00 | 0.36 | 0.36 | 47 | 1015.7 |
| 20260831170623 | 22 | 242 | 11.3 | 22.5 | 0.00 | 0.36 | 0.36 | 47 | 1015.7 |
| 20260831170524 | 22 | 275 | 11.3 | 22.5 | 0.00 | 0.36 | 0.36 | 47 | 1015.7 |
| 20260831170423 | 22 | 265 | 11.3 | 22.5 | 0.00 | 0.36 | 0.36 | 47 | 1015.7 |
| 20260831170324 | 22 | 252 | 12.9 | 22.5 | 0.00 | 0.36 | 0.36 | 47 | 1015.7 |
| 20260831170312 | 22 | 234 | 12.9 | 22.5 | 0.00 | 0.36 | 0.36 | 47 | 1015.7 |
| 20260831170223 | 22 | 271 | 12.9 | 22.5 | 0.00 | 0.36 | 0.36 | 46 | 1015.7 |
| 20260831170120 | 22 | 281 | 12.9 | 22.5 | 0.00 | 0.36 | 0.36 | 46 | 1015.7 |
| 20260831170020 | 22 | 269 | 12.9 | 22.5 | 0.00 | 0.36 | 0.36 | 46 | 1015.6 |
| 20260831165920 | 22 | 273 | 12.9 | 22.5 | 0.00 | 0.36 | 0.36 | 46 | 1015.7 |
| 20260831165820 | 22 | 263 | 12.9 | 22.5 | 0.00 | 0.36 | 0.36 | 46 | 1015.7 |
| 20260831165812 | 22 | 233 | 12.9 | 22.5 | 0.00 | 0.36 | 0.36 | 46 | 1015.7 |
| 20260831165717 | 22 | 267 | 12.9 | 20.9 | 0.00 | 0.36 | 0.36 | 46 | 1015.6 |
| 20260831165613 | 22 | 248 | 12.9 | 20.9 | 0.00 | 0.36 | 0.36 | 45 | 1015.7 |
| 20260831165539 | 22 | 254 | 12.9 | 24.1 | 0.00 | 0.36 | 0.36 | 46 | 1015.6 |
| 20260831165533 | 22 | 255 | 12.9 | 19.3 | 0.00 | 0.36 | 0.36 | 46 | 1015.7 |
| 20260831165526 | 22 | 315 | 12.9 | 24.1 | 0.00 | 0.36 | 0.36 | 46 | 1015.7 |
| 20260831165522 | 22 | 247 | 12.9 | 24.1 | 0.00 | 0.36 | 0.36 | 46 | 1015.6 |
| 20260831165212 | 22 | 269 | 12.9 | 24.1 | 0.00 | 0.36 | 0.36 | 46 | 1015.6 |
| 20260831165107 | 22 | 243 | 12.9 | 24.1 | 0.00 | 0.36 | 0.36 | 46 | 1015.7 |
| 20260831165007 | 22 | 262 | 12.9 | 24.1 | 0.00 | 0.36 | 0.36 | 46 | 1015.6 |
| 20260831164908 | 22 | 281 | 14.5 | 24.1 | 0.00 | 0.36 | 0.36 | 46 | 1015.6 |
| 20260831164807 | 22 | 236 | 14.5 | 24.1 | 0.00 | 0.36 | 0.36 | 45 | 1015.6 |
| 20260831164705 | 22 | 283 | 14.5 | 24.1 | 0.00 | 0.36 | 0.36 | 45 | 1015.5 |
| 20260831164604 | 22 | 268 | 14.5 | 24.1 | 0.00 | 0.36 | 0.36 | 44 | 1015.6 |
| 20260831164504 | 22 | 277 | 14.5 | 24.1 | 0.00 | 0.36 | 0.36 | 44 | 1015.7 |
| 20260831164403 | 23 | 257 | 14.5 | 24.1 | 0.00 | 0.36 | 0.36 | 44 | 1015.6 |
| 20260831164308 | 23 | 253 | 14.5 | 24.1 | 0.00 | 0.36 | 0.36 | 44 | 1015.6 |
| 20260831164302 | 22 | 259 | 14.5 | 24.1 | 0.00 | 0.36 | 0.36 | 44 | 1015.6 |
| 20260831164202 | 23 | 238 | 16.1 | 24.1 | 0.00 | 0.36 | 0.36 | 44 | 1015.6 |
| 20260831164102 | 23 | 265 | 16.1 | 29.0 | 0.00 | 0.36 | 0.36 | 43 | 1015.7 |
| 20260831164002 | 23 | 251 | 16.1 | 29.0 | 0.00 | 0.36 | 0.36 | 43 | 1015.6 |
| 20260831163902 | 23 | 256 | 16.1 | 29.0 | 0.00 | 0.36 | 0.36 | 43 | 1015.6 |
| 20260831163808 | 23 | 250 | 16.1 | 29.0 | 0.00 | 0.36 | 0.36 | 43 | 1015.6 |
| 20260831163800 | 23 | 248 | 16.1 | 29.0 | 0.00 | 0.36 | 0.36 | 43 | 1015.6 |
| 20260831163659 | 23 | 267 | 16.1 | 29.0 | 0.00 | 0.36 | 0.36 | 42 | 1015.6 |
| 20260831163559 | 23 | 278 | 17.7 | 29.0 | 0.00 | 0.36 | 0.36 | 43 | 1015.6 |
| 20260831163459 | 23 | 267 | 17.7 | 29.0 | 0.00 | 0.36 | 0.36 | 42 | 1015.6 |
| 20260831163359 | 23 | 260 | 17.7 | 29.0 | 0.00 | 0.36 | 0.36 | 42 | 1015.6 |
| 20260831163307 | 23 | 263 | 17.7 | 29.0 | 0.00 | 0.36 | 0.36 | 42 | 1015.6 |
| 20260831163258 | 23 | 279 | 17.7 | 29.0 | 0.00 | 0.36 | 0.36 | 42 | 1015.6 |
| 20260831163158 | 23 | 293 | 16.1 | 29.0 | 0.00 | 0.36 | 0.36 | 42 | 1015.7 |
| 20260831163058 | 23 | 285 | 16.1 | 27.4 | 0.00 | 0.36 | 0.36 | 42 | 1015.7 |
| 20260831162958 | 23 | 250 | 14.5 | 27.4 | 0.00 | 0.36 | 0.36 | 42 | 1015.6 |
| 20260831162858 | 23 | 219 | 14.5 | 27.4 | 0.00 | 0.36 | 0.36 | 43 | 1015.6 |
| 20260831162808 | 23 | 298 | 14.5 | 27.4 | 0.00 | 0.36 | 0.36 | 42 | 1015.5 |
| 20260831162758 | 23 | 248 | 14.5 | 27.4 | 0.00 | 0.36 | 0.36 | 42 | 1015.5 |
| 20260831162658 | 23 | 271 | 14.5 | 27.4 | 0.00 | 0.36 | 0.36 | 42 | 1015.6 |
| 20260831162557 | 23 | 247 | 12.9 | 27.4 | 0.00 | 0.36 | 0.36 | 43 | 1015.6 |
| 20260831162457 | 23 | 267 | 12.9 | 24.1 | 0.00 | 0.36 | 0.36 | 44 | 1015.5 |
| 20260831162353 | 23 | 243 | 12.9 | 25.7 | 0.00 | 0.36 | 0.36 | 44 | 1015.5 |
| 20260831162308 | 23 | 253 | 12.9 | 25.7 | 0.00 | 0.36 | 0.36 | 44 | 1015.5 |
| 20260831162251 | 23 | 250 | 12.9 | 25.7 | 0.00 | 0.36 | 0.36 | 44 | 1015.5 |
| 20260831162151 | 23 | 249 | 14.5 | 25.7 | 0.00 | 0.36 | 0.36 | 43 | 1015.5 |
| 20260831162052 | 23 | 270 | 14.5 | 25.7 | 0.00 | 0.36 | 0.36 | 44 | 1015.6 |
| 20260831161952 | 23 | 252 | 14.5 | 25.7 | 0.00 | 0.36 | 0.36 | 43 | 1015.6 |
| 20260831161851 | 23 | 257 | 14.5 | 25.7 | 0.00 | 0.36 | 0.36 | 43 | 1015.6 |
| 20260831161807 | 23 | 281 | 16.1 | 25.7 | 0.00 | 0.36 | 0.36 | 42 | 1015.6 |
| 20260831161750 | 23 | 230 | 16.1 | 25.7 | 0.00 | 0.36 | 0.36 | 42 | 1015.6 |
| 20260831161650 | 23 | 283 | 16.1 | 25.7 | 0.00 | 0.36 | 0.36 | 42 | 1015.6 |
| 20260831161550 | 23 | 284 | 16.1 | 25.7 | 0.00 | 0.36 | 0.36 | 42 | 1015.5 |
| 20260831161450 | 23 | 298 | 16.1 | 25.7 | 0.00 | 0.36 | 0.36 | 42 | 1015.6 |
| 20260831161350 | 23 | 269 | 17.7 | 32.2 | 0.00 | 0.36 | 0.36 | 42 | 1015.6 |
| 20260831161304 | 23 | 274 | 17.7 | 32.2 | 0.00 | 0.36 | 0.36 | 41 | 1015.6 |
| 20260831161249 | 23 | 263 | 17.7 | 32.2 | 0.00 | 0.36 | 0.36 | 41 | 1015.6 |
| 20260831161147 | 23 | 262 | 16.1 | 32.2 | 0.00 | 0.36 | 0.36 | 42 | 1015.6 |
| 20260831161049 | 23 | 273 | 17.7 | 32.2 | 0.00 | 0.36 | 0.36 | 42 | 1015.6 |
| 20260831160948 | 23 | 267 | 17.7 | 32.2 | 0.00 | 0.36 | 0.36 | 42 | 1015.6 |
| 20260831160848 | 23 | 239 | 17.7 | 32.2 | 0.00 | 0.36 | 0.36 | 41 | 1015.6 |
| 20260831160803 | 23 | 254 | 17.7 | 32.2 | 0.00 | 0.36 | 0.36 | 41 | 1015.6 |
| 20260831160748 | 23 | 262 | 17.7 | 32.2 | 0.00 | 0.36 | 0.36 | 41 | 1015.6 |
| 20260831160646 | 23 | 273 | 17.7 | 32.2 | 0.00 | 0.36 | 0.36 | 41 | 1015.6 |
| 20260831160546 | 23 | 262 | 17.7 | 32.2 | 0.00 | 0.36 | 0.36 | 41 | 1015.6 |
| 20260831160447 | 23 | 286 | 17.7 | 32.2 | 0.00 | 0.36 | 0.36 | 41 | 1015.6 |
| 20260831160346 | 23 | 288 | 17.7 | 29.0 | 0.00 | 0.36 | 0.36 | 41 | 1015.6 |
| 20260831160304 | 23 | 258 | 19.3 | 30.6 | 0.00 | 0.36 | 0.36 | 41 | 1015.5 |
| 20260831160245 | 23 | 252 | 19.3 | 30.6 | 0.00 | 0.36 | 0.36 | 41 | 1015.5 |
| 20260831160139 | 23 | 263 | 19.3 | 30.6 | 0.00 | 0.36 | 0.36 | 41 | 1015.5 |
| 20260831160040 | 23 | 277 | 19.3 | 30.6 | 0.00 | 0.36 | 0.36 | 41 | 1015.7 |
| 20260831155940 | 23 | 234 | 19.3 | 30.6 | 0.00 | 0.36 | 0.36 | 41 | 1015.6 |
| 20260831155839 | 23 | 258 | 19.3 | 30.6 | 0.00 | 0.36 | 0.36 | 41 | 1015.5 |
| 20260831155803 | 23 | 296 | 19.3 | 30.6 | 0.00 | 0.36 | 0.36 | 41 | 1015.5 |
| 20260831155740 | 23 | 229 | 19.3 | 30.6 | 0.00 | 0.36 | 0.36 | 41 | 1015.5 |
| 20260831155634 | 23 | 259 | 17.7 | 30.6 | 0.00 | 0.36 | 0.36 | 41 | 1015.5 |
| 20260831155533 | 23 | 271 | 17.7 | 30.6 | 0.00 | 0.36 | 0.36 | 40 | 1015.5 |
| 20260831155433 | 23 | 257 | 17.7 | 30.6 | 0.00 | 0.36 | 0.36 | 39 | 1015.6 |
| 20260831155334 | 23 | 280 | 16.1 | 27.4 | 0.00 | 0.36 | 0.36 | 40 | 1015.4 |
| 20260831155306 | 23 | 261 | 16.1 | 27.4 | 0.00 | 0.36 | 0.36 | 40 | 1015.6 |
| 20260831155233 | 23 | 268 | 16.1 | 27.4 | 0.00 | 0.36 | 0.36 | 41 | 1015.6 |
| 20260831155133 | 23 | 259 | 16.1 | 25.7 | 0.00 | 0.36 | 0.36 | 40 | 1015.5 |
| 20260831155033 | 23 | 248 | 16.1 | 25.7 | 0.00 | 0.36 | 0.36 | 41 | 1015.5 |
| 20260831154932 | 23 | 298 | 16.1 | 25.7 | 0.00 | 0.36 | 0.36 | 40 | 1015.4 |
| 20260831154831 | 23 | 265 | 14.5 | 25.7 | 0.00 | 0.36 | 0.36 | 41 | 1015.5 |
| 20260831154804 | 23 | 257 | 14.5 | 25.7 | 0.00 | 0.36 | 0.36 | 41 | 1015.4 |
| 20260831154732 | 23 | 282 | 14.5 | 25.7 | 0.00 | 0.36 | 0.36 | 41 | 1015.4 |
| 20260831154632 | 23 | 263 | 14.5 | 25.7 | 0.00 | 0.36 | 0.36 | 41 | 1015.3 |
| 20260831154532 | 23 | 270 | 14.5 | 24.1 | 0.00 | 0.36 | 0.36 | 41 | 1015.3 |
| 20260831154430 | 23 | 252 | 14.5 | 24.1 | 0.00 | 0.36 | 0.36 | 41 | 1015.4 |
| 20260831154330 | 23 | 253 | 14.5 | 24.1 | 0.00 | 0.36 | 0.36 | 40 | 1015.4 |
| 20260831154303 | 23 | 265 | 14.5 | 24.1 | 0.00 | 0.36 | 0.36 | 42 | 1015.4 |
| 20260831154230 | 23 | 268 | 14.5 | 24.1 | 0.00 | 0.36 | 0.36 | 42 | 1015.4 |
| 20260831154130 | 23 | 248 | 12.9 | 24.1 | 0.00 | 0.36 | 0.36 | 43 | 1015.4 |
| 20260831154029 | 23 | 276 | 12.9 | 24.1 | 0.00 | 0.36 | 0.36 | 43 | 1015.4 |
| 20260831153925 | 23 | 267 | 12.9 | 24.1 | 0.00 | 0.36 | 0.36 | 44 | 1015.4 |
| 20260831153825 | 23 | 299 | 12.9 | 24.1 | 0.00 | 0.36 | 0.36 | 45 | 1015.4 |
| 20260831153804 | 23 | 250 | 12.9 | 24.1 | 0.00 | 0.36 | 0.36 | 44 | 1015.4 |
| 20260831153725 | 23 | 257 | 12.9 | 24.1 | 0.00 | 0.36 | 0.36 | 44 | 1015.4 |
| 20260831153626 | 23 | 263 | 12.9 | 24.1 | 0.00 | 0.36 | 0.36 | 44 | 1015.4 |
| 20260831153535 | 23 | 282 | 12.9 | 22.5 | 0.00 | 0.36 | 0.36 | 44 | 1015.4 |
| 20260831153529 | 23 | 223 | 12.9 | 22.5 | 0.00 | 0.36 | 0.36 | 45 | 1015.4 |
| 20260831153525 | 23 | 243 | 12.9 | 22.5 | 0.00 | 0.36 | 0.36 | 43 | 1015.4 |
| 20260831153517 | 23 | 254 | 12.9 | 22.5 | 0.00 | 0.36 | 0.36 | 44 | 1015.4 |
| 20260831153223 | 23 | 229 | 12.9 | 22.5 | 0.00 | 0.36 | 0.36 | 44 | 1015.4 |
| 20260831153124 | 23 | 253 | 14.5 | 24.1 | 0.00 | 0.36 | 0.36 | 45 | 1015.4 |
| 20260831153024 | 23 | 230 | 14.5 | 24.1 | 0.00 | 0.36 | 0.36 | 44 | 1015.4 |
| 20260831152924 | 23 | 268 | 14.5 | 24.1 | 0.00 | 0.36 | 0.36 | 44 | 1015.4 |
| 20260831152823 | 23 | 210 | 14.5 | 24.1 | 0.00 | 0.36 | 0.36 | 45 | 1015.4 |
| 20260831152802 | 23 | 275 | 16.1 | 38.6 | 0.00 | 0.36 | 0.36 | 45 | 1015.4 |
| 20260831152724 | 23 | 237 | 16.1 | 38.6 | 0.00 | 0.36 | 0.36 | 44 | 1015.4 |
| 20260831152624 | 23 | 225 | 16.1 | 38.6 | 0.00 | 0.36 | 0.36 | 43 | 1015.5 |
| 20260831152524 | 23 | 254 | 16.1 | 38.6 | 0.00 | 0.36 | 0.36 | 42 | 1015.4 |
| 20260831152424 | 23 | 278 | 16.1 | 38.6 | 0.00 | 0.36 | 0.36 | 42 | 1015.4 |
| 20260831152324 | 23 | 246 | 16.1 | 38.6 | 0.00 | 0.36 | 0.36 | 41 | 1015.5 |
| 20260831152301 | 23 | 254 | 16.1 | 38.6 | 0.00 | 0.36 | 0.36 | 41 | 1015.5 |
| 20260831152220 | 23 | 267 | 17.7 | 38.6 | 0.00 | 0.36 | 0.36 | 41 | 1015.5 |
| 20260831152120 | 23 | 273 | 17.7 | 38.6 | 0.00 | 0.36 | 0.36 | 42 | 1015.5 |
| 20260831152019 | 23 | 281 | 17.7 | 38.6 | 0.00 | 0.36 | 0.36 | 42 | 1015.4 |
| 20260831151919 | 23 | 280 | 17.7 | 38.6 | 0.00 | 0.36 | 0.36 | 42 | 1015.6 |
| 20260831151820 | 23 | 245 | 16.1 | 38.6 | 0.00 | 0.36 | 0.36 | 43 | 1015.5 |
| 20260831151801 | 23 | 211 | 16.1 | 33.8 | 0.00 | 0.36 | 0.36 | 43 | 1015.5 |
| 20260831151719 | 23 | 266 | 17.7 | 33.8 | 0.00 | 0.36 | 0.36 | 42 | 1015.6 |
| 20260831151619 | 23 | 255 | 17.7 | 33.8 | 0.00 | 0.36 | 0.36 | 41 | 1015.5 |
| 20260831151519 | 23 | 259 | 17.7 | 33.8 | 0.00 | 0.36 | 0.36 | 43 | 1015.5 |
| 20260831151419 | 23 | 240 | 17.7 | 33.8 | 0.00 | 0.36 | 0.36 | 42 | 1015.5 |
| 20260831151320 | 23 | 257 | 17.7 | 33.8 | 0.00 | 0.36 | 0.36 | 43 | 1015.6 |
| 20260831151302 | 23 | 265 | 17.7 | 33.8 | 0.00 | 0.36 | 0.36 | 43 | 1015.6 |
| 20260831151218 | 23 | 254 | 16.1 | 29.0 | 0.00 | 0.36 | 0.36 | 43 | 1015.7 |
| 20260831151118 | 23 | 274 | 16.1 | 27.4 | 0.00 | 0.36 | 0.36 | 43 | 1015.7 |
| 20260831151011 | 23 | 299 | 16.1 | 25.7 | 0.00 | 0.36 | 0.36 | 44 | 1015.5 |
| 20260831150911 | 23 | 257 | 16.1 | 25.7 | 0.00 | 0.36 | 0.36 | 43 | 1015.6 |
| 20260831150811 | 23 | 257 | 16.1 | 29.0 | 0.00 | 0.36 | 0.36 | 43 | 1015.6 |
| 20260831150801 | 23 | 273 | 16.1 | 29.0 | 0.00 | 0.36 | 0.36 | 43 | 1015.6 |
| 20260831150712 | 23 | 269 | 16.1 | 29.0 | 0.00 | 0.36 | 0.36 | 43 | 1015.6 |
| 20260831150612 | 23 | 244 | 17.7 | 29.0 | 0.00 | 0.36 | 0.36 | 44 | 1015.5 |
| 20260831150512 | 23 | 244 | 17.7 | 29.0 | 0.00 | 0.36 | 0.36 | 44 | 1015.5 |
| 20260831150412 | 23 | 264 | 17.7 | 29.0 | 0.00 | 0.36 | 0.36 | 42 | 1015.5 |
| 20260831150312 | 23 | 259 | 17.7 | 29.0 | 0.00 | 0.36 | 0.36 | 43 | 1015.5 |
| 20260831150301 | 23 | 276 | 17.7 | 29.0 | 0.00 | 0.36 | 0.36 | 43 | 1015.5 |
| 20260831150212 | 23 | 252 | 16.1 | 29.0 | 0.00 | 0.36 | 0.36 | 42 | 1015.5 |
| 20260831150112 | 23 | 259 | 16.1 | 29.0 | 0.00 | 0.36 | 0.36 | 42 | 1015.5 |
| 20260831150029 | 23 | 252 | 16.1 | 29.0 | 0.00 | 0.36 | 0.36 | 41 | 1015.6 |
| 20260831150025 | 23 | 240 | 16.1 | 29.0 | 0.00 | 0.36 | 0.36 | 42 | 1015.6 |
| 20260831150021 | 23 | 263 | 16.1 | 29.0 | 0.00 | 0.36 | 0.36 | 42 | 1015.6 |
| 20260831150012 | 23 | 261 | 16.1 | 29.0 | 0.00 | 0.36 | 0.36 | 41 | 1015.6 |
| 20260831145708 | 23 | 202 | 16.1 | 29.0 | 0.00 | 0.36 | 0.36 | 41 | 1015.7 |
| 20260831145608 | 23 | 247 | 14.5 | 29.0 | 0.00 | 0.36 | 0.36 | 42 | 1015.8 |
| 20260831145507 | 24 | 248 | 14.5 | 29.0 | 0.00 | 0.36 | 0.36 | 42 | 1015.6 |
| 20260831145407 | 24 | 271 | 12.9 | 29.0 | 0.00 | 0.36 | 0.36 | 43 | 1015.7 |
| 20260831145307 | 24 | 277 | 12.9 | 29.0 | 0.00 | 0.36 | 0.36 | 45 | 1015.6 |
| 20260831145300 | 24 | 236 | 12.9 | 29.0 | 0.00 | 0.36 | 0.36 | 44 | 1015.6 |
| 20260831145207 | 24 | 272 | 12.9 | 29.0 | 0.00 | 0.36 | 0.36 | 44 | 1015.7 |
| 20260831145107 | 24 | 252 | 12.9 | 29.0 | 0.00 | 0.36 | 0.36 | 43 | 1015.7 |
| 20260831145008 | 24 | 274 | 14.5 | 29.0 | 0.00 | 0.36 | 0.36 | 44 | 1015.6 |
| 20260831144908 | 24 | 292 | 12.9 | 29.0 | 0.00 | 0.36 | 0.36 | 44 | 1015.7 |
| 20260831144808 | 24 | 261 | 12.9 | 24.1 | 0.00 | 0.36 | 0.36 | 46 | 1015.7 |
| 20260831144801 | 24 | 280 | 12.9 | 24.1 | 0.00 | 0.36 | 0.36 | 46 | 1015.7 |
| 20260831144708 | 24 | 242 | 12.9 | 24.1 | 0.00 | 0.36 | 0.36 | 45 | 1015.6 |
| 20260831144608 | 24 | 263 | 12.9 | 24.1 | 0.00 | 0.36 | 0.36 | 47 | 1015.6 |
| 20260831144530 | 24 | 273 | 14.5 | 24.1 | 0.00 | 0.36 | 0.36 | 46 | 1015.7 |
| 20260831144525 | 24 | 292 | 12.9 | 24.1 | 0.00 | 0.36 | 0.36 | 47 | 1015.6 |
| 20260831144521 | 24 | 279 | 14.5 | 24.1 | 0.00 | 0.36 | 0.36 | 47 | 1015.6 |
| 20260831144513 | 24 | 242 | 14.5 | 24.1 | 0.00 | 0.36 | 0.36 | 46 | 1015.7 |
| 20260831144207 | 24 | 288 | 14.5 | 24.1 | 0.00 | 0.36 | 0.36 | 46 | 1015.6 |
| 20260831144107 | 24 | 229 | 16.1 | 24.1 | 0.00 | 0.36 | 0.36 | 45 | 1015.6 |
| 20260831144008 | 24 | 248 | 16.1 | 24.1 | 0.00 | 0.36 | 0.36 | 46 | 1015.6 |
| 20260831143904 | 24 | 304 | 14.5 | 25.7 | 0.00 | 0.36 | 0.36 | 45 | 1015.6 |
| 20260831143805 | 24 | 288 | 14.5 | 25.7 | 0.00 | 0.36 | 0.36 | 46 | 1015.6 |
| 20260831143801 | 24 | 281 | 14.5 | 25.7 | 0.00 | 0.36 | 0.36 | 46 | 1015.6 |
| 20260831143704 | 24 | 294 | 16.1 | 25.7 | 0.00 | 0.36 | 0.36 | 46 | 1015.6 |
| 20260831143604 | 24 | 273 | 14.5 | 25.7 | 0.00 | 0.36 | 0.36 | 45 | 1015.7 |
| 20260831143503 | 24 | 227 | 16.1 | 25.7 | 0.00 | 0.36 | 0.36 | 44 | 1015.6 |
| 20260831143403 | 24 | 256 | 16.1 | 25.7 | 0.00 | 0.36 | 0.36 | 43 | 1015.6 |
| 20260831143306 | 24 | 231 | 16.1 | 25.7 | 0.00 | 0.36 | 0.36 | 44 | 1015.6 |
| 20260831143301 | 24 | 266 | 16.1 | 25.7 | 0.00 | 0.36 | 0.36 | 44 | 1015.6 |
| 20260831143203 | 25 | 261 | 16.1 | 25.7 | 0.00 | 0.36 | 0.36 | 44 | 1015.6 |
| 20260831143103 | 25 | 254 | 14.5 | 25.7 | 0.00 | 0.36 | 0.36 | 44 | 1015.7 |
| 20260831143003 | 25 | 254 | 14.5 | 25.7 | 0.00 | 0.36 | 0.36 | 44 | 1015.6 |
| 20260831142903 | 25 | 205 | 16.1 | 25.7 | 0.00 | 0.36 | 0.36 | 45 | 1015.7 |
| 20260831142805 | 25 | 280 | 14.5 | 25.7 | 0.00 | 0.36 | 0.36 | 45 | 1015.7 |
| 20260831142800 | 25 | 261 | 14.5 | 25.7 | 0.00 | 0.36 | 0.36 | 45 | 1015.7 |
| 20260831142703 | 25 | 215 | 14.5 | 25.7 | 0.00 | 0.36 | 0.36 | 45 | 1015.7 |
| 20260831142603 | 25 | 266 | 16.1 | 25.7 | 0.00 | 0.36 | 0.36 | 45 | 1015.7 |
| 20260831142503 | 24 | 261 | 14.5 | 25.7 | 0.00 | 0.36 | 0.36 | 46 | 1015.7 |
| 20260831142403 | 24 | 265 | 14.5 | 25.7 | 0.00 | 0.36 | 0.36 | 46 | 1015.7 |
| 20260831142306 | 24 | 336 | 14.5 | 24.1 | 0.00 | 0.36 | 0.36 | 45 | 1015.7 |
| 20260831142301 | 24 | 304 | 14.5 | 24.1 | 0.00 | 0.36 | 0.36 | 45 | 1015.7 |
| 20260831142203 | 24 | 284 | 14.5 | 24.1 | 0.00 | 0.36 | 0.36 | 46 | 1015.7 |
| 20260831142103 | 24 | 275 | 14.5 | 25.7 | 0.00 | 0.36 | 0.36 | 45 | 1015.7 |
| 20260831142003 | 24 | 275 | 14.5 | 25.7 | 0.00 | 0.36 | 0.36 | 45 | 1015.7 |
| 20260831141903 | 24 | 248 | 14.5 | 25.7 | 0.00 | 0.36 | 0.36 | 46 | 1015.7 |
| 20260831141805 | 24 | 218 | 14.5 | 25.7 | 0.00 | 0.36 | 0.36 | 46 | 1015.7 |
| 20260831141801 | 24 | 217 | 14.5 | 25.7 | 0.00 | 0.36 | 0.36 | 46 | 1015.7 |
| 20260831141704 | 24 | 281 | 14.5 | 25.7 | 0.00 | 0.36 | 0.36 | 46 | 1015.7 |
| 20260831141604 | 24 | 251 | 14.5 | 25.7 | 0.00 | 0.36 | 0.36 | 47 | 1015.7 |
| 20260831141502 | 24 | 260 | 14.5 | 25.7 | 0.00 | 0.36 | 0.36 | 47 | 1015.7 |
| 20260831141402 | 24 | 236 | 14.5 | 25.7 | 0.00 | 0.36 | 0.36 | 46 | 1015.7 |
| 20260831141303 | 24 | 296 | 14.5 | 25.7 | 0.00 | 0.36 | 0.36 | 46 | 1015.6 |
| 20260831141201 | 24 | 288 | 12.9 | 29.0 | 0.00 | 0.36 | 0.36 | 47 | 1015.7 |
| 20260831141101 | 24 | 296 | 14.5 | 29.0 | 0.00 | 0.36 | 0.36 | 48 | 1015.7 |
| 20260831141001 | 24 | 321 | 14.5 | 29.0 | 0.00 | 0.36 | 0.36 | 48 | 1015.7 |
| 20260831140901 | 24 | 291 | 14.5 | 29.0 | 0.00 | 0.36 | 0.36 | 47 | 1015.7 |
| 20260831140801 | 24 | 275 | 14.5 | 29.0 | 0.00 | 0.36 | 0.36 | 48 | 1015.7 |
| 20260831140701 | 24 | 334 | 14.5 | 29.0 | 0.00 | 0.36 | 0.36 | 46 | 1015.7 |
| 20260831140601 | 24 | 261 | 12.9 | 29.0 | 0.00 | 0.36 | 0.36 | 47 | 1015.7 |
| 20260831140501 | 24 | 290 | 14.5 | 29.0 | 0.00 | 0.36 | 0.36 | 46 | 1015.7 |
| 20260831140401 | 24 | 277 | 14.5 | 29.0 | 0.00 | 0.36 | 0.36 | 46 | 1015.7 |
| 20260831140301 | 24 | 289 | 14.5 | 29.0 | 0.00 | 0.36 | 0.36 | 47 | 1015.7 |
| 20260831140201 | 24 | 245 | 14.5 | 22.5 | 0.00 | 0.36 | 0.36 | 47 | 1015.7 |
| 20260831140101 | 24 | 266 | 14.5 | 24.1 | 0.00 | 0.36 | 0.36 | 48 | 1015.7 |
| 20260831140001 | 24 | 264 | 14.5 | 24.1 | 0.00 | 0.36 | 0.36 | 47 | 1015.7 |
| 20260831135900 | 24 | 267 | 14.5 | 24.1 | 0.00 | 0.36 | 0.36 | 47 | 1015.7 |
| 20260831135800 | 24 | 259 | 14.5 | 24.1 | 0.00 | 0.36 | 0.36 | 48 | 1015.7 |
| 20260831135700 | 24 | 250 | 16.1 | 32.2 | 0.00 | 0.36 | 0.36 | 49 | 1015.6 |
| 20260831135600 | 24 | 221 | 16.1 | 32.2 | 0.00 | 0.36 | 0.36 | 47 | 1015.6 |
| 20260831135501 | 24 | 271 | 16.1 | 32.2 | 0.00 | 0.36 | 0.36 | 46 | 1015.6 |
| 20260831135401 | 24 | 294 | 16.1 | 32.2 | 0.00 | 0.36 | 0.36 | 46 | 1015.7 |
| 20260831135301 | 24 | 295 | 16.1 | 32.2 | 0.00 | 0.36 | 0.36 | 47 | 1015.6 |
| 20260831135201 | 24 | 294 | 16.1 | 32.2 | 0.00 | 0.36 | 0.36 | 47 | 1015.6 |
| 20260831135101 | 24 | 250 | 17.7 | 32.2 | 0.00 | 0.36 | 0.36 | 46 | 1015.6 |
| 20260831135001 | 24 | 257 | 17.7 | 32.2 | 0.00 | 0.36 | 0.36 | 46 | 1015.7 |
| 20260831134901 | 24 | 253 | 17.7 | 32.2 | 0.00 | 0.36 | 0.36 | 46 | 1015.6 |
| 20260831134801 | 24 | 291 | 17.7 | 32.2 | 0.00 | 0.36 | 0.36 | 47 | 1015.7 |
| 20260831134701 | 24 | 281 | 17.7 | 29.0 | 0.00 | 0.36 | 0.36 | 47 | 1015.7 |
| 20260831134601 | 24 | 242 | 17.7 | 29.0 | 0.00 | 0.36 | 0.36 | 47 | 1015.6 |
| 20260831134501 | 24 | 264 | 17.7 | 29.0 | 0.00 | 0.36 | 0.36 | 46 | 1015.6 |
| 20260831134402 | 24 | 280 | 17.7 | 29.0 | 0.00 | 0.36 | 0.36 | 47 | 1015.7 |
| 20260831134305 | 24 | 304 | 17.7 | 29.0 | 0.00 | 0.36 | 0.36 | 47 | 1015.8 |
| 20260831134202 | 24 | 274 | 17.7 | 30.6 | 0.00 | 0.36 | 0.36 | 46 | 1015.8 |
| 20260831134102 | 24 | 276 | 17.7 | 35.4 | 0.00 | 0.36 | 0.36 | 47 | 1015.8 |
| 20260831134001 | 24 | 261 | 17.7 | 35.4 | 0.00 | 0.36 | 0.36 | 48 | 1015.7 |
| 20260831133901 | 24 | 250 | 17.7 | 35.4 | 0.00 | 0.36 | 0.36 | 47 | 1015.8 |
| 20260831133802 | 24 | 256 | 17.7 | 35.4 | 0.00 | 0.36 | 0.36 | 47 | 1015.8 |
| 20260831133701 | 24 | 290 | 16.1 | 35.4 | 0.00 | 0.36 | 0.36 | 48 | 1015.8 |
| 20260831133601 | 24 | 280 | 16.1 | 35.4 | 0.00 | 0.36 | 0.36 | 46 | 1015.8 |
| 20260831133501 | 24 | 223 | 16.1 | 35.4 | 0.00 | 0.36 | 0.36 | 46 | 1015.8 |
| 20260831133401 | 24 | 277 | 16.1 | 35.4 | 0.00 | 0.36 | 0.36 | 47 | 1015.8 |
| 20260831133301 | 24 | 233 | 16.1 | 35.4 | 0.00 | 0.36 | 0.36 | 46 | 1016.0 |
| 20260831133201 | 24 | 261 | 16.1 | 35.4 | 0.00 | 0.36 | 0.36 | 46 | 1016.2 |
| 20260831133101 | 24 | 269 | 14.5 | 27.4 | 0.00 | 0.36 | 0.36 | 47 | 1015.8 |
| 20260831133021 | 23 | 283 | 16.1 | 27.4 | 0.00 | 0.36 | 0.36 | 47 | 1015.8 |
| 20260831133017 | 23 | 243 | 16.1 | 32.2 | 0.00 | 0.36 | 0.36 | 46 | 1015.8 |
| 20260831133013 | 23 | 245 | 16.1 | 32.2 | 0.00 | 0.36 | 0.36 | 48 | 1015.8 |
| 20260831132701 | 23 | 267 | 17.7 | 32.2 | 0.00 | 0.36 | 0.36 | 48 | 1015.8 |
| 20260831132602 | 23 | 265 | 17.7 | 32.2 | 0.00 | 0.36 | 0.36 | 47 | 1015.8 |
| 20260831132501 | 23 | 262 | 17.7 | 32.2 | 0.00 | 0.36 | 0.36 | 48 | 1016.0 |
| 20260831132401 | 23 | 239 | 19.3 | 32.2 | 0.00 | 0.36 | 0.36 | 47 | 1016.0 |
| 20260831132301 | 23 | 250 | 19.3 | 32.2 | 0.00 | 0.36 | 0.36 | 47 | 1016.0 |
| 20260831132201 | 23 | 208 | 19.3 | 32.2 | 0.00 | 0.36 | 0.36 | 46 | 1015.8 |
| 20260831132101 | 23 | 281 | 19.3 | 32.2 | 0.00 | 0.36 | 0.36 | 46 | 1016.0 |
| 20260831132000 | 23 | 246 | 19.3 | 32.2 | 0.00 | 0.36 | 0.36 | 46 | 1016.0 |
| 20260831131900 | 23 | 284 | 19.3 | 30.6 | 0.00 | 0.36 | 0.36 | 45 | 1016.0 |
| 20260831131800 | 23 | 292 | 17.7 | 30.6 | 0.00 | 0.36 | 0.36 | 46 | 1016.1 |
| 20260831131700 | 23 | 243 | 17.7 | 29.0 | 0.00 | 0.36 | 0.36 | 46 | 1016.0 |
| 20260831131600 | 23 | 269 | 17.7 | 29.0 | 0.00 | 0.36 | 0.36 | 46 | 1015.8 |
| 20260831131501 | 23 | 236 | 17.7 | 29.0 | 0.00 | 0.36 | 0.36 | 45 | 1016.0 |
| 20260831131401 | 23 | 271 | 17.7 | 29.0 | 0.00 | 0.36 | 0.36 | 45 | 1016.0 |
| 20260831131301 | 23 | 268 | 16.1 | 29.0 | 0.00 | 0.36 | 0.36 | 47 | 1016.0 |
| 20260831131201 | 23 | 260 | 16.1 | 29.0 | 0.00 | 0.36 | 0.36 | 46 | 1016.0 |
| 20260831131101 | 23 | 221 | 16.1 | 25.7 | 0.00 | 0.36 | 0.36 | 47 | 1015.8 |
| 20260831131019 | 23 | 231 | 16.1 | 32.2 | 0.00 | 0.36 | 0.36 | 47 | 1016.0 |
| 20260831131015 | 23 | 236 | 17.7 | 32.2 | 0.00 | 0.36 | 0.36 | 46 | 1016.0 |
| 20260831131011 | 23 | 242 | 17.7 | 32.2 | 0.00 | 0.36 | 0.36 | 46 | 1016.0 |
| 20260831130702 | 23 | 254 | 17.7 | 32.2 | 0.00 | 0.36 | 0.36 | 45 | 1016.0 |
| 20260831130601 | 23 | 286 | 17.7 | 32.2 | 0.00 | 0.36 | 0.36 | 46 | 1016.1 |
| 20260831130501 | 23 | 283 | 17.7 | 32.2 | 0.00 | 0.36 | 0.36 | 46 | 1016.0 |
| 20260831130401 | 23 | 265 | 17.7 | 32.2 | 0.00 | 0.36 | 0.36 | 45 | 1015.8 |
| 20260831130301 | 23 | 253 | 17.7 | 32.2 | 0.00 | 0.36 | 0.36 | 45 | 1016.0 |
| 20260831130231 | 23 | 267 | 17.7 | 32.2 | 0.00 | 0.36 | 0.36 | 46 | 1016.0 |
| 20260831130101 | 23 | 254 | 16.1 | 32.2 | 0.00 | 0.36 | 0.36 | 46 | 1016.1 |
| 20260831130021 | 23 | 270 | 16.1 | 32.2 | 0.00 | 0.36 | 0.36 | 46 | 1016.0 |
| 20260831130017 | 23 | 267 | 16.1 | 32.2 | 0.00 | 0.36 | 0.36 | 45 | 1016.1 |
| 20260831130013 | 23 | 257 | 14.5 | 32.2 | 0.00 | 0.36 | 0.36 | 46 | 1015.8 |
| 20260831125701 | 23 | 255 | 14.5 | 32.2 | 0.00 | 0.36 | 0.36 | 48 | 1016.0 |
| 20260831125601 | 23 | 261 | 14.5 | 32.2 | 0.00 | 0.36 | 0.36 | 46 | 1016.0 |
| 20260831125501 | 23 | 257 | 12.9 | 32.2 | 0.00 | 0.36 | 0.36 | 48 | 1016.0 |
| 20260831125400 | 23 | 267 | 14.5 | 24.1 | 0.00 | 0.36 | 0.36 | 49 | 1016.0 |
| 20260831125301 | 23 | 269 | 12.9 | 24.1 | 0.00 | 0.36 | 0.36 | 48 | 1016.0 |
| 20260831125200 | 23 | 316 | 14.5 | 24.1 | 0.00 | 0.36 | 0.36 | 48 | 1015.8 |
| 20260831125102 | 23 | 279 | 14.5 | 32.2 | 0.00 | 0.36 | 0.36 | 49 | 1016.0 |
| 20260831125001 | 23 | 265 | 14.5 | 32.2 | 0.00 | 0.36 | 0.36 | 48 | 1016.0 |
| 20260831124901 | 23 | 276 | 14.5 | 32.2 | 0.00 | 0.36 | 0.36 | 49 | 1016.0 |
| 20260831124800 | 23 | 219 | 14.5 | 32.2 | 0.00 | 0.36 | 0.36 | 49 | 1016.1 |
| 20260831124701 | 23 | 291 | 16.1 | 32.2 | 0.00 | 0.36 | 0.36 | 49 | 1016.0 |
| 20260831124601 | 23 | 239 | 16.1 | 32.2 | 0.00 | 0.36 | 0.36 | 48 | 1016.0 |
| 20260831124501 | 23 | 213 | 16.1 | 32.2 | 0.00 | 0.36 | 0.36 | 49 | 1016.0 |
| 20260831124401 | 23 | 254 | 16.1 | 32.2 | 0.00 | 0.36 | 0.36 | 49 | 1016.0 |
| 20260831124301 | 23 | 236 | 16.1 | 32.2 | 0.00 | 0.36 | 0.36 | 49 | 1016.0 |
| 20260831124202 | 23 | 271 | 16.1 | 32.2 | 0.00 | 0.36 | 0.36 | 50 | 1016.1 |
| 20260831124103 | 23 | 300 | 16.1 | 27.4 | 0.00 | 0.36 | 0.36 | 51 | 1016.0 |
| 20260831124001 | 23 | 240 | 16.1 | 27.4 | 0.00 | 0.36 | 0.36 | 51 | 1016.1 |
| 20260831123901 | 23 | 266 | 16.1 | 27.4 | 0.00 | 0.36 | 0.36 | 50 | 1016.0 |
| 20260831123801 | 23 | 260 | 16.1 | 27.4 | 0.00 | 0.36 | 0.36 | 48 | 1016.0 |
| 20260831123701 | 23 | 271 | 14.5 | 27.4 | 0.00 | 0.36 | 0.36 | 50 | 1016.1 |
| 20260831123601 | 23 | 214 | 14.5 | 27.4 | 0.00 | 0.36 | 0.36 | 51 | 1016.0 |
| 20260831123501 | 23 | 221 | 14.5 | 27.4 | 0.00 | 0.36 | 0.36 | 52 | 1016.0 |
| 20260831123401 | 23 | 241 | 14.5 | 35.4 | 0.00 | 0.36 | 0.36 | 50 | 1016.0 |
| 20260831123301 | 23 | 279 | 14.5 | 35.4 | 0.00 | 0.36 | 0.36 | 50 | 1016.0 |
| 20260831123201 | 23 | 231 | 14.5 | 35.4 | 0.00 | 0.36 | 0.36 | 51 | 1016.0 |
| 20260831123101 | 23 | 278 | 12.9 | 35.4 | 0.00 | 0.36 | 0.36 | 51 | 1016.1 |
| 20260831123001 | 23 | 218 | 14.5 | 35.4 | 0.00 | 0.36 | 0.36 | 53 | 1016.1 |
| 20260831122900 | 23 | 244 | 14.5 | 35.4 | 0.00 | 0.36 | 0.36 | 54 | 1016.0 |
| 20260831122802 | 23 | 293 | 14.5 | 35.4 | 0.00 | 0.36 | 0.36 | 52 | 1016.0 |
| 20260831122701 | 23 | 306 | 16.1 | 35.4 | 0.00 | 0.36 | 0.36 | 52 | 1016.1 |
| 20260831122601 | 23 | 232 | 16.1 | 35.4 | 0.00 | 0.36 | 0.36 | 52 | 1016.0 |
| 20260831122501 | 23 | 295 | 16.1 | 35.4 | 0.00 | 0.36 | 0.36 | 53 | 1016.0 |
| 20260831122401 | 23 | 213 | 17.7 | 35.4 | 0.00 | 0.36 | 0.36 | 53 | 1016.0 |
| 20260831122301 | 23 | 227 | 17.7 | 35.4 | 0.00 | 0.36 | 0.36 | 53 | 1016.0 |
| 20260831122201 | 23 | 252 | 17.7 | 35.4 | 0.00 | 0.36 | 0.36 | 52 | 1016.1 |
| 20260831122100 | 23 | 233 | 17.7 | 35.4 | 0.00 | 0.36 | 0.36 | 51 | 1016.1 |
| 20260831122000 | 23 | 212 | 17.7 | 35.4 | 0.00 | 0.36 | 0.36 | 52 | 1016.2 |
| 20260831121900 | 23 | 252 | 17.7 | 35.4 | 0.00 | 0.36 | 0.36 | 51 | 1016.1 |
| 20260831121800 | 23 | 246 | 17.7 | 35.4 | 0.00 | 0.36 | 0.36 | 51 | 1016.1 |
| 20260831121700 | 23 | 233 | 17.7 | 35.4 | 0.00 | 0.36 | 0.36 | 50 | 1016.1 |
| 20260831121600 | 23 | 242 | 17.7 | 35.4 | 0.00 | 0.36 | 0.36 | 50 | 1016.3 |
| 20260831121501 | 23 | 210 | 17.7 | 35.4 | 0.00 | 0.36 | 0.36 | 50 | 1016.2 |
| 20260831121401 | 23 | 248 | 17.7 | 33.8 | 0.00 | 0.36 | 0.36 | 49 | 1016.2 |
| 20260831121302 | 23 | 271 | 17.7 | 33.8 | 0.00 | 0.36 | 0.36 | 50 | 1016.2 |
| 20260831121201 | 23 | 263 | 17.7 | 33.8 | 0.00 | 0.36 | 0.36 | 51 | 1016.0 |
| 20260831121101 | 23 | 292 | 17.7 | 33.8 | 0.00 | 0.36 | 0.36 | 50 | 1016.1 |
| 20260831121002 | 23 | 269 | 17.7 | 33.8 | 0.00 | 0.36 | 0.36 | 51 | 1016.1 |
| 20260831120901 | 23 | 252 | 17.7 | 35.4 | 0.00 | 0.36 | 0.36 | 52 | 1016.1 |
| 20260831120801 | 23 | 242 | 19.3 | 35.4 | 0.00 | 0.36 | 0.36 | 52 | 1016.0 |
| 20260831120701 | 23 | 178 | 19.3 | 35.4 | 0.00 | 0.36 | 0.36 | 52 | 1016.0 |
| 20260831120601 | 23 | 279 | 19.3 | 35.4 | 0.00 | 0.36 | 0.36 | 52 | 1016.2 |
| 20260831120501 | 23 | 263 | 19.3 | 35.4 | 0.00 | 0.36 | 0.36 | 53 | 1016.1 |
| 20260831120401 | 22 | 268 | 19.3 | 35.4 | 0.00 | 0.36 | 0.36 | 52 | 1016.1 |
| 20260831120301 | 22 | 265 | 17.7 | 35.4 | 0.00 | 0.36 | 0.36 | 53 | 1016.1 |
| 20260831120201 | 22 | 240 | 17.7 | 35.4 | 0.00 | 0.36 | 0.36 | 51 | 1016.1 |
| 20260831120100 | 22 | 242 | 17.7 | 35.4 | 0.00 | 0.36 | 0.36 | 50 | 1016.1 |
| 20260831120000 | 22 | 261 | 16.1 | 35.4 | 0.00 | 0.36 | 0.36 | 52 | 1016.2 |
| 20260831115900 | 22 | 279 | 16.1 | 29.0 | 0.00 | 0.36 | 0.36 | 51 | 1016.2 |
| 20260831115801 | 22 | 209 | 16.1 | 29.0 | 0.00 | 0.36 | 0.36 | 55 | 1016.3 |
| 20260831115700 | 22 | 279 | 16.1 | 29.0 | 0.00 | 0.36 | 0.36 | 55 | 1016.2 |
| 20260831115601 | 22 | 208 | 16.1 | 29.0 | 0.00 | 0.36 | 0.36 | 54 | 1016.2 |
| 20260831115501 | 22 | 254 | 16.1 | 29.0 | 0.00 | 0.36 | 0.36 | 54 | 1016.2 |
| 20260831115401 | 22 | 225 | 16.1 | 29.0 | 0.00 | 0.36 | 0.36 | 54 | 1016.2 |
| 20260831115301 | 22 | 229 | 16.1 | 29.0 | 0.00 | 0.36 | 0.36 | 56 | 1016.2 |
| 20260831115201 | 22 | 238 | 16.1 | 29.0 | 0.00 | 0.36 | 0.36 | 55 | 1016.2 |
| 20260831115101 | 22 | 277 | 16.1 | 29.0 | 0.00 | 0.36 | 0.36 | 54 | 1016.2 |
| 20260831115001 | 22 | 226 | 16.1 | 29.0 | 0.00 | 0.36 | 0.36 | 55 | 1016.2 |
| 20260831114901 | 22 | 228 | 16.1 | 29.0 | 0.00 | 0.36 | 0.36 | 53 | 1016.3 |
| 20260831114800 | 22 | 277 | 16.1 | 29.0 | 0.00 | 0.36 | 0.36 | 53 | 1016.3 |
| 20260831114700 | 22 | 269 | 14.5 | 29.0 | 0.00 | 0.36 | 0.36 | 55 | 1016.4 |
| 20260831114600 | 22 | 287 | 14.5 | 27.4 | 0.00 | 0.36 | 0.36 | 54 | 1016.3 |
| 20260831114522 | 22 | 277 | 14.5 | 27.4 | 0.00 | 0.36 | 0.36 | 56 | 1016.3 |
| 20260831114518 | 22 | 268 | 14.5 | 24.1 | 0.00 | 0.36 | 0.36 | 56 | 1016.3 |
| 20260831114514 | 22 | 283 | 14.5 | 24.1 | 0.00 | 0.36 | 0.36 | 58 | 1016.3 |
| 20260831114202 | 22 | 255 | 14.5 | 24.1 | 0.00 | 0.36 | 0.36 | 57 | 1016.3 |
| 20260831114101 | 22 | 292 | 14.5 | 30.6 | 0.00 | 0.36 | 0.36 | 57 | 1016.3 |
| 20260831114001 | 22 | 290 | 16.1 | 30.6 | 0.00 | 0.36 | 0.36 | 59 | 1016.3 |
| 20260831113901 | 22 | 296 | 16.1 | 30.6 | 0.00 | 0.36 | 0.36 | 58 | 1016.3 |
| 20260831113801 | 22 | 288 | 16.1 | 30.6 | 0.00 | 0.36 | 0.36 | 57 | 1016.3 |
| 20260831113701 | 22 | 257 | 17.7 | 30.6 | 0.00 | 0.36 | 0.36 | 58 | 1016.4 |
| 20260831113601 | 22 | 235 | 17.7 | 37.0 | 0.00 | 0.36 | 0.36 | 57 | 1016.4 |
| 20260831113501 | 22 | 235 | 19.3 | 37.0 | 0.00 | 0.36 | 0.36 | 57 | 1016.4 |
| 20260831113401 | 22 | 242 | 19.3 | 37.0 | 0.00 | 0.36 | 0.36 | 58 | 1016.4 |
| 20260831113301 | 22 | 252 | 19.3 | 37.0 | 0.00 | 0.36 | 0.36 | 57 | 1016.4 |
| 20260831113205 | 22 | 238 | 20.9 | 37.0 | 0.00 | 0.36 | 0.36 | 59 | 1016.5 |
| 20260831113101 | 22 | 231 | 20.9 | 37.0 | 0.00 | 0.36 | 0.36 | 58 | 1016.4 |
| 20260831113001 | 22 | 275 | 20.9 | 37.0 | 0.00 | 0.36 | 0.36 | 57 | 1016.4 |
| 20260831112901 | 22 | 250 | 20.9 | 37.0 | 0.00 | 0.36 | 0.36 | 57 | 1016.4 |
| 20260831112800 | 22 | 269 | 19.3 | 37.0 | 0.00 | 0.36 | 0.36 | 55 | 1016.4 |
| 20260831112703 | 22 | 278 | 19.3 | 37.0 | 0.00 | 0.36 | 0.36 | 55 | 1016.4 |
| 20260831112601 | 22 | 285 | 17.7 | 35.4 | 0.00 | 0.36 | 0.36 | 57 | 1016.4 |
| 20260831112500 | 22 | 265 | 17.7 | 35.4 | 0.00 | 0.36 | 0.36 | 56 | 1016.4 |
| 20260831112400 | 22 | 225 | 17.7 | 35.4 | 0.00 | 0.36 | 0.36 | 56 | 1016.4 |
| 20260831112300 | 22 | 252 | 16.1 | 35.4 | 0.00 | 0.36 | 0.36 | 57 | 1016.5 |
| 20260831112201 | 22 | 246 | 16.1 | 35.4 | 0.00 | 0.36 | 0.36 | 60 | 1016.4 |
| 20260831112100 | 22 | 207 | 14.5 | 32.2 | 0.00 | 0.36 | 0.36 | 59 | 1016.4 |
| 20260831112000 | 22 | 253 | 14.5 | 32.2 | 0.00 | 0.36 | 0.36 | 60 | 1016.3 |
| 20260831111900 | 22 | 248 | 16.1 | 32.2 | 0.00 | 0.36 | 0.36 | 60 | 1016.4 |
| 20260831111801 | 22 | 236 | 16.1 | 32.2 | 0.00 | 0.36 | 0.36 | 60 | 1016.3 |
| 20260831111701 | 22 | 244 | 14.5 | 32.2 | 0.00 | 0.36 | 0.36 | 59 | 1016.3 |
| 20260831111600 | 22 | 262 | 14.5 | 32.2 | 0.00 | 0.36 | 0.36 | 60 | 1016.4 |
| 20260831111501 | 22 | 257 | 14.5 | 32.2 | 0.00 | 0.36 | 0.36 | 59 | 1016.4 |
| 20260831111401 | 22 | 222 | 14.5 | 29.0 | 0.00 | 0.36 | 0.36 | 62 | 1016.4 |
| 20260831111302 | 22 | 292 | 14.5 | 29.0 | 0.00 | 0.36 | 0.36 | 62 | 1016.4 |
| 20260831111201 | 22 | 229 | 14.5 | 29.0 | 0.00 | 0.36 | 0.36 | 62 | 1016.3 |
| 20260831111101 | 22 | 200 | 14.5 | 29.0 | 0.00 | 0.36 | 0.36 | 62 | 1016.4 |
| 20260831111001 | 22 | 219 | 14.5 | 29.0 | 0.00 | 0.36 | 0.36 | 63 | 1016.4 |
| 20260831110901 | 22 | 279 | 12.9 | 29.0 | 0.00 | 0.36 | 0.36 | 65 | 1016.4 |
| 20260831110801 | 22 | 238 | 12.9 | 24.1 | 0.00 | 0.36 | 0.36 | 64 | 1016.4 |
| 20260831110701 | 22 | 278 | 12.9 | 24.1 | 0.00 | 0.36 | 0.36 | 63 | 1016.3 |
| 20260831110601 | 22 | 248 | 12.9 | 24.1 | 0.00 | 0.36 | 0.36 | 65 | 1016.4 |
| 20260831110501 | 22 | 255 | 12.9 | 24.1 | 0.00 | 0.36 | 0.36 | 65 | 1016.4 |
| 20260831110401 | 22 | 260 | 12.9 | 27.4 | 0.00 | 0.36 | 0.36 | 64 | 1016.3 |
| 20260831110301 | 22 | 252 | 12.9 | 27.4 | 0.00 | 0.36 | 0.36 | 63 | 1016.3 |
| 20260831110253 | 22 | 205 | 12.9 | 27.4 | 0.00 | 0.36 | 0.36 | 65 | 1016.3 |
| 20260831110245 | 22 | 213 | 12.9 | 27.4 | 0.00 | 0.36 | 0.36 | 64 | 1016.4 |
| 20260831110238 | 22 | 247 | 12.9 | 27.4 | 0.00 | 0.36 | 0.36 | 64 | 1016.3 |
| 20260831110020 | 22 | 232 | 12.9 | 27.4 | 0.00 | 0.36 | 0.36 | 65 | 1016.4 |
| 20260831110016 | 22 | 215 | 12.9 | 27.4 | 0.00 | 0.36 | 0.36 | 64 | 1016.3 |
| 20260831110012 | 22 | 205 | 12.9 | 27.4 | 0.00 | 0.36 | 0.36 | 65 | 1016.3 |
| 20260831105701 | 22 | 309 | 14.5 | 27.4 | 0.00 | 0.36 | 0.36 | 65 | 1016.3 |
| 20260831105600 | 22 | 242 | 14.5 | 27.4 | 0.00 | 0.36 | 0.36 | 65 | 1016.4 |
| 20260831105519 | 22 | 263 | 14.5 | 27.4 | 0.00 | 0.36 | 0.36 | 65 | 1016.3 |
| 20260831105515 | 22 | 234 | 14.5 | 24.1 | 0.00 | 0.36 | 0.36 | 65 | 1016.3 |
| 20260831105511 | 22 | 200 | 14.5 | 24.1 | 0.00 | 0.36 | 0.36 | 65 | 1016.3 |
| 20260831105251 | 21 | 187 | 14.5 | 27.4 | 0.00 | 0.36 | 0.36 | 65 | 1016.3 |
| 20260831105246 | 21 | 236 | 14.5 | 24.1 | 0.00 | 0.36 | 0.36 | 65 | 1016.4 |
| 20260831105238 | 21 | 269 | 14.5 | 24.1 | 0.00 | 0.36 | 0.36 | 65 | 1016.4 |
| 20260831105020 | 21 | 229 | 14.5 | 27.4 | 0.00 | 0.36 | 0.36 | 65 | 1016.3 |
| 20260831105016 | 21 | 238 | 14.5 | 27.4 | 0.00 | 0.36 | 0.36 | 65 | 1016.4 |
| 20260831105012 | 21 | 187 | 14.5 | 27.4 | 0.00 | 0.36 | 0.36 | 65 | 1016.3 |
| 20260831104749 | 21 | 227 | 14.5 | 27.4 | 0.00 | 0.36 | 0.36 | 65 | 1016.3 |
| 20260831104744 | 21 | 232 | 14.5 | 27.4 | 0.00 | 0.36 | 0.36 | 64 | 1016.3 |
| 20260831104736 | 21 | 226 | 12.9 | 27.4 | 0.00 | 0.36 | 0.36 | 64 | 1016.3 |
| 20260831104519 | 21 | 194 | 12.9 | 27.4 | 0.00 | 0.36 | 0.36 | 64 | 1016.3 |
| 20260831104515 | 21 | 236 | 14.5 | 27.4 | 0.00 | 0.36 | 0.36 | 65 | 1016.3 |
| 20260831104511 | 21 | 227 | 14.5 | 27.4 | 0.00 | 0.36 | 0.36 | 65 | 1016.3 |
| 20260831104201 | 21 | 273 | 14.5 | 27.4 | 0.00 | 0.36 | 0.36 | 65 | 1016.4 |
| 20260831104101 | 21 | 273 | 14.5 | 27.4 | 0.00 | 0.36 | 0.36 | 65 | 1016.3 |
| 20260831104001 | 21 | 251 | 14.5 | 25.7 | 0.00 | 0.36 | 0.36 | 66 | 1016.4 |
| 20260831103901 | 21 | 283 | 14.5 | 27.4 | 0.00 | 0.36 | 0.36 | 65 | 1016.4 |
| 20260831103801 | 21 | 257 | 16.1 | 27.4 | 0.00 | 0.36 | 0.36 | 66 | 1016.3 |
| 20260831103701 | 21 | 247 | 16.1 | 27.4 | 0.00 | 0.36 | 0.36 | 65 | 1016.4 |
| 20260831103601 | 21 | 256 | 16.1 | 27.4 | 0.00 | 0.36 | 0.36 | 64 | 1016.4 |
| 20260831103521 | 21 | 229 | 17.7 | 27.4 | 0.00 | 0.36 | 0.36 | 65 | 1016.5 |
| 20260831103517 | 21 | 230 | 16.1 | 29.0 | 0.00 | 0.36 | 0.36 | 66 | 1016.5 |
| 20260831103513 | 21 | 246 | 16.1 | 29.0 | 0.00 | 0.36 | 0.36 | 65 | 1016.4 |
| 20260831103201 | 21 | 266 | 17.7 | 30.6 | 0.00 | 0.36 | 0.36 | 65 | 1016.5 |
| 20260831103101 | 21 | 256 | 17.7 | 30.6 | 0.00 | 0.36 | 0.36 | 64 | 1016.5 |
| 20260831103020 | 21 | 261 | 16.1 | 30.6 | 0.00 | 0.36 | 0.36 | 65 | 1016.6 |
| 20260831103016 | 21 | 207 | 16.1 | 30.6 | 0.00 | 0.36 | 0.36 | 64 | 1016.6 |
| 20260831103012 | 21 | 250 | 16.1 | 30.6 | 0.00 | 0.36 | 0.36 | 64 | 1016.5 |
| 20260831102700 | 21 | 212 | 16.1 | 30.6 | 0.00 | 0.36 | 0.36 | 65 | 1016.5 |
| 20260831102601 | 21 | 235 | 16.1 | 30.6 | 0.00 | 0.36 | 0.36 | 65 | 1016.5 |
| 20260831102500 | 21 | 225 | 16.1 | 30.6 | 0.00 | 0.36 | 0.36 | 65 | 1016.5 |
| 20260831102400 | 21 | 202 | 16.1 | 32.2 | 0.00 | 0.36 | 0.36 | 65 | 1016.5 |
| 20260831102301 | 21 | 212 | 16.1 | 32.2 | 0.00 | 0.36 | 0.36 | 66 | 1016.4 |
| 20260831102201 | 21 | 230 | 14.5 | 32.2 | 0.00 | 0.36 | 0.36 | 66 | 1016.5 |
| 20260831102101 | 21 | 270 | 14.5 | 32.2 | 0.00 | 0.36 | 0.36 | 66 | 1016.5 |
| 20260831102000 | 21 | 269 | 14.5 | 32.2 | 0.00 | 0.36 | 0.36 | 65 | 1016.4 |
| 20260831101900 | 21 | 276 | 16.1 | 32.2 | 0.00 | 0.36 | 0.36 | 67 | 1016.5 |
| 20260831101801 | 21 | 264 | 16.1 | 32.2 | 0.00 | 0.36 | 0.36 | 67 | 1016.4 |
| 20260831101701 | 21 | 288 | 16.1 | 32.2 | 0.00 | 0.36 | 0.36 | 66 | 1016.5 |
| 20260831101601 | 21 | 275 | 16.1 | 32.2 | 0.00 | 0.36 | 0.36 | 67 | 1016.5 |
| 20260831101500 | 21 | 219 | 17.7 | 32.2 | 0.00 | 0.36 | 0.36 | 66 | 1016.5 |
| 20260831101400 | 21 | 242 | 17.7 | 32.2 | 0.00 | 0.36 | 0.36 | 66 | 1016.6 |
| 20260831101301 | 21 | 276 | 17.7 | 33.8 | 0.00 | 0.36 | 0.36 | 66 | 1016.5 |
| 20260831101201 | 21 | 250 | 17.7 | 33.8 | 0.00 | 0.36 | 0.36 | 67 | 1016.6 |
| 20260831101101 | 21 | 252 | 19.3 | 33.8 | 0.00 | 0.36 | 0.36 | 67 | 1016.6 |
| 20260831101001 | 21 | 261 | 19.3 | 33.8 | 0.00 | 0.36 | 0.36 | 67 | 1016.6 |
| 20260831100901 | 21 | 271 | 19.3 | 33.8 | 0.00 | 0.36 | 0.36 | 66 | 1016.6 |
| 20260831100801 | 20 | 208 | 20.9 | 33.8 | 0.00 | 0.36 | 0.36 | 66 | 1016.6 |
| 20260831100701 | 20 | 228 | 20.9 | 33.8 | 0.00 | 0.36 | 0.36 | 66 | 1016.6 |
| 20260831100605 | 21 | 246 | 20.9 | 33.8 | 0.00 | 0.36 | 0.36 | 65 | 1016.7 |
| 20260831100501 | 21 | 265 | 19.3 | 33.8 | 0.00 | 0.36 | 0.36 | 66 | 1016.8 |
| 20260831100401 | 21 | 267 | 19.3 | 33.8 | 0.00 | 0.36 | 0.36 | 67 | 1016.5 |
| 20260831100302 | 21 | 278 | 20.9 | 32.2 | 0.00 | 0.36 | 0.36 | 66 | 1016.6 |
| 20260831100201 | 21 | 292 | 20.9 | 32.2 | 0.00 | 0.36 | 0.36 | 66 | 1016.6 |
| 20260831100103 | 21 | 274 | 20.9 | 32.2 | 0.00 | 0.36 | 0.36 | 65 | 1016.8 |
| 20260831100000 | 21 | 279 | 19.3 | 32.2 | 0.00 | 0.36 | 0.36 | 66 | 1016.6 |
| 20260831095901 | 21 | 275 | 19.3 | 32.2 | 0.00 | 0.36 | 0.36 | 66 | 1016.6 |
| 20260831095801 | 21 | 259 | 19.3 | 32.2 | 0.00 | 0.36 | 0.36 | 66 | 1017.0 |
| 20260831095701 | 21 | 256 | 19.3 | 32.2 | 0.00 | 0.36 | 0.36 | 66 | 1016.6 |
| 20260831095601 | 21 | 268 | 17.7 | 32.2 | 0.00 | 0.36 | 0.36 | 66 | 1016.6 |